[[{"header":{"parameterUnit":"m.s-1","parameterCategory":1,"la1":30.6,"la2":28.766,"lo1":-90.7593,"lo2":-88.6598,"dy":0.0162,"dx":0.0183,"nx":116,"ny":114,"refTime":"2024-03-30T00:00:00:Z","depth":0,"parameterNumber":2,"parameterNumberName":"U-component_of_WINDS"},"data":[0.0,0.0,0.0,0.0,0.0,0.0,0.0,0.0,0.0,0.0,0.0,0.0,0.0,0.0,0.0,0.0,0.0,0.0,0.0,0.0,0.0,0.0,0.0,0.0,0.0,0.0,0.0,0.0,0.0,0.0,0.0,0.0,0.0,0.0,0.0,0.0,0.0,0.0,0.0,0.0,0.0,0.0,0.0,0.0,0.0,0.0,0.0,0.0,0.0,0.0,0.0,0.0,0.0,0.0,0.0,0.0,0.0,0.0,0.0,0.0,0.0,0.0,0.0,0.0,0.0,0.0,0.0,0.0,0.0,0.0,0.0,0.0,0.0,0.0,0.0,0.0,0.0,0.0,0.0,0.0,0.0,0.0,0.0,0.0,0.0,0.0,0.0,0.0,0.0,0.0,0.0,0.0,0.0,0.0,0.0,0.0,0.0,0.0,0.0,0.0,0.0,0.0,0.0,0.0,0.0,0.0,0.0,0.0,0.0,0.0,0.0,0.0,0.0,0.0,0.0,0.0,0.0,0.0,0.0,0.0,0.0,0.0,0.0,0.0,0.0,0.0,0.0,0.0,0.0,0.0,0.0,0.0,0.0,0.0,0.0,0.0,0.0,0.0,0.0,0.0,0.0,0.0,0.0,0.0,0.0,0.0,0.0,0.0,0.0,0.0,0.0,0.0,0.0,0.0,0.0,0.0,0.0,0.0,0.0,0.0,0.0,0.0,0.0,0.0,0.0,0.0,0.0,0.0,0.0,0.0,0.0,0.0,0.0,0.0,0.0,0.0,0.0,0.0,0.0,0.0,0.0,0.0,0.0,0.0,0.0,0.0,0.0,0.0,0.0,0.0,0.0,0.0,0.0,0.0,0.0,0.0,0.0,0.0,0.0,0.0,0.0,0.0,0.0,0.0,0.0,0.0,0.0,0.0,0.0,0.0,0.0,0.0,0.0,0.0,0.0,0.0,0.0,0.0,0.0,0.0,0.0,0.0,0.0,0.0,0.0,0.0,0.0,0.0,0.0,0.0,0.0,0.0,0.0,0.0,0.0,0.0,0.0,0.0,0.0,0.0,0.0,0.0,0.0,0.0,0.0,0.0,0.0,0.0,0.0,0.0,0.0,0.0,0.0,0.0,0.0,0.0,0.0,0.0,0.0,0.0,0.0,0.0,0.0,0.0,0.0,0.0,0.0,0.0,0.0,0.0,0.0,0.0,0.0,0.0,0.0,0.0,0.0,0.0,0.0,0.0,0.0,0.0,0.0,0.0,0.0,0.0,0.0,0.0,0.0,0.0,0.0,0.0,0.0,0.0,0.0,0.0,0.0,0.0,0.0,0.0,0.0,0.0,0.0,0.0,0.0,0.0,0.0,0.0,0.0,0.0,0.0,0.0,0.0,0.0,0.0,0.0,0.0,0.0,0.0,0.0,0.0,0.0,0.0,0.0,0.0,0.0,0.0,0.0,0.0,0.0,0.0,0.0,0.0,0.0,0.0,0.0,0.0,0.0,0.0,0.0,0.0,0.0,0.0,0.0,0.0,0.0,0.0,0.0,0.0,0.0,0.0,0.0,0.0,0.0,0.0,0.0,0.0,0.0,0.0,0.0,0.0,0.0,0.0,0.0,0.0,0.0,0.0,0.0,0.0,0.0,0.0,0.0,0.0,0.0,0.0,0.0,0.0,0.0,0.0,0.0,0.0,0.0,0.0,0.0,0.0,0.0,0.0,0.0,0.0,0.0,0.0,0.0,0.0,0.0,0.0,0.0,0.0,0.0,0.0,0.0,0.0,0.0,0.0,0.0,0.0,0.0,0.0,0.0,0.0,0.0,0.0,0.0,0.0,0.0,0.0,0.0,0.0,0.0,0.0,0.0,0.0,0.0,0.0,0.0,0.0,0.0,0.0,0.0,0.0,0.0,0.0,0.0,0.0,0.0,0.0,0.0,0.0,0.0,0.0,0.0,0.0,0.0,0.0,0.0,0.0,0.0,0.0,0.0,0.0,0.0,0.0,0.0,0.0,0.0,0.0,0.0,0.0,0.0,0.0,0.0,0.0,0.0,0.0,0.0,0.0,0.0,0.0,0.0,0.0,0.0,0.0,0.0,0.0,0.0,0.0,0.0,0.0,0.0,0.0,0.0,0.0,0.0,0.0,0.0,0.0,0.0,0.0,0.0,0.0,0.0,0.0,0.0,0.0,0.0,0.0,0.0,0.0,0.0,0.0,0.0,0.0,0.0,0.0,0.0,0.0,0.0,0.0,0.0,0.0,0.0,0.0,0.0,0.0,0.0,0.0,0.0,0.0,0.0,0.0,0.0,0.0,0.0,0.0,0.0,0.0,0.0,0.0,0.0,0.0,0.0,0.0,0.0,0.0,0.0,0.0,0.0,0.0,0.0,0.0,0.0,0.0,0.0,0.0,0.0,0.0,0.0,0.0,0.0,0.0,0.0,0.0,0.0,0.0,0.0,0.0,0.0,0.0,0.0,0.0,0.0,0.0,0.0,0.0,0.0,0.0,0.0,0.0,0.0,0.0,0.0,0.0,0.0,0.0,0.0,0.0,0.0,0.0,0.0,0.0,0.0,0.0,0.0,0.0,0.0,0.0,0.0,0.0,0.0,0.0,0.0,0.0,0.0,0.0,0.0,0.0,0.0,0.0,0.0,0.0,0.0,0.0,0.0,0.0,0.0,0.0,0.0,0.0,0.0,0.0,0.0,0.0,0.0,0.0,0.0,0.0,0.0,0.0,0.0,0.0,0.0,0.0,0.0,0.0,0.0,0.0,0.0,0.0,0.0,0.0,0.0,0.0,0.0,0.0,0.0,0.0,0.0,0.0,0.0,0.0,0.0,0.0,0.0,0.0,0.0,0.0,0.0,0.0,0.0,0.0,0.0,0.0,0.0,0.0,0.0,0.0,0.0,0.0,0.0,0.0,0.0,0.0,0.0,0.0,0.0,0.0,0.0,0.0,0.0,0.0,0.0,0.0,0.0,0.0,0.0,0.0,0.0,0.0,0.0,0.0,0.0,0.0,0.0,0.0,0.0,0.0,0.0,0.0,0.0,0.0,0.0,0.0,0.0,0.0,0.0,0.0,0.0,0.0,0.0,0.0,0.0,0.0,0.0,0.0,0.0,0.0,0.0,0.0,0.0,0.0,0.0,0.0,0.0,0.0,0.0,0.0,0.0,0.0,0.0,0.0,0.0,0.0,0.0,0.0,0.0,0.0,0.0,0.0,0.0,0.0,0.0,0.0,0.0,0.0,0.0,0.0,0.0,0.0,0.0,0.0,0.0,0.0,0.0,0.0,0.0,0.0,0.0,0.0,0.0,0.0,0.0,0.0,0.0,0.0,0.0,0.0,0.0,0.0,0.0,0.0,0.0,0.0,0.0,0.0,0.0,0.0,0.0,0.0,0.0,0.0,0.0,0.0,0.0,0.0,0.0,0.0,0.0,0.0,0.0,0.0,0.0,0.0,0.0,0.0,0.0,0.0,0.0,0.0,0.0,0.0,0.0,0.0,0.0,0.0,0.0,0.0,0.0,0.0,0.0,0.0,0.0,0.0,0.0,0.0,0.0,0.0,0.0,0.0,0.0,0.0,0.0,0.0,0.0,0.0,0.0,0.0,0.0,0.0,0.0,0.0,0.0,0.0,0.0,0.0,0.0,0.0,0.0,0.0,0.0,0.0,0.0,0.0,0.0,0.0,0.0,0.0,0.0,0.0,0.0,0.0,0.0,0.0,0.0,0.0,0.0,0.0,0.0,0.0,0.0,0.0,0.0,0.0,0.0,0.0,0.0,0.0,0.0,0.0,0.0,0.0,0.0,0.0,0.0,0.0,0.0,0.0,0.0,0.0,0.0,0.0,0.0,0.0,0.0,0.0,0.0,0.0,0.0,0.0,0.0,0.0,0.0,0.0,0.0,0.0,0.0,0.0,0.0,0.0,0.0,0.0,0.0,0.0,0.0,0.0,0.0,0.0,0.0,0.0,0.0,0.0,0.0,0.0,0.0,0.0,0.0,0.0,0.0,0.0,0.0,0.0,0.0,0.0,0.0,0.0,0.0,0.0,0.0,0.0,0.0,0.0,0.0,0.0,0.0,0.0,0.0,0.0,0.0,0.0,0.0,0.0,0.0,0.0,0.0,0.0,0.0,0.0,0.0,0.0,0.0,0.0,0.0,0.0,0.0,0.0,0.0,0.0,0.0,0.0,0.0,0.0,0.0,0.0,0.0,0.0,0.0,0.0,0.0,0.0,0.0,0.0,0.0,0.0,0.0,0.0,0.0,0.0,0.0,0.0,0.0,0.0,0.0,0.0,0.0,0.0,0.0,0.0,0.0,0.0,0.0,0.0,0.0,0.0,0.0,0.0,0.0,0.0,0.0,0.0,0.0,0.0,0.0,0.0,0.0,0.0,0.0,0.0,0.0,0.0,0.0,0.0,0.0,0.0,0.0,0.0,0.0,0.0,0.0,0.0,0.0,0.0,0.0,0.0,0.0,0.0,0.0,0.0,0.0,0.0,0.0,0.0,0.0,0.0,0.0,0.0,0.0,0.0,0.0,0.0,0.0,0.0,0.0,0.0,0.0,0.0,0.0,0.0,0.0,0.0,0.0,0.0,0.0,0.0,0.0,0.0,0.0,0.0,0.0,0.0,0.0,0.0,0.0,0.0,0.0,0.0,0.0,0.0,0.0,0.0,0.0,0.0,0.0,0.0,0.0,0.0,0.0,0.0,0.0,0.0,0.0,0.0,0.0,0.0,0.0,0.0,0.0,0.0,0.0,0.0,0.0,0.0,0.0,0.0,0.0,0.0,0.0,0.0,0.0,0.0,0.0,0.0,0.0,0.0,0.0,0.0,0.0,0.0,0.0,0.0,0.0,0.0,0.0,0.0,0.0,0.0,0.0,0.0,0.0,0.0,0.0,0.0,0.0,0.0,0.0,0.0,0.0,0.0,0.0,0.0,0.0,0.0,0.0,0.0,0.0,0.0,0.0,0.0,0.0,0.0,0.0,0.0,0.0,0.0,0.0,0.0,0.0,0.0,0.0,0.0,0.0,0.0,0.0,0.0,0.0,0.0,0.0,0.0,0.0,0.0,0.0,0.0,0.0,0.0,0.0,0.0,0.0,0.0,0.0,0.0,0.0,0.0,0.0,0.0,0.0,0.0,0.0,0.0,0.0,0.0,0.0,0.0,0.0,0.0,0.0,0.0,0.0,0.0,0.0,0.0,0.0,0.0,0.0,0.0,0.0,0.0,0.0,0.0,0.0,0.0,0.0,0.0,0.0,0.0,0.0,0.0,0.0,0.0,0.0,0.0,0.0,0.0,0.0,0.0,0.0,0.0,0.0,0.0,0.0,0.0,0.0,0.0,0.0,0.0,0.0,0.0,0.0,0.0,0.0,0.0,0.0,0.0,0.0,0.0,0.0,0.0,0.0,0.0,0.0,0.0,0.0,0.0,0.0,0.0,0.0,0.0,0.0,0.0,0.0,0.0,0.0,0.0,0.0,0.0,0.0,0.0,0.0,0.0,0.0,0.0,0.0,0.0,0.0,0.0,0.0,0.0,0.0,0.0,0.0,0.0,0.0,0.0,0.0,0.0,0.0,0.0,0.0,0.0,0.0,0.0,0.0,0.0,0.0,0.0,0.0,0.0,0.0,0.0,0.0,0.0,0.0,0.0,0.0,0.0,0.0,0.0,0.0,0.0,0.0,0.0,0.0,0.0,0.0,0.0,0.0,0.0,0.0,0.0,0.0,0.0,0.0,0.0,0.0,0.0,0.0,0.0,0.0,0.0,0.0,0.0,0.0,0.0,0.0,0.0,0.0,0.0,0.0,0.0,0.0,0.0,0.0,0.0,0.0,0.0,0.0,0.0,0.0,0.0,0.0,0.0,0.0,0.0,0.0,0.0,0.0,0.0,0.0,0.0,0.0,0.0,0.0,0.0,0.0,0.0,0.0,0.0,0.0,0.0,0.0,0.0,0.0,0.0,0.0,0.0,0.0,0.0,0.0,0.0,0.0,0.0,0.0,0.0,0.0,0.0,0.0,0.0,0.0,0.0,0.0,0.0,0.0,0.0,0.0,0.0,0.0,0.0,0.0,0.0,0.0,0.0,0.0,0.0,0.0,2.4156,0.0,0.0,0.0,0.0,0.0,0.0,0.0,0.0,0.0,0.0,0.0,0.0,0.0,0.0,0.0,0.0,0.0,0.0,0.0,0.0,0.0,0.0,0.0,0.0,4.4572,4.4572,4.4572,4.4572,4.4572,4.4572,0.0,0.0,0.0,0.0,0.0,4.4572,4.4496,4.4419,4.4255,4.3856,4.3255,4.2477,4.2399,4.2499,4.2901,0.0,0.0,0.0,0.0,0.0,0.0,0.0,0.0,0.0,0.0,0.0,0.0,0.0,0.0,0.0,0.0,0.0,0.0,0.0,0.0,0.0,0.0,0.0,0.0,0.0,0.0,0.0,0.0,0.0,0.0,0.0,0.0,0.0,0.0,0.0,0.0,0.0,0.0,0.0,0.0,0.0,0.0,0.0,0.0,0.0,0.0,0.0,0.0,0.0,0.0,0.0,0.0,0.0,0.0,0.0,0.0,0.0,0.0,0.0,0.0,0.0,0.0,0.0,0.0,0.0,0.0,0.0,0.0,0.0,0.0,0.0,2.2744,0.0,0.0,0.0,0.0,0.0,0.0,0.0,0.0,0.0,0.0,0.0,0.0,0.0,0.0,0.0,0.0,0.0,0.0,0.0,0.0,0.0,4.4572,4.4572,4.4619,4.468,4.4603,4.4618,4.4649,4.4603,4.4603,0.0,0.0,4.4572,4.4572,4.4572,4.4388,4.4237,4.4146,4.33,4.2538,4.1731,4.1235,4.1565,4.2657,4.3034,0.0,0.0,0.0,0.0,0.0,0.0,0.0,0.0,0.0,0.0,0.0,0.0,0.0,0.0,0.0,0.0,0.0,0.0,0.0,0.0,0.0,0.0,0.0,0.0,0.0,0.0,0.0,0.0,0.0,0.0,0.0,0.0,0.0,0.0,0.0,0.0,0.0,0.0,0.0,0.0,0.0,0.0,0.0,0.0,0.0,0.0,0.0,0.0,0.0,0.0,0.0,0.0,0.0,0.0,0.0,0.0,0.0,0.0,0.0,0.0,0.0,0.0,0.0,1.3603,1.2835,1.199,0.977,0.8197,0.7438,1.4707,1.7859,1.7943,0.0,0.0,0.0,0.0,0.0,0.0,0.0,0.0,0.0,0.0,0.0,0.0,0.0,0.0,0.0,0.0,0.0,0.0,0.0,0.0,4.4496,4.4343,4.463,4.4838,4.4648,4.495,4.4929,4.4599,4.4728,4.4721,4.4374,4.4496,4.4496,4.4343,4.4267,4.4098,4.3916,4.2788,4.1856,4.1237,4.091,4.108,4.1527,4.2618,4.3552,4.4149,0.0,0.0,0.0,0.0,0.0,0.0,0.0,0.0,0.0,0.0,0.0,0.0,0.0,0.0,0.0,0.0,0.0,0.0,0.0,0.0,0.0,0.0,0.0,0.0,0.0,0.0,0.0,0.0,0.0,0.0,0.0,0.0,0.0,0.0,0.0,0.0,0.0,0.0,0.0,0.0,0.0,3.0197,2.9143,0.0,0.0,0.0,0.0,0.0,0.0,0.0,0.0,0.0,0.0,0.0,0.0,0.0,0.0,1.6025,1.4128,1.2899,1.244,1.2583,1.1704,1.0123,0.8893,0.656,0.3719,0.2564,0.0,1.2343,1.3716,0.0,0.0,0.0,0.0,0.0,0.0,0.0,0.0,0.0,0.0,0.0,0.0,0.0,0.0,0.0,0.0,0.0,0.0,0.0,0.0,0.0,4.4646,4.4941,4.5579,4.5608,4.5548,4.5309,4.5244,4.5042,4.4643,4.4634,4.4603,4.4613,4.4549,4.4252,4.3698,4.2639,4.201,4.1834,4.138,4.1614,4.2322,4.2781,4.312,4.3339,4.3021,0.0,0.0,0.0,0.0,0.0,0.0,0.0,0.0,0.0,0.0,0.0,0.0,0.0,0.0,0.0,0.0,0.0,0.0,0.0,0.0,0.0,0.0,0.0,0.0,0.0,0.0,0.0,0.0,0.0,0.0,0.0,0.0,0.0,0.0,0.0,0.0,0.0,0.0,0.0,3.1048,2.9025,2.7382,2.8457,2.9725,0.0,0.0,0.0,0.0,0.0,0.0,0.0,0.0,0.0,2.0219,1.5596,1.2581,1.1439,0.9632,0.8488,0.8081,0.8166,0.7181,0.5298,0.3249,0.1373,-0.0518,-0.2937,-0.218,0.111,0.6198,1.1393,1.6379,0.0,0.0,0.0,0.0,0.0,1.1736,0.0,0.0,0.0,0.0,0.0,0.0,0.0,0.0,0.0,0.0,0.0,0.0,4.4892,4.5084,4.547,4.626,4.6356,4.6263,4.5873,4.5727,4.5376,4.4911,4.4569,4.4508,4.477,4.4624,4.423,4.3482,4.2856,4.2665,4.2775,4.2312,4.2535,4.3259,4.3112,4.2883,4.2762,4.2425,4.265,4.3206,0.0,0.0,0.0,0.0,0.0,0.0,0.0,0.0,0.0,0.0,0.0,0.0,0.0,0.0,0.0,0.0,0.0,0.0,0.0,0.0,0.0,0.0,0.0,0.0,0.0,0.0,0.0,0.0,0.0,0.0,0.0,0.0,0.0,0.0,0.0,0.0,0.0,2.9836,2.8063,2.594,2.6672,2.7591,0.0,0.0,0.0,0.0,0.0,0.0,2.0929,1.7802,1.5811,1.5295,1.1438,0.9013,0.8049,0.6451,0.5306,0.4829,0.4688,0.3617,0.1447,-0.1085,-0.2712,-0.3617,-0.5604,-0.6978,-0.6996,-0.0,0.4686,0.7759,1.1963,1.3535,1.3449,1.1962,0.8519,0.4167,0.0,0.0,0.0,0.0,0.0,0.0,0.0,0.0,0.0,0.0,0.0,4.506,4.4234,4.5982,4.6861,4.6061,4.721,4.7349,4.6052,4.5929,4.5541,4.4714,4.4228,4.4138,4.4343,4.4203,4.3831,4.3343,4.3615,4.3746,4.3577,4.3647,4.368,4.368,4.3268,4.3024,4.3068,4.295,4.2701,4.2307,4.268,0.0,0.0,0.0,0.0,0.0,0.0,0.0,0.0,0.0,0.0,0.0,0.0,0.0,0.0,0.0,0.0,0.0,0.0,0.0,0.0,0.0,0.0,0.0,0.0,0.0,0.0,0.0,0.0,0.0,0.0,0.0,0.0,0.0,0.0,0.0,0.0,0.0,0.0,2.5454,2.5617,0.0,0.0,0.0,0.0,2.0592,1.8753,1.7191,1.6131,1.3878,1.2482,1.2093,0.9506,0.7806,0.7255,0.6359,0.5303,0.4434,0.4806,0.3142,-0.0,-0.1478,-0.314,-0.5172,-0.6279,-0.7157,-0.7783,-0.4484,-0.1149,0.2185,0.4238,0.5484,0.5703,0.4186,0.1318,-0.2565,0.0,0.0,0.0,0.0,0.0,4.4572,4.4572,4.4496,4.4494,4.474,4.4634,4.492,4.5896,4.6464,4.7188,4.7911,4.8318,4.825,4.7318,4.6625,4.5802,4.4937,4.459,4.4729,4.5284,4.5257,4.5028,4.4891,4.4693,4.4574,4.4503,4.4492,4.4551,4.4551,4.4394,4.4211,4.3868,4.2774,4.2217,4.2161,4.2206,4.2511,0.0,0.0,0.0,0.0,0.0,0.0,0.0,0.0,0.0,0.0,0.0,0.0,0.0,0.0,0.0,0.0,0.0,0.0,0.0,0.0,0.0,0.0,0.0,0.0,0.0,0.0,0.0,0.0,0.0,0.0,0.0,0.0,0.0,0.0,0.0,0.0,0.0,2.1859,2.1446,0.0,1.9312,1.8877,1.7816,1.5749,1.3999,1.2542,1.1577,0.9849,0.8918,0.8871,0.7394,0.6614,0.6565,0.5818,0.511,0.4616,0.3461,0.1729,-0.0577,-0.3076,-0.4789,-0.5903,-0.6853,-0.7733,-0.8162,-0.7303,-0.5454,-0.3009,-0.1293,-0.0799,-0.112,-0.2682,-0.5422,-0.8968,0.0,0.0,0.0,0.0,4.4572,4.4572,4.4572,4.4343,4.4364,4.4846,4.47,4.5191,4.665,4.7289,4.7983,4.9071,4.9246,4.8989,4.8051,4.7163,4.6223,4.547,4.5153,4.5132,4.5619,4.5638,4.557,4.5581,4.5523,4.5517,4.5469,4.5605,4.5586,4.5449,4.5312,4.5098,4.4668,4.328,4.2426,4.2214,4.1893,4.1995,4.2423,0.0,0.0,0.0,0.0,0.0,0.0,0.0,0.0,0.0,0.0,0.0,0.0,0.0,0.0,0.0,0.0,0.0,0.0,0.0,0.0,0.0,0.0,0.0,0.0,0.0,0.0,0.0,0.0,0.0,0.0,0.0,0.0,0.0,0.0,0.0,2.2241,1.8601,1.7761,1.6733,1.5302,1.4587,1.3433,1.1535,1.0111,0.8985,0.8019,0.7177,0.6775,0.6844,0.6354,0.606,0.5966,0.5584,0.4847,0.3926,0.255,0.0785,-0.1373,-0.4318,-0.5856,-0.6574,-0.7539,-0.8237,-0.8488,-0.8832,-0.8278,-0.7105,-0.5839,-0.5945,-0.6972,-0.8223,-1.0451,-1.3303,0.0,0.0,0.0,4.4572,4.4572,4.4572,4.4572,4.4297,4.4157,4.4373,4.5117,4.5826,4.6564,4.8284,4.9461,4.9415,4.991,4.9756,4.8302,4.7476,4.6769,4.5971,4.5713,4.5435,4.5155,4.5296,4.5482,4.5563,4.6048,4.6348,4.6348,4.6758,4.6738,4.6328,4.5898,4.5723,4.5664,4.4805,4.3758,4.2399,4.1778,4.1528,4.1542,0.0,0.0,0.0,0.0,0.0,0.0,0.0,0.0,0.0,0.0,0.0,0.0,0.0,0.0,0.0,0.0,0.0,0.0,0.0,0.0,0.0,0.0,0.0,0.0,0.0,0.0,0.0,0.0,0.0,0.0,0.0,0.0,0.0,2.4378,2.1949,1.9052,1.6085,1.4948,1.3828,1.2363,1.1328,0.9923,0.8157,0.752,0.675,0.5839,0.5954,0.6046,0.6101,0.6161,0.6027,0.5502,0.5499,0.4514,0.2355,0.1962,0.0392,-0.255,-0.51,-0.644,-0.6957,-0.8117,-0.8649,-0.9138,-0.9048,-0.9385,-0.9728,-0.9441,-1.0155,-1.145,-1.236,-1.368,-1.5554,0.0,0.0,4.4572,4.4572,4.4572,4.4572,4.4572,4.4508,4.4743,4.5723,4.5841,4.6552,4.8182,4.9023,4.9487,4.9684,5.0032,4.956,4.7983,4.7293,4.6625,4.5817,4.5899,4.6049,4.6011,4.6499,4.6617,4.6623,4.7111,4.7226,4.7226,4.7344,4.7344,4.7207,4.6777,4.6582,4.6523,4.5683,4.4895,4.4231,4.2867,4.2063,4.1524,0.0,0.0,0.0,0.0,0.0,0.0,0.0,0.0,0.0,0.0,0.0,0.0,0.0,0.0,0.0,0.0,0.0,0.0,0.0,0.0,0.0,0.0,0.0,0.0,0.0,0.0,0.0,0.0,0.0,0.0,0.0,2.3756,2.0826,2.0538,1.7898,1.4987,1.2476,1.1278,1.0061,0.8879,0.8029,0.7363,0.654,0.6463,0.6168,0.6022,0.6098,0.6166,0.6229,0.6245,0.6087,0.5552,0.5516,0.4333,0.2378,0.0197,-0.1569,-0.2943,-0.5298,-0.6635,-0.7539,-0.8117,-0.8649,-0.9142,-0.9118,-0.9672,-1.0404,-1.0533,-1.1507,-1.2909,-1.4373,-1.6362,-1.8174,0.0,4.4572,4.4572,4.4572,4.4572,4.4572,4.4572,4.4504,4.4882,4.6114,4.6065,4.663,4.8422,4.8633,4.8968,4.9502,4.9416,4.8974,4.7883,4.7147,4.6475,4.623,4.639,4.6625,4.6647,4.7174,4.7348,4.7189,4.7699,4.7754,4.7578,4.7754,4.7754,4.7578,4.7305,4.709,4.6894,4.6406,4.5686,4.4834,4.3555,4.2388,4.1412,4.061,4.0046,3.9677,3.9534,3.9638,4.0018,4.0488,0.0,0.0,0.0,0.0,0.0,0.0,0.0,0.0,0.0,0.0,0.0,0.0,0.0,0.0,0.0,0.0,0.0,0.0,0.0,0.0,0.0,0.0,0.0,0.0,2.0005,1.6778,1.5528,1.3767,1.1926,1.016,0.8909,0.8136,0.7323,0.6626,0.6117,0.5992,0.6052,0.6112,0.6169,0.6207,0.6254,0.6316,0.6119,0.5752,0.5606,0.4581,0.298,0.0995,-0.1187,-0.2758,-0.4122,-0.5886,-0.7025,0.0,-0.8506,-0.8845,-0.9142,-0.9332,-0.9901,0.0,0.0,0.0,0.0,0.0,-1.7898,-1.9332,0.0,4.4572,4.4572,4.4572,4.4572,4.4572,4.4572,4.4455,4.4714,4.5901,4.5998,4.6539,4.7912,4.7842,4.8095,4.8945,4.8427,4.8052,4.7883,4.6853,4.6513,4.6863,4.698,4.7093,4.7168,4.7474,4.7622,4.7656,4.8066,4.8086,4.7734,4.8105,4.8086,4.7715,4.7676,4.7441,4.707,4.7031,4.6191,4.5107,4.4003,4.2725,4.124,3.9432,3.8307,3.7557,3.6977,3.7012,3.7436,3.7567,0.0,0.0,0.0,0.0,0.0,0.0,0.0,0.0,0.0,0.0,0.0,0.0,0.0,0.0,0.0,0.0,0.0,0.0,0.0,0.0,0.0,0.0,0.0,0.0,1.6445,1.3019,1.0519,1.0083,0.9782,0.8819,0.7874,0.7408,0.7418,0.6556,0.6055,0.6104,0.6164,0.6221,0.6278,0.0,0.0,0.0,0.0,0.5404,0.5049,0.3227,0.1204,-0.1194,-0.2187,-0.3559,-0.549,-0.6658,-0.7207,-0.7721,-0.888,-0.922,-0.9142,-0.9711,-1.028,-1.1028,-1.1486,-1.2929,-1.4943,-1.7539,-1.8998,0.0,0.0,4.4572,4.4572,4.4572,4.4572,4.4572,4.4572,4.4455,4.4828,4.6206,4.6161,4.6621,4.823,4.8196,4.8035,4.7997,4.7555,4.7252,4.6687,4.6329,4.6452,4.6883,4.7093,4.7274,4.7574,4.7839,4.8008,4.8086,4.8516,4.8691,4.8613,4.8691,4.8691,4.8594,4.8242,4.8047,4.7949,4.7598,4.697,4.5953,4.4529,4.2802,4.0892,3.8968,3.7753,3.6888,3.6146,3.5822,3.5899,3.639,3.623,3.618,3.6993,3.7995,0.0,0.0,0.0,0.0,0.0,0.0,0.0,0.0,0.0,0.0,0.0,0.0,0.0,0.0,0.0,0.0,0.0,0.0,0.0,1.7379,1.4055,1.1119,0.9242,0.9062,0.919,0.8918,0.8028,0.7507,0.7572,0.6693,0.6158,0.6169,0.6229,0.6267,0.6278,0.6327,0.0,0.5772,0.5614,0.4835,0.3028,0.1803,0.0199,-0.2189,0.0,0.0,-0.5435,-0.6982,-0.7522,-0.7643,-0.8786,-0.9158,-0.9142,-0.9711,-1.1222,-1.3293,-1.4021,-1.5617,-1.7348,-1.8792,-1.9753,-2.028,0.0,4.4572,4.4572,4.4572,4.4572,4.4572,4.4572,4.4504,4.4846,4.5924,4.594,4.6193,4.7198,4.6737,4.6597,4.6836,4.6928,4.6809,4.6591,4.6658,4.687,4.7039,4.7499,4.7714,4.7917,4.8385,4.8535,4.8535,4.875,4.8867,4.8867,4.8867,4.8867,4.8848,4.8633,4.8418,4.8203,4.7988,4.716,4.5668,4.4547,4.2728,4.0526,3.8506,3.6903,3.5717,3.467,3.4034,3.3702,3.4246,3.4179,3.4072,3.5073,3.6172,3.7231,0.0,0.0,0.0,0.0,0.0,0.0,0.0,0.0,0.0,0.0,0.0,0.0,0.0,0.0,2.7826,2.5246,0.0,1.823,1.4882,1.2203,1.0224,0.8886,0.8856,0.8954,0.9003,0.8105,0.7592,0.767,0.6749,0.6213,0.6275,0.6308,0.6338,0.6368,0.6398,0.6214,0.5611,0.564,0.4442,0.2221,0.0402,-0.1599,-0.3783,-0.4953,-0.5703,-0.6232,-0.7172,-0.7903,-0.8056,-0.8782,-0.9142,-0.9142,-1.028,-1.2161,-1.4604,-1.5549,-1.6994,-1.8585,-1.9525,-2.0135,-2.0677,0.0,4.4572,4.4572,4.4572,4.4572,4.4572,4.4572,4.4569,4.4817,4.5668,4.5553,4.5594,4.598,4.5386,4.5153,4.5794,4.6254,4.6636,4.6618,4.6991,4.7312,4.7249,4.7894,4.8252,4.832,4.8672,4.8867,4.8867,4.8867,4.8867,4.8867,4.8867,4.8867,4.8867,4.8867,4.8672,4.834,4.834,4.7347,4.5735,4.4559,4.2836,4.0419,3.8219,3.6482,3.5046,3.3676,3.2991,3.2685,3.2964,3.2807,3.2823,3.3673,3.471,3.5751,3.6624,3.7339,0.0,0.0,0.0,0.0,0.0,0.0,0.0,0.0,3.099,2.953,2.7469,2.5464,2.3225,2.0729,1.7808,1.516,1.2785,1.083,0.9392,0.9053,0.8962,0.9016,0.9032,0.8153,0.765,0.7728,0.6779,0.6248,0.6346,0.6373,0.6398,0.6425,0.645,0.6254,0.5637,0.5448,0.424,0.1816,-0.0807,-0.3217,-0.5193,-0.539,-0.6153,-0.7077,-0.7609,-0.7963,-0.8521,-0.9016,-0.9158,-0.9522,-1.1037,-1.3104,-1.5542,-1.6486,-1.7981,-1.9285,-2.0037,-2.0677,-2.0904,0.0,4.4572,4.4572,4.4572,4.4572,4.4572,4.4572,4.4281,4.4437,4.5357,4.52,4.5178,4.5874,4.5607,4.5282,4.5126,4.5578,4.6019,4.6052,4.6815,4.7379,4.7634,4.7976,4.834,4.8769,4.8828,4.8867,4.8867,4.8867,4.8867,4.8867,4.8867,4.8867,4.8867,4.8867,4.8828,4.8789,4.8789,4.7945,4.6568,4.5259,4.323,4.0811,3.825,3.6829,3.6221,3.5382,3.4965,3.4653,3.4458,3.3516,3.2315,3.2567,3.3603,3.47,3.5583,3.5933,3.5558,3.3346,2.9667,2.6456,2.6523,2.6491,2.6436,0.0,2.612,2.5291,2.4108,2.2538,2.0754,1.8455,1.569,1.3128,1.1653,0.9997,0.8878,0.8954,0.8999,0.9036,0.9118,0.8185,0.765,0.7728,0.6821,0.6275,0.6289,0.639,0.6406,0.6305,0.6403,0.6034,0.4987,0.5229,0.3836,0.0202,-0.1413,-0.3027,-0.4839,-0.5443,-0.6214,-0.715,-0.7738,-0.8095,-0.8611,-0.9108,-0.9794,-1.0659,-1.1605,-1.367,-1.5917,-1.7421,-1.8922,-2.0223,-2.0408,-2.077,-2.1102,0.0,0.0,4.4572,4.4572,4.4572,4.4572,4.4572,4.4343,4.44,4.5102,4.475,4.4667,4.523,4.5167,4.4989,4.4775,4.5457,4.5936,4.5879,4.6891,4.7525,4.7522,4.8169,4.8672,4.8848,4.8867,4.8867,4.8867,4.8867,4.8867,4.8867,4.8867,4.8867,4.8867,4.8867,4.8867,4.8867,4.8867,4.8061,4.6701,4.5352,4.3158,4.0703,3.8531,3.7606,3.7487,3.5962,3.5823,0.0,3.6128,3.5322,3.4354,3.4733,3.5046,3.5327,3.5782,3.5191,3.3379,2.8922,2.5438,2.3164,2.2902,2.3036,2.325,2.3461,2.3087,2.2281,2.0796,1.9554,1.8305,1.6164,1.4154,1.2397,0.0,0.995,0.9186,0.8983,0.9007,0.9024,0.906,0.812,0.7602,0.7721,0.683,0.6281,0.6281,0.6393,0.6422,0.6338,0.6414,0.6047,0.4821,0.504,0.3433,-0.0,-0.2422,-0.4038,-0.4847,-0.5654,-0.6648,-0.7221,-0.7781,-0.8289,-0.914,-0.9297,-0.9802,-1.0848,-1.1794,-1.3858,-1.6479,-1.7795,-1.9294,-2.0788,-2.0788,-2.0973,-2.1159,0.0,0.0,0.0,4.4572,4.4572,4.4572,4.4572,4.4496,4.445,4.4782,4.4497,4.4439,4.4788,4.4847,4.4744,4.4576,4.5483,4.5904,4.5787,4.706,4.7688,4.7668,4.8353,4.8797,4.8848,4.8867,4.8867,4.8867,4.8867,4.8867,4.8867,4.8867,4.8867,4.8867,4.8867,4.8867,4.8867,4.8867,4.8061,4.6701,4.5352,4.3179,4.0473,3.8628,3.8303,3.8652,3.72,3.7348,3.8213,3.8151,3.7685,3.6973,3.723,3.6953,3.6681,3.6749,3.4662,3.1211,2.5535,2.2472,2.0894,2.0169,2.0186,2.0531,2.0671,2.0569,2.0141,1.8769,1.8216,1.753,1.5774,1.4529,1.3235,1.1643,1.0579,0.9834,0.9028,0.9024,0.9007,0.9007,0.805,0.7527,0.766,0.6791,0.6254,0.6254,0.6368,0.6409,0.6349,0.6219,0.5856,0.5049,0.4444,0.2624,-0.0202,-0.3433,-0.5049,-0.5049,-0.6057,-0.6864,-0.7264,-0.7814,-0.85,-0.9314,-0.9507,-1.0016,-1.1037,-1.2167,-1.4228,-1.704,-1.7981,-1.948,-2.1168,-2.1168,-2.1168,-2.1168,0.0,0.0,0.0,0.0,4.4572,4.4572,4.4572,4.4572,4.4603,4.4603,4.4603,4.4603,4.4633,4.4633,4.4582,4.4739,4.5395,4.5816,4.5944,4.6749,4.7553,4.7894,4.8129,4.835,4.8848,4.8867,4.8867,4.8867,4.8867,4.8867,4.8867,4.8867,4.8867,4.8867,4.8867,4.8867,4.8867,4.8867,4.8061,4.6701,4.5352,4.3199,4.0593,3.87,3.8707,3.9777,3.9256,4.0085,4.1331,4.0919,4.0522,4.0129,3.9264,3.8951,3.8722,3.8495,3.4403,2.8946,2.4422,2.1444,1.93,1.807,1.7844,1.7902,1.8122,1.8503,1.8799,1.8654,1.9298,1.9342,1.8302,1.7231,1.5851,1.3694,1.2068,1.0596,0.9303,0.9065,0.9007,0.9007,0.7999,0.7425,0.0,0.6693,0.6191,0.6191,0.6305,0.6346,0.6286,0.5996,0.5654,0.5455,0.3433,0.1211,-0.1009,-0.3836,-0.5452,-0.5652,-0.6259,-0.6864,-0.7264,-0.8471,-0.8982,-0.9403,-0.9989,-1.0652,-1.1411,-1.3104,-1.5167,-1.7414,-1.8532,-1.9851,-2.1168,-2.1168,-2.1168,-2.1168,0.0,0.0,0.0,0.0,0.0,4.4572,4.4572,4.4572,4.4572,4.4572,4.4572,0.0,0.0,0.0,0.0,0.0,4.5376,4.5776,4.5771,4.7023,4.7793,4.8036,4.8768,4.9175,4.9488,4.9802,4.9797,4.9127,4.9568,4.9486,4.8912,4.8847,4.8941,4.8867,4.8867,4.8867,4.8848,4.8921,4.8346,4.7476,4.5802,4.3995,4.2269,4.0717,4.0539,4.1294,0.0,4.1986,4.2758,4.2761,4.2052,4.1225,4.1213,4.0283,3.8851,3.6258,3.3078,2.9241,2.4275,2.1716,2.0025,1.8592,1.8303,1.8447,1.8796,1.8881,1.9037,1.9522,2.0028,2.0362,1.9957,1.9029,1.7337,1.4794,1.2894,1.1034,0.9215,0.8975,0.8732,0.8547,0.7735,0.0,0.0,0.0,0.0,0.6128,0.6278,0.6343,0.6284,0.5994,0.5654,0.5455,0.2422,-0.0,-0.1816,-0.4643,-0.6057,-0.5652,-0.6659,-0.7264,-0.7867,-0.8475,-0.9017,-0.9493,-1.0019,-1.0694,-1.1523,-1.314,-1.5167,-1.7414,-1.8541,-1.9851,-2.1168,-2.1168,-2.1168,-2.1168,0.0,0.0,0.0,0.0,0.0,0.0,0.0,0.0,0.0,0.0,0.0,0.0,0.0,0.0,0.0,0.0,0.0,4.5551,4.5711,4.6694,4.7445,4.7936,4.8396,4.8892,4.9315,4.9646,4.9591,4.9124,4.9596,4.9574,4.9064,4.9004,4.9107,4.9223,4.9223,4.9223,4.9182,4.9066,4.8667,4.778,4.6434,4.4857,4.3351,4.2183,4.206,0.0,4.3016,4.344,4.377,4.3706,4.3148,4.2385,4.2049,4.0752,3.87,3.4956,3.2207,2.9236,2.4268,2.1829,2.0494,1.8824,1.8683,1.8966,1.924,1.9193,1.9356,2.0569,2.1601,2.2447,2.2919,2.2437,2.0884,1.7828,1.5413,1.3121,1.0212,0.9644,0.9065,0.8362,0.7738,0.717,0.0,0.0,0.0,0.6096,0.6245,0.6322,0.6281,0.5797,0.5251,0.4242,0.1211,-0.1413,-0.3231,-0.5248,-0.6057,-0.6055,-0.6861,-0.7666,-0.8065,-0.8676,-0.9032,-0.9538,-1.0228,-1.0906,-1.1952,-1.3725,-1.573,-1.7795,-1.8913,-2.0223,-2.1168,-2.1168,-2.1168,-2.1168,0.0,0.0,0.0,0.0,0.0,0.0,0.0,0.0,0.0,0.0,0.0,0.0,0.0,0.0,0.0,0.0,0.0,0.0,4.5688,4.5758,4.636,4.7358,4.7123,4.744,4.8453,4.8523,4.8653,4.8908,4.9155,4.9288,4.9118,4.9333,4.9563,4.9762,4.9762,4.9762,4.9719,4.9657,4.8846,4.786,4.6871,4.5534,4.4071,4.3414,4.3311,4.3592,4.4102,4.4486,4.4486,4.3806,4.3698,4.3526,4.1827,4.0109,3.8052,3.4497,3.172,2.8758,2.4289,2.1905,2.0346,1.899,1.9014,1.9297,1.9297,1.9437,1.9884,2.1601,2.3624,2.5499,2.7049,2.7124,2.5848,2.2685,1.9572,1.6175,1.2068,1.0881,0.9825,0.0,0.0,0.0,0.0,0.0,0.0,0.6093,0.0,0.6281,0.6278,0.5797,0.4444,0.2221,-0.0,-0.2422,-0.5455,-0.5654,-0.6055,-0.6461,-0.7065,-0.7666,-0.8069,-0.8676,-0.9232,-0.9546,-1.0629,-1.1492,-1.2532,-1.5053,-1.6868,-1.8363,-1.9851,-2.0788,-2.1168,-2.1168,-2.1168,-2.1168,0.0,0.0,0.0,0.0,0.0,0.0,0.0,0.0,0.0,0.0,0.0,0.0,0.0,0.0,0.0,0.0,0.0,0.0,4.5224,4.593,4.6488,4.6865,4.715,4.744,4.7844,4.8283,4.841,4.8232,4.8953,4.912,4.8968,4.9264,4.9457,4.9593,4.9593,4.9593,4.9548,4.9513,4.9311,4.9227,4.7847,4.7129,4.6743,4.5219,4.4935,4.5038,4.4665,4.4773,4.5052,4.4229,4.2195,3.984,3.8331,3.6911,3.5302,3.2746,3.0425,2.7925,2.4011,2.1941,2.0539,1.9606,1.9494,1.9962,2.0457,2.0878,2.1726,2.3845,2.5783,2.7516,2.8854,2.8639,2.7207,2.3714,2.0307,1.6618,1.2674,1.0775,0.9271,0.7874,0.7068,0.6684,0.6193,0.6014,0.0,0.0,0.621,0.6085,0.5693,0.5599,0.424,0.1413,-0.0807,-0.3028,-0.5455,-0.6057,-0.6662,-0.7062,-0.7666,-0.827,-0.8676,-0.9279,-0.987,-1.024,-1.1328,-1.2395,-1.3819,-1.5779,-1.753,-1.8913,-2.0028,-2.0788,-2.1168,-2.1168,-2.1168,-2.1168,0.0,0.0,0.0,0.0,0.0,0.0,0.0,0.0,0.0,0.0,0.0,0.0,0.0,0.0,0.0,0.0,0.0,0.0,0.0,4.556,4.5932,4.6175,4.6413,4.6686,4.7022,4.7383,4.7515,4.7485,4.8047,4.8195,4.8058,4.866,4.8982,4.9175,4.9421,4.9652,4.9603,4.9515,4.9469,0.0,0.0,4.7996,4.7965,4.6799,4.6268,4.602,4.5526,4.4923,4.4133,4.2772,4.0331,3.7607,3.6317,3.4606,3.2765,3.0889,2.8679,2.6318,2.3356,2.1545,2.0457,1.9599,1.9881,2.0544,2.1206,2.2225,2.3606,2.5813,2.7858,2.9744,3.1285,3.1219,2.9904,2.6883,2.3536,1.9799,1.4998,1.2538,1.0311,0.805,0.7126,0.6576,0.6046,0.6052,0.6074,0.0,0.6226,0.6085,0.5499,0.52,0.3836,0.0807,-0.2019,-0.424,-0.5858,-0.6259,-0.6864,-0.7264,-0.7867,-0.8471,-0.8877,-0.948,-1.0083,-1.0476,0.0,-1.2661,-1.4347,-1.6508,-1.8113,-1.9347,-2.0385,-2.1105,-2.1291,-2.1206,-2.1168,-2.1353,0.0,0.0,0.0,0.0,0.0,0.0,0.0,0.0,0.0,0.0,4.4572,4.4572,0.0,0.0,0.0,0.0,0.0,0.0,0.0,0.0,4.5082,4.5531,4.5421,4.5608,4.613,4.6159,4.6297,4.6685,4.6881,4.7023,4.6974,4.7778,4.8346,4.8627,4.9173,4.9584,4.9611,4.947,4.9236,4.907,4.8596,4.8413,4.8406,0.0,4.7276,4.6441,4.6203,4.4816,4.281,4.087,3.864,3.6582,3.525,3.3105,3.0662,2.9003,2.6805,2.4629,2.2527,2.119,2.0104,1.9552,2.0289,2.1365,2.1851,2.3593,2.5682,2.7976,3.0171,3.2109,3.3519,3.3763,3.2945,3.0303,2.7478,2.3676,1.8118,1.506,1.2023,0.8784,0.7386,0.6672,0.6098,0.6104,0.6131,0.6185,0.6251,0.5899,0.5509,0.4802,0.2826,-0.0605,-0.3431,-0.5452,-0.6461,-0.6461,-0.6864,-0.7465,-0.7867,-0.8471,-0.9078,-0.948,-1.0083,-1.0676,0.0,0.0,-1.4851,-1.7247,-1.8728,-1.9854,-2.1017,-2.1508,-2.1489,-2.1319,-2.1253,-2.143,0.0,0.0,0.0,0.0,0.0,0.0,0.0,0.0,0.0,0.0,4.4572,4.4572,0.0,0.0,0.0,0.0,0.0,0.0,0.0,0.0,0.0,4.4755,4.4786,4.48,4.4935,4.4935,4.5111,4.5565,4.595,4.6337,4.669,4.7172,4.775,4.8325,4.8439,4.8881,4.9338,4.9328,4.9397,4.945,4.8923,4.8922,4.9061,4.8065,0.0,0.0,4.5295,4.4287,4.3369,4.2032,3.9258,3.6161,3.4362,3.2294,3.005,2.8133,2.6148,2.4142,2.223,2.0878,1.999,1.9599,2.094,2.267,2.3604,2.6226,2.9006,3.1047,3.3191,3.4668,3.4372,3.429,3.3236,3.0401,2.7605,2.4222,1.9664,1.5717,1.2443,0.9702,0.7568,0.6288,0.6098,0.6142,0.0,0.0,0.0,0.5559,0.5365,0.3612,0.0404,-0.4242,-0.5248,-0.5853,-0.6461,-0.6461,-0.7065,-0.7867,-0.8069,-0.8672,-0.948,-1.0083,-1.0881,-1.1884,0.0,0.0,-1.702,-1.8745,-2.0001,-2.081,-2.1554,-2.1735,-2.1735,-2.1697,-2.2058,-2.2397,0.0,0.0,0.0,0.0,0.0,0.0,0.0,4.4572,4.4572,4.4572,4.4572,4.4572,4.4572,4.4572,4.4572,0.0,0.0,0.0,0.0,0.0,0.0,0.0,4.4572,4.4572,4.4572,4.4572,4.4726,4.491,0.0,4.5312,4.5595,4.6094,4.6556,4.6897,4.7255,4.7553,4.7939,4.7902,4.7955,4.7981,4.7798,4.7803,4.7855,4.7261,0.0,0.0,4.4941,4.4349,4.3892,4.2813,4.1001,3.8688,3.6058,3.3448,3.086,2.8828,2.6466,2.396,2.2191,2.0796,1.9845,1.9524,2.1168,2.3139,2.4515,2.7781,3.1039,3.3205,3.5207,3.6202,3.517,3.4996,3.405,3.1421,2.9545,2.6876,2.2193,1.8109,1.4249,1.0811,0.7888,0.6098,0.6098,0.6153,0.6202,0.0,0.0,0.5573,0.5379,0.1807,-0.1816,-0.5253,-0.5856,-0.6259,-0.6461,-0.6461,-0.7065,-0.8065,-0.8065,-0.8672,-0.9681,-1.0284,-1.1082,-1.2284,-1.3878,0.0,-1.7735,-1.9306,-2.0428,-2.1311,-2.1798,-2.1943,-2.1934,-2.2202,-2.2534,-2.3084,0.0,0.0,0.0,0.0,0.0,0.0,4.4572,4.4572,4.4572,4.4572,4.4572,4.4572,4.4572,4.4572,4.4572,0.0,0.0,0.0,0.0,0.0,0.0,0.0,0.0,0.0,4.4572,0.0,0.0,4.4572,4.4572,0.0,0.0,0.0,0.0,0.0,4.6142,4.6449,4.6603,4.6603,4.6603,0.0,0.0,4.6603,0.0,0.0,0.0,0.0,0.0,4.4588,4.4579,4.3715,4.304,4.2113,3.9265,3.607,3.2624,3.0166,2.7323,2.4478,2.2496,2.0958,1.9817,1.9401,2.1242,2.3507,2.5152,2.8844,3.2525,3.4845,3.6618,3.7318,3.5844,3.5547,3.4762,3.2469,3.1406,2.9299,2.4427,2.0082,1.5884,1.1844,0.8188,0.609,0.6115,0.6172,0.0,0.0,0.0,0.0,0.4195,-0.0201,-0.3635,-0.5455,-0.6057,-0.6461,-0.6461,-0.6474,-0.7086,-0.8093,-0.8106,-0.8716,-0.9911,-1.0511,-1.1502,-1.2684,-1.4476,0.0,0.0,-1.9832,-2.0826,-2.179,-2.2023,-2.2132,-2.2066,-2.247,-2.3144,-2.3841,0.0,0.0,0.0,0.0,0.0,0.0,4.4572,4.4572,4.4572,4.4572,4.4572,4.4572,4.4572,4.4572,4.4572,0.0,0.0,0.0,0.0,0.0,0.0,0.0,0.0,0.0,0.0,0.0,0.0,4.4572,4.4572,0.0,0.0,0.0,0.0,0.0,0.0,4.6018,4.6603,4.6603,0.0,0.0,0.0,0.0,0.0,0.0,0.0,0.0,0.0,4.4965,4.5447,4.5081,4.5224,4.5385,4.3894,4.0082,3.5579,3.2506,2.9244,2.6188,2.358,2.1292,1.9817,1.9401,2.1719,2.4367,2.6076,3.0139,3.4112,3.6081,3.7712,3.8148,3.6193,3.577,3.5041,3.3003,3.162,2.9493,2.5599,2.0597,1.609,1.2577,0.8473,0.6063,0.6169,0.6234,0.6297,0.0,0.0,0.0,0.0605,-0.2623,-0.4847,-0.5652,-0.6259,-0.6461,-0.6461,-0.6515,-0.7155,-0.8171,-0.8239,-0.906,-1.0617,-1.1623,-1.2775,-1.4476,0.0,0.0,0.0,-2.1022,-2.1799,-2.2387,-2.2368,-2.2255,-2.2085,-2.2645,-2.3466,-2.4764,0.0,0.0,0.0,0.0,0.0,0.0,4.4572,4.4572,4.4572,4.4572,4.4572,4.4572,4.4572,4.4572,4.4572,4.4572,0.0,0.0,0.0,0.0,0.0,0.0,0.0,0.0,0.0,0.0,4.4572,4.4572,4.4572,0.0,0.0,0.0,0.0,0.0,0.0,4.5126,4.5372,4.5372,0.0,0.0,0.0,0.0,0.0,0.0,0.0,0.0,0.0,0.0,4.5961,4.5597,4.5989,4.6599,4.5809,4.3419,3.9997,3.5211,3.1145,2.762,2.4251,2.1747,1.9788,1.9586,2.1811,2.4678,2.6556,3.0377,3.4186,3.6429,3.7826,3.8277,3.6684,3.6363,3.5673,3.383,3.2857,3.1172,2.7582,2.3222,1.9284,1.5731,1.1643,0.8716,0.0,0.0,0.691,0.0,0.0,0.0,-0.1222,-0.3888,-0.5324,-0.5699,-0.6312,-0.6499,-0.6463,-0.6485,-0.7104,-0.8113,-0.8144,-0.8952,-1.0542,-1.1747,-1.2928,-1.4676,0.0,0.0,0.0,-2.1219,-2.1995,-2.2387,-2.2387,-2.2459,-2.2664,-2.3435,-2.462,-2.5904,0.0,0.0,0.0,0.0,0.0,4.4572,4.4572,4.4572,4.4572,4.4572,4.4572,4.4572,4.4572,4.4572,4.4572,4.4572,4.4572,0.0,0.0,0.0,0.0,0.0,0.0,0.0,0.0,0.0,4.4572,4.4572,4.4572,4.4572,0.0,0.0,4.4572,4.4572,0.0,0.0,0.0,0.0,0.0,0.0,0.0,0.0,0.0,0.0,0.0,0.0,0.0,0.0,0.0,0.0,0.0,4.7262,4.692,4.5801,4.3452,3.8123,3.3519,2.9592,2.6195,2.3341,2.1231,2.1111,2.3033,2.573,2.7525,3.1003,3.4333,3.6468,3.7749,3.8122,3.7057,3.681,3.6248,3.4501,3.381,3.2169,2.8674,2.5128,2.1698,1.8333,1.4465,1.133,0.0,0.8128,0.0,0.0,0.0,0.0,0.0,-0.4786,-0.5826,-0.5962,-0.6354,-0.6531,-0.6488,-0.6488,-0.7092,-0.8099,-0.8326,-0.9334,-1.1124,-1.2336,-1.3713,-1.5466,0.0,0.0,0.0,-2.1415,-2.1995,-2.2387,-2.2387,-2.2615,-2.2769,-2.3909,-2.5228,-2.6445,0.0,0.0,0.0,0.0,0.0,4.4572,4.4572,4.4572,4.4572,4.4572,4.4572,4.4572,4.4572,4.4572,4.4572,4.4572,4.4572,0.0,0.0,0.0,0.0,0.0,0.0,0.0,0.0,0.0,4.4572,4.4572,4.4572,4.4572,4.4572,4.4572,4.4572,4.4572,0.0,0.0,0.0,0.0,0.0,0.0,0.0,0.0,0.0,0.0,0.0,0.0,0.0,0.0,0.0,0.0,0.0,0.0,0.0,4.6897,4.5324,4.1002,3.6427,3.2169,2.9628,2.6724,2.4427,2.4341,2.6031,2.8016,2.934,3.2296,3.5073,3.6382,3.7493,3.8031,3.7201,3.7071,3.6529,3.4822,3.3874,3.2092,2.8648,2.5627,2.2639,1.9725,1.6004,1.2968,1.1105,0.7824,0.0,0.0,0.0,0.0,0.0,-0.5726,-0.613,-0.6638,-0.6581,-0.6551,-0.6551,-0.6551,-0.7164,-0.8181,-0.887,-1.0099,-1.2242,-1.3863,-1.5804,0.0,0.0,0.0,0.0,-2.2191,-2.2387,-2.2387,-2.2387,-2.2529,-2.2744,-2.4241,-2.5425,-2.6458,0.0,0.0,0.0,0.0,0.0,0.0,4.4572,4.4572,4.4572,4.4572,4.4572,4.4572,4.4572,4.4572,4.4572,4.4572,4.4572,0.0,0.0,0.0,0.0,0.0,0.0,0.0,0.0,4.4572,4.4572,4.4572,4.4572,4.4572,4.4572,4.4572,4.4572,4.4572,4.4572,4.4572,0.0,0.0,0.0,0.0,0.0,0.0,0.0,0.0,0.0,0.0,0.0,0.0,0.0,0.0,0.0,0.0,0.0,0.0,0.0,4.4037,3.9486,3.4575,3.1855,2.9262,2.7401,2.7386,2.8542,3.0223,3.1677,3.3658,3.5427,3.6505,3.7115,3.7294,3.6734,3.688,3.653,3.4611,3.4029,3.2664,2.9564,2.7929,2.6145,2.3665,1.8021,1.3337,0.0,0.0,0.0,0.0,0.0,0.0,0.0,-0.5694,-0.609,-0.6638,-0.6619,-0.657,-0.6491,-0.6491,-0.7095,-0.8103,-0.8734,-1.0147,-1.2135,-1.3742,0.0,0.0,0.0,0.0,0.0,-2.2191,-2.2387,-2.2387,-2.2779,-2.3099,-2.3673,-2.5174,-2.6353,-2.7365,0.0,0.0,0.0,0.0,0.0,0.0,4.4572,4.4572,4.4572,4.4572,4.4572,4.4572,4.4572,4.4572,4.4572,4.4572,4.4572,0.0,0.0,0.0,0.0,0.0,0.0,0.0,4.4572,4.4572,4.4572,4.4572,4.4572,4.4572,4.4572,4.4572,4.4572,4.4572,4.4572,4.4572,0.0,0.0,0.0,0.0,0.0,0.0,4.4572,0.0,0.0,0.0,0.0,0.0,0.0,0.0,0.0,0.0,0.0,0.0,0.0,0.0,4.1853,3.795,3.5191,3.2786,3.1032,3.1081,3.1797,3.2715,3.3828,3.505,3.6109,3.6356,3.6584,3.6615,3.5953,3.638,3.6102,3.3899,3.3634,3.2519,2.941,2.8765,0.0,2.4127,0.0,0.0,0.0,0.0,0.0,0.0,0.0,0.0,0.0,0.0,-0.6282,-0.6638,-0.6616,-0.657,-0.6496,-0.6472,-0.7062,-0.8467,-0.907,-1.0672,-1.3084,-1.4875,0.0,0.0,0.0,0.0,0.0,-2.2191,-2.2387,-2.2387,-2.2974,-2.3485,-2.423,-2.5926,-2.6908,-2.792,0.0,0.0,0.0,0.0,0.0,0.0,0.0,4.4572,4.4572,4.4572,4.4572,4.4572,4.4572,4.4572,4.4572,4.4572,4.4572,0.0,0.0,0.0,0.0,0.0,0.0,0.0,4.4572,4.4572,4.4572,4.4572,4.4572,4.4572,4.4572,4.4572,4.4572,4.4572,4.4572,4.4572,4.4572,4.4572,4.4572,4.4572,4.4572,4.4572,0.0,0.0,0.0,0.0,0.0,0.0,0.0,0.0,0.0,0.0,0.0,0.0,0.0,0.0,0.0,0.0,0.0,3.6789,3.4962,3.4977,3.5221,3.5459,3.5805,3.6481,0.0,3.6028,3.6118,3.5928,3.4872,3.5641,3.5432,3.2767,3.2798,3.1995,0.0,2.8237,0.0,0.0,1.8183,0.0,0.0,0.0,0.0,0.0,0.0,0.0,0.0,0.0,-0.6692,-0.6632,-0.6581,-0.6551,-0.6545,-0.6491,-0.7264,-0.8869,-1.007,-1.2074,-1.4676,-1.6857,0.0,0.0,0.0,0.0,0.0,-2.2387,-2.2387,-2.2387,-2.2974,-2.3678,-2.4419,-2.6291,-2.7277,-2.8101,0.0,0.0,0.0,0.0,0.0,0.0,0.0,0.0,0.0,0.0,4.4572,4.4572,4.4572,4.4572,4.4572,0.0,0.0,0.0,0.0,0.0,0.0,0.0,0.0,0.0,4.4572,4.4572,4.4572,4.4572,4.4572,4.4572,4.4572,4.4572,4.4572,4.4572,4.4572,4.4572,4.4572,4.4572,4.4572,4.4572,4.4572,4.4572,0.0,0.0,0.0,0.0,4.4572,4.4572,0.0,0.0,0.0,0.0,0.0,0.0,0.0,0.0,4.3661,4.2382,4.1407,0.0,3.782,3.7861,3.7478,3.7267,0.0,3.7483,3.7075,3.5883,3.5763,3.5283,3.3819,3.4757,3.5035,3.2547,3.3338,3.2963,2.9261,0.0,0.0,2.4485,1.9856,0.0,0.0,0.0,0.0,0.0,0.0,0.0,0.0,0.0,-0.6632,-0.6572,-0.6559,-0.6529,-0.6482,-0.6869,-0.7666,-0.8869,-1.0872,-1.2868,-1.5267,-1.7253,0.0,0.0,0.0,0.0,-2.2387,-2.2387,-2.2387,-2.2583,-2.3365,-2.4256,-2.5362,-2.6864,-2.8014,-2.9002,0.0,0.0,0.0,0.0,0.0,0.0,0.0,0.0,0.0,0.0,4.4572,4.4572,4.4572,4.4572,4.4572,0.0,0.0,0.0,0.0,0.0,0.0,0.0,0.0,4.4572,4.4572,4.4572,4.4572,4.4572,4.4572,4.4572,4.4572,4.4572,4.4572,4.4572,4.4572,4.4572,4.4572,4.4572,4.4572,4.4572,4.4572,0.0,0.0,0.0,0.0,0.0,4.4572,4.4572,0.0,4.4572,4.4742,4.5033,0.0,0.0,0.0,0.0,4.3224,4.2424,4.1624,4.0377,3.9303,3.9396,3.8756,3.8187,3.8397,3.8017,3.732,3.5858,3.5571,3.509,3.3545,3.4551,3.4832,3.2309,3.2862,0.0,0.0,0.0,2.2781,2.2212,0.0,0.0,0.0,0.0,0.0,0.0,0.0,0.0,0.0,0.0,-0.6583,-0.6553,-0.6526,-0.6496,-0.6461,-0.7264,-0.8266,-0.9669,-1.1874,-1.4065,-1.646,-1.8251,-1.984,0.0,0.0,0.0,-2.2387,-2.2387,-2.2535,-2.2644,-2.3809,-2.4673,-2.5757,-2.7247,-2.8465,-2.9362,0.0,0.0,0.0,0.0,0.0,0.0,0.0,0.0,0.0,0.0,0.0,0.0,0.0,0.0,0.0,0.0,0.0,0.0,0.0,0.0,0.0,0.0,4.4572,4.4572,4.4572,4.4572,4.4572,4.4572,4.4572,4.4572,4.4572,4.4572,4.4572,4.4572,4.4572,4.4572,4.4572,4.4572,4.4572,4.4572,4.4572,0.0,0.0,0.0,0.0,0.0,0.0,0.0,0.0,4.4572,4.4419,4.4388,4.4704,0.0,0.0,0.0,0.0,0.0,4.1,4.0343,3.9996,3.9996,3.9292,3.8692,3.8692,3.833,3.7598,3.6143,3.5763,3.5283,3.3738,3.4629,3.4721,0.0,0.0,0.0,2.5509,2.1739,1.9297,1.8683,0.0,0.0,0.0,0.0,0.0,0.0,0.0,0.0,0.0,-0.6572,-0.6548,-0.654,-0.6496,-0.6472,-0.6662,-0.7666,-0.907,-1.0672,-1.3073,-1.5466,-1.8046,-1.9635,-2.0826,0.0,0.0,0.0,-2.234,-2.2312,-2.2586,-2.3,-2.4152,-2.5206,-2.6295,-2.7769,-2.8691,-2.9362,0.0,0.0,0.0,0.0,0.0,0.0,0.0,0.0,0.0,0.0,0.0,0.0,0.0,0.0,0.0,0.0,0.0,0.0,0.0,0.0,0.0,4.4572,4.4572,4.4572,4.4572,4.4572,4.4572,4.4572,4.4572,4.4572,4.4572,4.4572,4.4572,4.4572,4.4572,4.4572,4.4572,4.4572,4.4572,4.4572,4.4572,0.0,0.0,0.0,0.0,0.0,0.0,0.0,0.0,4.4572,4.4419,4.422,4.3922,0.0,0.0,0.0,0.0,0.0,4.0801,4.0343,3.9996,3.9996,3.9469,3.8819,3.8819,3.8666,3.8122,3.7031,3.6658,3.6243,3.5055,3.5098,3.4509,0.0,0.0,2.5058,0.0,0.0,0.0,0.0,0.0,0.0,0.0,0.0,0.0,0.0,0.0,0.0,0.0,0.0,-0.6529,-0.6477,-0.6515,-0.6716,-0.7267,-0.8266,-0.987,-1.1874,-1.447,-1.6857,-1.9034,-2.062,-2.1603,0.0,0.0,-2.2132,-2.2123,-2.2336,-2.2803,-2.3334,-2.4661,-2.5989,-2.7205,-2.8319,-2.9067,-2.9913,0.0,0.0,0.0,0.0,0.0,0.0,0.0,0.0,0.0,0.0,0.0,0.0,0.0,0.0,0.0,0.0,0.0,0.0,0.0,0.0,4.4572,4.4572,4.4572,4.4572,4.4572,4.4572,4.4572,4.4572,4.4572,4.4572,4.4572,4.4572,4.4572,4.4572,4.4572,4.4572,4.4572,4.4572,4.4572,4.4572,0.0,0.0,0.0,0.0,0.0,0.0,0.0,0.0,0.0,0.0,4.4419,4.4065,4.3457,0.0,0.0,0.0,0.0,0.0,4.063,4.0284,3.9996,3.9848,3.938,3.8908,3.8908,3.8756,3.8395,3.7612,3.7335,3.7024,3.6137,3.5639,3.3725,2.8893,0.0,0.0,0.0,0.0,0.0,0.0,0.0,0.0,0.0,0.0,0.0,0.0,0.0,0.0,0.0,0.0,-0.6491,-0.6463,-0.6488,-0.7095,-0.8069,-0.9271,-1.0672,-1.2474,-1.5459,-1.7848,-1.9635,-2.1013,-2.1744,-2.2227,0.0,-2.2221,-2.2298,-2.2764,-2.3402,-2.4405,-2.5537,-2.6872,-2.8107,-2.9015,-3.002,-3.0794,0.0,0.0,0.0,0.0,0.0,0.0,0.0,0.0,0.0,0.0,0.0,0.0,0.0,0.0,0.0,0.0,0.0,0.0,0.0,4.4572,4.4572,4.4572,4.4572,4.4572,4.4572,4.4572,4.4572,4.4572,4.4572,4.4572,4.4572,4.4572,4.4572,4.4572,4.4572,4.4572,4.4572,4.4572,4.4572,4.4572,0.0,0.0,0.0,0.0,0.0,0.0,0.0,0.0,0.0,0.0,0.0,0.0,0.0,0.0,0.0,4.117,4.0859,4.063,4.0485,4.0198,3.9908,3.9788,3.9338,3.8943,3.8853,3.8701,3.8397,3.7935,3.7826,3.768,3.7144,3.5455,0.0,2.5563,2.0515,0.0,0.0,0.0,0.0,0.0,0.0,0.0,0.0,0.0,0.0,0.0,0.0,0.0,0.0,0.0,-0.642,-0.642,-0.662,-0.7418,-0.8813,-1.0201,-1.1808,-1.3427,-1.6404,-1.856,-2.0107,-2.1085,-2.1782,-2.2019,-2.1962,-2.2049,-2.2466,-2.3152,-2.4143,-2.528,-2.657,-2.7925,-2.9015,-2.9734,-3.0629,-3.1507,0.0,0.0,0.0,0.0,0.0,0.0,0.0,0.0,0.0,0.0,0.0,0.0,0.0,0.0,0.0,0.0,0.0,0.0,0.0,4.4572,4.4572,4.4572,4.4572,4.4572,4.4572,4.4572,4.4572,4.4572,4.4572,4.4572,4.4572,4.4572,4.4572,4.4572,4.4572,4.4572,4.4572,4.4572,4.4572,4.4572,4.4572,0.0,0.0,0.0,0.0,0.0,0.0,0.0,0.0,0.0,0.0,0.0,0.0,0.0,4.1619,4.117,4.0859,4.063,4.0485,4.0198,3.9908,3.9788,3.9573,3.9217,3.8699,3.8523,3.8291,3.7914,3.7917,3.8088,3.8138,3.3663,2.841,2.3527,1.8636,0.0,0.0,0.0,0.0,0.0,0.0,0.0,0.0,0.0,0.0,0.0,0.0,0.0,0.0,0.0,0.0,-0.6292,-0.6684,-0.7466,-0.8645,-1.1173,-1.3177,-1.4877,-1.7028,-1.8899,-2.0289,-2.1256,-2.183,-2.1801,-2.1603,-2.1875,-2.2409,-2.3488,-2.4679,-2.5765,-2.7595,-2.9208,-3.0437,-3.0437,-3.1165,-3.1877,0.0,0.0,0.0,0.0,0.0,0.0,0.0,0.0,0.0,0.0,0.0,0.0,0.0,0.0,0.0,0.0,0.0,0.0,0.0,4.4572,4.4572,4.4572,4.4572,4.4572,4.4572,4.4572,4.4572,4.4572,4.4572,4.4572,4.4572,4.4572,4.4572,4.4572,4.4572,4.4572,4.4572,4.4572,4.4572,4.4572,4.4572,4.4572,0.0,0.0,0.0,0.0,0.0,0.0,0.0,0.0,4.3723,4.314,4.2496,4.1951,4.1451,4.0944,4.0773,4.063,4.0284,4.011,3.9908,3.9584,3.9137,3.8605,3.7977,3.6759,3.5922,3.6192,3.594,3.5463,3.4999,0.0,2.6617,2.0539,0.0,0.0,0.0,0.0,0.0,0.0,0.0,0.0,0.0,0.0,0.0,0.0,0.0,0.0,0.0,0.0,0.0,-0.667,-0.7254,-0.8232,-0.9989,-1.1926,-1.3855,-1.576,-1.7982,-1.9355,-2.0246,-2.1401,-2.1716,-2.1584,-2.1875,-2.232,-2.3108,-2.4496,-2.5742,-2.7015,-2.8655,-2.9913,-3.0616,-3.0616,-3.1165,-3.2054,0.0,0.0,0.0,0.0,0.0,0.0,0.0,0.0,0.0,0.0,0.0,0.0,0.0,0.0,0.0,0.0,0.0,0.0,4.4572,4.4572,4.4572,4.4572,4.4572,4.4572,4.4572,4.4572,4.4572,4.4572,4.4572,4.4572,4.4572,4.4572,4.4572,4.4572,4.4572,4.4572,4.4572,4.4572,4.4572,4.4572,4.4572,4.4572,0.0,0.0,0.0,0.0,0.0,0.0,0.0,0.0,4.3329,4.2688,4.2005,4.1535,4.1198,4.0773,4.0688,4.0602,3.9908,3.9782,3.9625,3.9023,3.8227,3.7228,3.6051,3.4294,3.2895,3.3169,3.3003,3.2655,3.1664,2.8975,0.0,0.0,0.0,0.0,0.0,0.0,0.0,0.0,0.0,0.0,0.0,0.0,0.0,0.0,0.0,0.0,0.0,0.0,0.0,0.0,-0.7769,-0.912,-1.1249,-1.2978,-1.4654,-1.6467,-1.8674,-1.969,-2.0061,-2.1206,-2.1518,-2.1376,-2.1927,-2.2583,-2.3536,-2.5183,-2.6833,-2.8462,-2.9554,-3.0272,-3.0794,-3.0794,-3.1507,-3.2586,0.0,0.0,0.0,0.0,0.0,0.0,0.0,0.0,4.4572,4.4572,4.4572,0.0,0.0,0.0,0.0,0.0,0.0,0.0,4.4572,4.4572,4.4572,4.4572,4.4572,4.4572,4.4572,4.4572,4.4572,4.4572,4.4572,4.4572,4.4572,4.4572,4.4572,4.4572,4.4572,4.4572,4.4572,4.4572,4.4572,4.4572,4.4572,4.4572,4.4572,0.0,0.0,0.0,0.0,0.0,0.0,0.0,4.2769,4.231,4.1564,4.1198,4.0944,4.0801,4.0716,4.0544,3.9584,3.9248,3.9031,3.7998,3.6777,3.5202,3.2824,3.1025,2.9475,2.8544,2.9402,2.9889,2.8664,2.6339,0.0,0.0,0.0,0.0,0.0,0.0,0.0,0.0,0.0,0.0,0.0,0.0,0.0,0.0,0.0,0.0,0.0,0.0,0.0,0.0,-0.8565,-1.0077,-1.2156,-1.4228,-1.5917,-1.7414,-1.8922,-1.9674,-1.9674,-2.0797,-2.1168,-2.1168,-2.1723,-2.2452,-2.3536,-2.5537,-2.7727,-2.9913,-2.9913,-3.0437,-3.1315,-3.1315,-3.2218,-3.347,0.0,0.0,0.0,0.0,0.0,0.0,0.0,0.0,4.4572,4.4572,4.4572,0.0,0.0,0.0,0.0,0.0,0.0,0.0,4.4572,4.4572,4.4572,4.4572,4.4572,4.4572,4.4572,4.4572,4.4572,4.4572,4.4572,4.4572,4.4572,4.4572,4.4572,4.4572,4.4572,4.4572,4.4572,4.4572,4.4572,4.4572,4.4572,4.4572,4.4572,0.0,0.0,0.0,0.0,0.0,0.0,0.0,0.0,0.0,4.1825,4.1594,4.1505,4.1896,4.2036,4.1742,4.0302,3.9501,3.8804,3.7341,3.5663,3.3714,3.0791,2.8061,2.5426,2.3066,2.4369,2.5496,2.4206,2.2839,0.0,0.0,0.0,0.0,0.0,0.0,0.0,0.0,0.0,0.0,0.0,0.0,0.0,0.0,0.0,0.0,0.0,0.0,0.0,0.0,-0.9513,-1.1212,-1.3293,-1.4798,-1.6306,-1.7429,-1.8922,-1.9851,-2.0223,-2.0983,-2.1168,-2.1168,-2.2093,-2.3179,-2.4635,-2.7184,-2.9002,-2.9913,-3.0272,-3.0794,-3.1315,-3.1685,-3.2586,-3.347,0.0,0.0,0.0,0.0,0.0,0.0,0.0,0.0,4.4572,4.4572,4.4572,4.4572,0.0,0.0,0.0,0.0,0.0,0.0,4.4572,4.4572,4.4572,4.4572,4.4572,4.4572,4.4572,4.4572,4.4572,4.4572,4.4572,4.4572,4.4572,4.4572,4.4572,4.4572,4.4572,4.4572,4.4572,4.4572,4.4572,4.4572,4.4572,4.4572,4.4572,0.0,0.0,0.0,0.0,0.0,0.0,0.0,0.0,0.0,4.1766,4.1871,4.2121,4.2767,4.2935,4.2544,4.0478,3.8867,3.7196,3.4904,3.2693,3.0022,2.5371,2.3138,2.1198,1.7765,1.9082,2.0654,1.9816,1.8904,0.0,0.0,0.0,0.0,0.0,0.0,0.0,0.0,0.0,0.0,0.0,0.0,0.0,0.0,0.0,0.0,0.0,0.0,0.0,0.0,-1.0645,-1.2533,-1.461,-1.5931,-1.7055,-1.8363,-1.9302,-2.0046,-2.0788,-2.0983,-2.1353,-2.1538,-2.3005,-2.4646,-2.6095,-2.8269,-2.9541,-3.0272,-3.0437,-3.0973,-3.1685,-3.1877,-3.2763,-3.3822,0.0,0.0,4.4874,4.4648,0.0,0.0,0.0,0.0,4.4572,4.4572,4.4572,4.4572,0.0,0.0,0.0,0.0,0.0,0.0,0.0,4.4572,4.4572,4.4572,4.4572,4.4572,4.4572,4.4572,4.4572,4.4572,4.4572,4.4572,4.4572,4.4572,4.4572,4.4572,4.4572,4.4572,4.4572,4.4572,4.4572,4.4572,4.4572,4.4572,4.4572,4.4572,0.0,0.0,0.0,0.0,0.0,0.0,0.0,0.0,4.1562,4.2149,4.2795,4.3469,4.3666,4.2962,4.0291,3.7637,3.4867,3.129,2.8578,2.4925,1.8191,1.7442,1.6977,1.3111,0.0,1.5488,1.5477,0.0,0.0,0.0,0.0,0.0,0.0,0.0,0.0,0.0,0.0,0.0,0.0,0.0,0.0,0.0,0.0,0.0,0.0,0.0,0.0,0.0,-1.1967,-1.3858,-1.5938,-1.6876,-1.8176,0.0,-1.9674,-2.0232,-2.0983,-2.1168,-2.1538,-2.2268,-2.4635,-2.6458,-2.792,-2.8822,-2.99,-3.0616,-3.0616,-3.1343,-3.2054,-3.2054,-3.294,-3.4174,0.0,0.0,4.4874,4.4648,0.0,0.0,0.0,0.0,0.0,4.4572,4.4572,0.0,0.0,0.0,0.0,0.0,0.0,0.0,0.0,4.4572,4.4572,4.4572,4.4572,4.4572,4.4572,4.4572,4.4572,4.4572,4.4572,4.4572,4.4572,4.4572,4.4572,4.4572,4.4572,4.4572,4.4572,4.4572,4.4572,4.4572,4.4572,4.4572,4.4572,4.4572,4.4496,0.0,0.0,0.0,0.0,0.0,0.0,0.0,4.2097,4.2795,4.3526,4.4621,4.455,4.3416,4.0689,3.6881,3.2894,2.9502,2.5286,2.0968,1.6475,1.525,1.4299,1.1373,1.1809,1.2589,1.2074,0.0,0.0,0.0,0.0,0.0,0.0,0.0,0.0,0.0,0.0,0.0,0.0,0.0,0.0,0.0,0.0,0.0,0.0,0.0,0.0,-1.0455,-1.2533,-1.4234,-1.5938,-1.6876,-1.7803,0.0,-1.9294,-1.986,-2.0046,-2.0797,-2.2083,-2.3719,-2.5366,-2.7003,-2.8474,-2.9721,-3.0437,-3.0616,-3.1343,-3.1877,-3.2054,-3.294,-3.3646,-3.4174,0.0,0.0,0.0,0.0,0.0,0.0,0.0,0.0,0.0,0.0,0.0,0.0,0.0,0.0,0.0,0.0,0.0,0.0,0.0,4.4572,4.4572,4.4572,4.4572,4.4572,4.4572,4.4572,4.4726,4.5064,4.5064,4.488,4.4572,4.4572,4.4572,4.4572,4.4572,4.4572,4.4572,4.4572,4.4572,4.4572,4.4572,4.4572,4.4572,4.4496,4.4343,4.4035,4.3566,0.0,0.0,0.0,0.0,0.0,0.0,0.0,4.375,4.4959,4.4623,4.3091,3.9791,3.5035,2.9633,2.3638,1.9594,1.64,1.3675,1.2861,1.2073,0.9988,0.9977,1.0306,0.0,0.0,0.0,0.0,0.0,0.0,0.0,0.0,0.0,0.0,0.0,0.0,0.0,0.0,0.0,0.0,0.0,0.0,0.0,-0.8375,-0.9892,-1.159,-1.367,-1.5368,-1.6688,-1.7429,-1.8176,-1.8922,-1.948,-2.0046,-2.0788,-2.1714,-2.3179,-2.4818,-2.6276,-2.7727,-2.9015,-3.0079,-3.0794,-3.0973,-3.1699,-3.2232,-3.2409,-3.3293,-3.3822,-3.4349,0.0,0.0,0.0,0.0,0.0,0.0,0.0,0.0,0.0,0.0,0.0,0.0,0.0,0.0,0.0,0.0,0.0,0.0,0.0,0.0,0.0,4.4572,4.4572,4.4572,4.4572,4.4572,4.491,4.5588,4.5711,4.5526,4.5095,4.4972,4.4849,4.4756,4.4756,4.4695,4.4572,4.4572,4.4572,4.4572,4.4572,4.4572,4.4572,4.4374,4.4143,4.3801,4.314,4.2496,4.1922,4.1451,0.0,0.0,0.0,0.0,4.3554,4.4678,4.3876,4.1865,3.8107,3.2177,2.5066,1.6886,1.3781,1.2539,1.1183,1.1015,1.0605,0.9079,0.8938,0.0,0.0,0.0,0.0,0.0,0.0,0.0,0.0,0.0,0.0,0.0,0.0,0.0,0.0,0.0,0.0,0.0,0.0,0.0,-0.7619,-0.9134,-1.1023,-1.291,-1.4993,-1.6314,-1.7437,-1.7989,-1.8735,-1.9488,-1.9851,-2.0788,-2.2268,-2.3362,-2.4452,-2.5742,-2.7196,-2.8462,-2.9541,-3.0437,-3.0973,-3.1507,-3.1877,-3.2409,-3.294,-3.347,-3.3822,-3.4349,0.0,0.0,0.0,0.0,0.0,0.0,0.0,0.0,0.0,0.0,4.4723,4.4572,0.0,4.4572,4.4572,4.4572,4.4572,4.4572,4.4572,0.0,0.0,4.4572,4.4572,4.4572,4.4572,4.4572,4.491,4.5588,4.6172,4.6726,4.7188,4.6603,4.6018,4.5464,4.5464,4.5126,4.4572,4.4572,4.4572,4.4572,4.4572,4.4572,4.4572,4.4374,4.4035,4.3566,4.293,4.2281,4.1702,4.117,4.0944,0.0,0.0,0.0,4.2823,4.3526,4.2018,3.9373,3.6117,2.751,1.8295,1.3415,1.179,1.1079,1.0185,1.0194,0.9983,0.0,0.0,0.0,0.0,0.0,0.0,0.0,0.0,0.0,0.0,0.0,0.0,0.0,0.0,0.0,0.0,0.0,0.0,0.0,0.0,0.0,-0.8189,-0.9698,-1.1401,-1.3481,-1.5181,-1.6314,-1.7437,-1.7989,-1.8549,-1.893,-2.0408,-2.1704,-2.3168,-2.4635,-2.5548,-2.6276,-2.7739,-2.9195,-3.0437,-3.0973,-3.1507,-3.1877,-3.2409,-3.2763,-3.294,-3.3822,-3.4174,-3.4349,0.0,0.0,0.0,0.0,0.0,0.0,0.0,0.0,0.0,0.0,0.0,4.4572,4.4572,4.4572,4.4572,4.4572,4.4572,4.4572,4.4572,4.4572,4.4572,4.4572,4.4572,4.4572,4.4572,4.4572,4.5095,4.6142,4.6819,4.7711,4.8758,4.845,4.7558,4.6142,4.5741,4.5218,4.4572,4.4572,4.4572,4.4572,4.4572,4.4572,4.4572,4.4112,4.3457,4.271,4.1893,4.1057,4.046,4.0287,4.0229,4.0455,4.1331,0.0,0.0,0.0,4.11,3.7715,3.1251,2.4695,1.8789,1.4935,1.3159,1.2415,1.1538,1.0899,1.0007,0.9117,0.0,0.0,0.0,0.0,0.0,0.0,0.0,0.0,0.0,0.0,0.0,0.0,0.0,0.0,0.0,0.0,0.0,0.0,0.0,-0.7809,-0.9134,-1.0834,-1.291,-1.4805,-1.6119,-1.7055,-1.7803,-1.7989,-1.8549,-1.9302,-2.0788,-2.2442,-2.3903,-2.5366,-2.6276,-2.7184,-2.8642,-2.9734,-3.0616,-3.1329,-3.1863,-3.2054,-3.2586,-3.2778,-3.294,-3.3822,-3.4174,-3.4349,0.0,0.0,0.0,0.0,0.0,0.0,0.0,0.0,0.0,0.0,0.0,4.4572,4.4572,0.0,0.0,0.0,4.4572,4.4572,4.4572,4.4572,4.4572,4.4572,4.4572,4.4572,4.4572,4.4572,4.5249,4.6603,4.7281,4.8327,4.9682,4.9682,4.8666,4.6819,4.6142,4.5372,4.4572,4.4572,4.4572,4.4572,4.4572,4.4496,4.4374,4.3717,4.2725,4.1592,4.0566,3.9687,3.9043,3.9249,3.9523,3.9963,4.1047,4.139,0.0,0.0,0.0,3.5788,2.7822,2.3767,2.1041,1.7724,1.5974,1.49,1.4354,0.0,1.1755,0.0,0.0,0.0,0.0,0.0,0.0,0.0,0.0,0.0,0.0,0.0,0.0,0.0,0.0,0.0,0.0,0.0,0.0,0.0,0.0,-0.8565,-1.0081,-1.1967,-1.4046,-1.5751,-1.6876,-1.7624,-1.8176,-1.8363,-1.9108,-1.9851,-2.1529,-2.2995,-2.4452,-2.5913,-2.7184,-2.8281,-2.9554,-3.0451,-3.0973,-3.1699,-3.2054,-3.2232,-3.2586,-3.294,-3.3117,-3.3822,-3.4349,-3.4525,0.0,0.0,0.0,0.0,0.0,0.0,0.0,0.0,0.0,0.0,0.0,4.4572,4.4572,4.4572,4.4572,4.4572,4.4572,4.4572,4.4572,4.4572,4.4572,4.4572,4.4572,0.0,4.4572,4.4572,4.5249,4.6603,4.7281,4.8327,4.9682,4.9682,4.8912,4.7527,4.685,4.5803,4.4572,4.4572,4.4572,4.4572,4.4572,4.4343,4.397,4.336,4.1796,3.9959,3.9348,3.8368,3.7337,3.8449,3.8986,3.9414,4.0457,4.0744,4.0744,0.0,0.0,0.0,2.81,2.5262,2.3294,2.097,1.9599,1.8693,1.8593,0.0,1.5594,0.0,0.0,0.0,0.0,0.0,0.0,0.0,0.0,0.0,0.0,0.0,0.0,0.0,0.0,0.0,0.0,0.0,0.0,0.0,0.0,-0.8944,-1.0645,-1.2533,-1.4422,-1.5938,-1.6876,-1.7624,-1.8176,-1.9108,-1.9851,-2.0408,-2.2432,-2.4086,-2.556,-2.7003,-2.8462,-2.9734,-3.0272,-3.1151,-3.1877,-3.2054,-3.2232,-3.2763,-3.2763,-3.3117,-3.347,-3.3998,-3.4525,-3.4875,0.0,0.0,0.0,0.0,0.0,0.0,0.0,0.0,0.0,0.0,0.0,0.0,0.0,4.5218,4.5403,4.5834,4.5865,4.5865,4.5865,4.5865,4.5865,4.5865,4.5865,4.5865,4.5865,4.5865,4.6326,4.725,4.7927,4.8758,4.9682,4.9682,4.9158,4.8204,4.7096,4.5834,4.4572,4.4572,4.4572,4.4572,4.4572,4.4343,4.3892,4.2752,4.0526,3.7831,3.6874,0.0,0.0,0.0,0.0,0.0,4.0253,4.0688,4.0516,3.9738,3.8057,3.5672,3.1989,3.0326,2.9213,2.7114,2.5887,2.4761,2.3593,2.1716,1.9767,0.0,0.0,0.0,0.0,0.0,0.0,0.0,0.0,0.0,0.0,0.0,0.0,0.0,0.0,0.0,0.0,0.0,0.0,0.0,0.0,0.0,-1.1849,-1.3908,-1.5638,-1.6868,-1.7616,-1.8176,-1.8557,-1.9302,-2.0037,-2.0964,-2.2984,-2.4635,-2.6095,-2.7908,-2.9362,-3.0794,-3.1329,-3.1699,-3.2054,-3.2409,-3.2586,-3.2778,-3.2778,-3.3117,-3.347,-3.3998,-3.4525,-3.505,0.0,0.0,0.0,0.0,0.0,4.7744,4.7212,4.678,4.6487,4.6116,0.0,0.0,0.0,0.0,4.6111,4.6542,4.6603,4.6603,4.6603,4.6603,4.6603,4.6603,4.6603,4.6603,4.6603,4.6603,4.6942,4.7619,4.805,4.8635,4.9312,4.9312,4.8943,4.8235,4.7342,4.6172,4.491,4.491,4.4787,4.4572,4.4572,4.4419,4.3957,4.2423,3.9731,3.6579,0.0,0.0,0.0,0.0,0.0,0.0,3.9726,4.0482,4.0516,3.9387,3.8724,3.7903,3.5478,3.4611,3.3918,3.2437,3.1169,2.98,2.8299,2.6105,2.3787,0.0,0.0,0.0,0.0,0.0,0.0,0.0,0.0,0.0,0.0,0.0,0.0,0.0,0.0,0.0,0.0,0.0,0.0,0.0,0.0,0.0,-1.3026,-1.4875,-1.6405,-1.7443,-1.7813,-1.8215,-1.8837,-1.9569,-2.052,-2.1694,-2.3719,-2.5548,-2.7172,-2.8642,-3.0258,-3.1507,-3.1877,-3.2054,-3.2232,-3.2601,-3.2778,-3.2763,-3.2955,-3.3293,-3.3822,-3.4174,-3.4875,-3.5399,0.0,0.0,5.0925,5.0493,5.0121,4.9739,4.9174,4.8593,4.8147,4.7921,0.0,0.0,0.0,0.0,0.0,4.6665,4.6665,4.6665,4.6665,4.6665,4.6665,4.6665,4.6665,4.6665,4.6665,4.6665,4.6973,4.7619,4.7619,4.7958,4.8604,4.8604,4.8266,4.7619,4.7619,4.6911,4.5649,4.5618,4.5249,4.4633,4.4633,4.4539,4.4102,4.2358,3.9537,0.0,3.4484,3.2133,0.0,3.2767,0.0,0.0,3.8704,4.0083,4.0516,3.9881,3.9644,3.9321,0.0,0.0,0.0,3.6462,3.4986,3.3377,3.2214,3.0009,2.7596,0.0,0.0,0.0,0.0,0.0,0.0,0.0,0.0,0.0,0.0,0.0,0.0,0.0,0.0,0.0,0.0,0.0,0.0,0.0,0.0,-1.2346,-1.3814,-1.5272,-1.6552,-1.764,-1.764,-1.7911,-1.8817,-1.9724,-2.0913,-2.2596,-2.4624,-2.664,-2.8616,-2.9541,-3.0629,-3.2054,-3.2054,-3.2232,-3.2778,-3.2778,-3.2778,-3.2778,-3.3293,-3.3822,-3.4174,-3.47,-3.5573,-3.6443,0.0,5.1153,5.0892,5.0693,5.0493,5.0154,4.9567,4.9213,4.878,0.0,0.0,0.0,4.7712,4.7935,4.805,4.805,4.805,4.805,4.805,4.805,4.805,4.805,4.805,4.805,4.805,4.805,4.8142,4.8327,4.8327,4.8419,4.8604,4.8604,4.8512,4.8327,4.8327,4.7865,4.7004,4.6511,4.6203,4.6049,4.6049,4.5471,4.4436,4.3193,3.9616,0.0,0.0,3.0672,2.8253,0.0,3.2395,3.4295,3.8357,4.0083,4.0688,4.043,4.0368,4.0304,3.9776,0.0,0.0,0.0,0.0,0.0,3.372,3.1687,2.9214,0.0,0.0,0.0,0.0,0.0,0.0,0.0,0.0,0.0,0.0,0.0,0.0,0.0,0.0,0.0,0.0,0.0,0.0,0.0,-1.1542,-1.3195,-1.475,-1.6303,-1.7278,-1.764,-1.801,-1.857,-1.9527,-2.0421,-2.1881,-2.3569,-2.571,-2.7429,-2.8691,-3.052,-3.1699,-3.2054,-3.2409,-3.2586,-3.2778,-3.2778,-3.2778,-3.2778,-3.3293,-3.3822,-3.4174,-3.47,-3.5732,-3.6929,5.2493,5.2295,5.2032,5.1799,5.1665,5.1462,5.0946,5.0594,5.0236,0.0,0.0,0.0,4.8587,4.8666,4.88,4.88,4.8635,4.8604,4.8604,4.8604,4.8604,4.8604,4.8604,4.8604,4.8604,4.8604,4.8604,4.8604,4.8604,4.8604,4.8604,4.8604,4.8604,4.8604,4.8604,4.8389,4.7989,4.718,4.6528,4.6011,4.5544,4.4971,4.4066,4.2378,3.8944,0.0,0.0,0.0,2.5672,2.7704,3.0585,0.0,0.0,3.9757,4.059,4.0686,4.0688,4.063,4.0485,3.9936,3.9264,3.8575,0.0,0.0,3.407,3.2191,2.9795,0.0,0.0,0.0,0.0,0.0,0.0,0.0,0.0,0.0,0.0,0.0,0.0,0.0,0.0,0.0,0.0,0.0,0.0,-1.0372,-1.2331,-1.4319,-1.6024,-1.6829,-1.7421,-1.7421,-1.7786,-1.8535,-1.9688,-2.0918,-2.2559,-2.4429,-2.6704,-2.8268,-2.9472,-3.1063,-3.194,-3.2409,-3.2586,-3.2778,-3.2763,-3.294,-3.3117,-3.3117,-3.3646,-3.3998,-3.4525,-3.5225,-3.6253,-3.7275,0.0,5.3717,5.3584,5.3247,5.3247,5.311,5.2731,5.2345,5.1915,0.0,5.0723,4.9979,4.9421,4.9128,4.8996,4.8996,4.88,4.8635,4.8635,4.8604,4.8604,4.8604,4.8604,4.8604,4.8604,4.8604,4.8604,4.8604,4.8604,4.8604,4.8604,4.8604,4.8604,4.8604,4.8604,4.8604,4.8521,4.7563,4.639,4.5094,4.3979,4.3392,4.2985,0.0,3.7645,3.4399,3.1009,2.6838,2.2988,2.4482,2.8737,0.0,0.0,0.0,4.0322,4.0594,4.0714,4.0714,4.0399,3.9815,3.9105,3.8304,3.7176,0.0,3.372,3.2032,2.9925,2.6201,0.0,0.0,0.0,0.0,0.0,0.0,0.0,0.0,0.0,0.0,0.0,0.0,0.0,0.0,0.0,-0.7885,-0.9487,-1.1438,-1.3394,-1.5344,-1.6936,-1.7112,-1.7112,-1.7112,-1.7647,-1.8427,-1.9655,-2.1565,-2.3425,-2.5067,-2.7384,-2.9125,-3.0299,-3.1218,-3.212,-3.2778,-3.2778,-3.2778,-3.2763,-3.3293,-3.347,-3.347,-3.3998,-3.4525,-3.505,-3.6096,-3.6946,-3.7963,5.398,5.3849,5.3651,5.3484,5.3416,5.3348,5.311,5.2903,5.252,5.1987,5.0876,5.0058,4.9582,4.9372,4.921,4.921,4.9047,4.8914,4.8914,4.8718,4.8604,4.8604,4.8604,4.8604,4.8604,4.8604,4.8604,4.8604,4.8604,4.8604,4.8604,4.8604,4.8604,4.8604,4.8604,4.8604,4.8521,4.7189,4.6016,4.4854,4.3258,4.1974,4.0638,3.839,3.5143,3.137,2.902,2.4958,2.0955,2.219,2.6236,3.127,0.0,0.0,0.0,4.0267,4.083,4.1012,4.0019,3.9644,3.9096,3.7675,0.0,0.0,3.3885,3.206,3.0036,0.0,0.0,0.0,0.0,0.0,0.0,0.0,0.0,0.0,0.0,0.0,0.0,0.0,0.0,0.0,0.0,-0.8599,-1.0199,-1.2503,-1.4632,-1.6401,-1.7112,-1.7112,-1.7112,-1.7112,-1.8339,-1.9397,-2.0308,-2.2556,-2.466,-2.6436,-2.8208,-2.9694,-3.0864,-3.1816,-3.2471,-3.2778,-3.2778,-3.2778,-3.2763,-3.3293,-3.347,-3.3646,-3.4349,-3.505,-3.5573,-3.6427,-3.7791,-3.9519,5.4045,5.3915,5.3783,5.3551,5.3518,5.345,5.3348,5.3179,5.2903,5.252,5.1252,5.0153,4.9583,4.8867,4.848,4.832,4.7905,4.7755,4.7989,4.786,4.7849,4.8133,4.8218,4.8385,4.8438,4.8438,4.8521,4.8604,4.8604,4.8604,4.8604,4.8604,4.8604,4.8604,4.8604,4.8438,4.8187,4.6755,4.5402,4.3959,4.1813,0.0,3.9066,3.5811,3.2622,2.9402,2.6032,2.2007,1.8481,1.9948,2.3777,0.0,3.1832,3.5085,3.8088,0.0,4.0567,4.1023,0.0,0.0,0.0,3.7577,0.0,0.0,0.0,3.2323,3.073,2.8482,0.0,0.0,0.0,0.0,0.0,0.0,0.0,0.0,0.0,0.0,0.0,0.0,0.0,0.0,0.0,-0.8464,-0.9688,-1.1608,-1.3526,-1.4778,-1.5563,-1.6094,-1.6665,-1.7463,-1.8514,-1.9902,-2.1272,-2.3525,-2.558,-2.7122,-2.8974,-3.0071,-3.0895,-3.1728,-3.2222,-3.2529,-3.2705,-3.294,-3.3117,-3.3646,-3.3998,-3.4174,-3.47,-3.5399,-3.6096,-3.7275,-3.8631,-4.018,5.411,5.4045,5.3915,5.3618,5.3551,5.3484,5.3518,5.3348,5.311,5.2834,5.1573,5.0295,4.9289,4.8267,4.7362,4.6747,4.6054,4.5865,4.6253,4.6456,4.6785,4.7366,4.7679,4.7964,4.8301,4.8301,4.8385,4.8604,4.8604,4.8604,4.8604,4.8604,4.8604,4.8604,4.8521,4.8187,4.7563,4.6018,4.4443,4.2705,0.0,3.8712,3.7874,3.3783,3.0778,2.799,2.2928,1.8937,1.6355,1.8168,2.1606,2.5755,2.9433,3.2913,0.0,0.0,0.0,0.0,0.0,0.0,0.0,0.0,0.0,3.5596,0.0,0.0,0.0,0.0,0.0,0.0,0.0,0.0,0.0,0.0,0.0,0.0,0.0,0.0,0.0,0.0,0.0,0.0,0.0,-0.7042,-0.7902,-0.9103,-1.0646,-1.2081,-1.3448,-1.4721,-1.6048,-1.7814,-1.8864,-2.0414,-2.2309,-2.4543,-2.6431,-2.7799,-2.9495,-3.0336,-3.0821,-3.1422,-3.1915,-3.2295,-3.2734,-3.3058,-3.347,-3.4174,-3.4525,-3.505,-3.505,-3.5748,-3.6789,-3.8135,-3.9483,-4.1005,5.4239,5.4175,5.411,5.3717,5.3651,5.3651,5.3484,5.3518,5.3212,5.2449,5.1772,5.0609,4.8773,4.7595,4.6139,4.4211,4.3916,4.3755,4.3739,4.4534,4.5545,4.6609,4.7016,4.7563,4.8301,4.8301,4.8385,4.8604,4.8604,4.8604,4.8604,4.8604,4.8604,4.8604,4.8218,4.7533,4.6491,4.4542,4.2733,4.1106,3.8571,3.7402,0.0,3.3546,3.0275,2.6749,2.0414,1.6933,1.5762,0.0,1.9679,2.2664,0.0,2.9721,3.2934,3.6963,0.0,0.0,0.0,0.0,0.0,0.0,3.6407,0.0,0.0,0.0,3.3537,3.3321,0.0,0.0,0.0,0.0,0.0,0.0,0.0,0.0,0.0,0.0,0.0,0.0,0.0,0.0,0.0,0.0,-0.4303,-0.4843,-0.6516,-0.8764,-1.1191,-1.3249,-1.5685,-1.8331,-1.9728,-2.1272,-2.317,-2.5409,-2.7292,-2.8655,-2.9663,-3.0504,-3.1146,-3.1359,-3.1695,-3.2295,-3.2847,-3.3201,-3.3646,-3.4525,-3.505,-3.5573,-3.5938,-3.6616,-3.7636,-3.9007,-4.0687,-4.2364,5.4239,5.4239,5.411,5.3915,5.3849,5.3849,5.3817,5.3281,5.262,5.1631,5.0266,4.8566,4.6364,4.4309,4.2139,4.0059,0.0,3.8781,0.0,0.0,4.1513,4.3835,4.4591,4.5663,4.7189,4.7478,4.7988,4.8604,4.8604,4.8604,4.8604,4.8604,4.8604,4.8635,4.8529,4.7549,4.5929,4.4494,4.2203,0.0,0.0,3.6242,0.0,3.2187,2.7124,2.1044,1.8163,1.5991,1.5007,0.0,1.9287,0.0,0.0,0.0,0.0,3.3612,0.0,0.0,0.0,0.0,0.0,0.0,0.0,0.0,3.5589,0.0,3.4393,0.0,0.0,0.0,0.0,0.0,0.0,0.0,2.8443,0.0,0.0,0.0,0.0,0.0,0.0,0.0,0.0,0.0,0.0,0.0,0.0157,-0.2551,-0.7091,-0.955,-1.3173,-1.7801,-1.9368,-2.1484,-2.4543,-2.6261,-2.7968,-2.9663,-3.0165,-3.0738,-3.1037,-3.1227,-3.1461,-3.1739,-3.2639,-3.3225,-3.3725,-3.4797,-3.5748,-3.6427,-3.7464,-3.8152,-3.8648,-4.018,-4.1863,-4.3361,5.4922,5.4578,5.4239,5.411,5.4045,5.398,5.3683,5.2937,5.1876,5.0623,4.8925,4.6869,4.4292,4.159,3.8912,3.6509,3.4795,3.4401,0.0,0.0,3.7827,4.1129,4.2366,4.4132,4.6431,4.7022,4.7744,4.8604,4.8604,4.8604,4.8604,4.8604,4.8604,4.8552,4.8632,4.7643,4.5677,0.0,4.1384,3.7926,3.6513,3.4107,3.1348,2.9526,2.4018,1.7091,1.6794,1.5467,1.4334,1.7132,1.8286,0.0,2.1246,0.0,2.5426,0.0,0.0,0.0,3.6612,0.0,0.0,0.0,0.0,0.0,0.0,0.0,0.0,0.0,0.0,0.0,0.0,0.0,3.3412,3.2603,0.0,2.9659,0.0,0.0,0.0,0.0,0.0,0.0,0.0,0.0,0.0,0.8309,0.6786,0.3328,-0.2693,-0.6156,-1.0854,-1.7237,-1.9029,-2.1724,-2.558,-2.694,-2.846,-3.0179,-3.0665,-3.0817,-3.0832,-3.1066,-3.1227,-3.1513,-3.2588,-3.3406,-3.4031,-3.5257,-3.6253,-3.7275,-3.8819,-3.9671,-4.018,-4.1528,-4.2863,-4.4186,5.6736,5.5529,5.4431,5.4239,5.4175,5.3881,5.3009,5.2349,5.1325,4.9524,0.0,0.0,0.0,0.0,0.0,0.0,0.0,3.1993,3.2015,0.0,3.539,3.9172,4.0978,4.3325,0.0,4.7315,4.8053,4.8604,4.8604,4.8604,4.8604,4.8604,4.8604,4.8552,4.8373,4.7374,4.5657,4.2703,3.9636,3.6589,3.3723,3.0393,2.7013,0.0,2.1567,1.6948,1.6715,0.0,0.0,1.5803,1.5962,0.0,0.0,0.0,0.0,0.0,0.0,0.0,0.0,0.0,0.0,3.5598,0.0,0.0,0.0,0.0,3.5198,0.0,0.0,0.0,0.0,3.3451,3.3501,3.3387,3.259,0.0,0.0,0.0,0.0,0.0,0.0,0.0,0.0,0.0,0.0,1.4973,1.2337,0.8029,0.1232,-0.3523,-0.9462,-1.6689,-1.9117,-2.2236,-2.6091,-2.7448,-2.881,-3.0179,-3.0665,-3.0817,-3.0817,-3.0832,-3.1175,-3.2005,-3.2844,-3.3536,-3.4376,-3.5777,-3.6789,-3.7791,-3.9483,-4.1005,-4.2364,-4.2863,-4.3856,-4.5169,5.6133,5.6027,5.5816,5.5881,5.5947,5.5415,5.3995,5.2469,0.0,0.0,0.0,0.0,0.0,3.5973,3.3382,0.0,0.0,2.789,2.791,2.8696,0.0,0.0,0.0,3.888,0.0,0.0,0.0,4.8283,4.8231,4.8385,4.8635,4.9097,4.9312,4.9374,4.9786,4.8983,0.0,0.0,0.0,0.0,0.0,2.749,2.4061,0.0,0.0,1.6336,1.5687,1.4112,0.0,1.4592,1.4564,1.3908,1.517,1.5836,1.6447,1.9626,2.1486,0.0,0.0,0.0,2.9017,3.1654,0.0,0.0,0.0,0.0,0.0,0.0,0.0,0.0,0.0,3.2292,3.2805,3.3902,3.3515,3.2814,0.0,0.0,0.0,0.0,0.0,0.0,0.0,0.0,0.0,1.9789,1.777,1.3764,0.0,0.2695,-0.2954,-1.0335,-1.3459,-1.7339,-2.2056,-2.4735,-2.7122,-2.9007,-3.0217,-3.0817,-3.0817,-3.0817,-3.1042,-3.1676,-3.251,-3.3353,-3.4204,-3.5767,-3.7075,-3.8323,-4.0349,-4.203,-4.3361,-4.4021,-4.5005,-4.5982,5.6535,5.7021,5.7225,5.6909,5.6572,5.5719,0.0,0.0,0.0,0.0,4.282,0.0,3.6165,0.0,3.1741,0.0,2.7171,2.6134,2.6082,2.6156,0.0,3.1495,3.2898,0.0,0.0,0.0,0.0,0.0,4.7405,4.7965,4.8804,4.9463,4.9849,5.0082,5.0631,5.0125,4.8571,4.6229,4.2936,0.0,0.0,2.6032,0.0,0.0,1.8853,1.5134,0.0,1.2702,1.1457,1.286,1.2589,1.1999,1.2733,1.2926,1.3246,1.5162,1.6546,1.8009,2.1094,2.2683,0.0,2.735,2.8476,0.0,2.9785,0.0,0.0,0.0,0.0,0.0,0.0,3.1059,3.2211,3.397,3.3908,3.3247,0.0,3.0474,0.0,0.0,0.0,0.0,0.0,0.0,2.4217,2.3035,2.1324,1.7746,0.0,0.0,0.221,-0.4515,-0.8604,-1.3178,-1.8244,-2.2245,-2.5483,-2.8,-2.9827,-3.0817,-3.0832,-3.0984,-3.1331,-3.1843,-3.251,-3.3352,-3.4202,-3.5759,-3.73,-3.8837,-4.1024,-4.2697,-4.4041,-4.4862,-4.582,-4.6951,5.7887,5.8456,5.8393,0.0,5.6133,0.0,0.0,0.0,4.7581,0.0,4.1904,3.9579,3.6358,3.4458,3.2724,3.0508,2.8155,2.6719,2.6234,2.584,0.0,0.0,3.152,3.4299,3.8226,0.0,0.0,0.0,0.0,4.7333,4.9044,4.9583,5.0174,5.079,5.0875,5.0638,4.9715,4.6346,4.3123,3.9674,3.2034,2.5841,2.1025,1.9743,0.0,1.3298,1.2495,1.1079,0.9864,1.0625,1.0417,0.9726,1.0584,1.0672,1.0916,1.2421,1.3318,1.4437,1.6625,1.8348,1.9919,2.2421,0.0,0.0,0.0,0.0,2.3092,0.0,0.0,0.0,0.0,0.0,3.1379,3.3457,3.3606,3.2723,3.0703,2.9869,0.0,0.0,0.0,0.0,0.0,2.6791,2.6059,2.4838,2.3107,2.0051,0.0,0.0,0.5933,0.0735,-0.4441,-0.963,-1.4646,-1.9479,-2.3515,-2.6734,-2.9229,-3.0592,-3.0622,-3.112,-3.1647,-3.2189,-3.3011,-3.3672,-3.4694,-3.5897,-3.7453,-3.9331,-4.1509,-4.3176,-4.4698,-4.5535,-4.6649,-4.7773,5.7189,5.828,5.8599,0.0,5.6988,5.5864,0.0,0.0,0.0,0.0,3.9191,3.6687,3.3515,3.28,3.1728,2.9526,2.8374,0.0,0.0,0.0,0.0,2.64,2.7115,2.9399,3.3466,3.4805,0.0,4.1619,0.0,4.5073,4.777,4.931,5.0577,5.1467,5.1966,5.1911,5.1269,4.8924,4.3778,3.6787,3.172,2.602,0.0,0.0,1.5011,1.1715,1.1429,1.0329,0.8922,0.9074,0.9065,0.8879,0.9158,0.9114,0.9078,0.952,0.9473,0.9602,1.121,1.3085,1.4682,1.4924,1.5286,1.5582,0.0,0.0,0.0,0.0,0.0,0.0,0.0,0.0,0.0,3.1381,3.1779,3.1278,2.9911,0.0,0.0,2.7098,0.0,0.0,2.6989,2.6881,2.661,2.5891,2.4694,0.0,0.0,0.0,0.0,0.7951,0.2454,-0.2538,-0.7249,-1.2766,-1.7065,-2.06,-2.396,-2.6475,-2.8095,-2.9448,-3.0928,-3.2189,-3.2763,-3.3786,-3.5016,-3.614,-3.7741,-3.9689,-4.2011,-4.433,-4.6347,-4.6972,-4.7613,-4.8251,5.6887,5.8174,0.0,5.8106,0.0,0.0,5.1822,0.0,0.0,3.9758,3.769,0.0,3.3193,3.3006,3.2383,3.0461,2.9595,0.0,2.5977,0.0,0.0,2.4912,2.5438,2.6895,2.9663,3.0574,0.0,3.7675,0.0,4.2725,4.6728,4.8806,5.0571,5.1966,5.2334,5.2246,5.1632,4.8798,4.3234,3.597,3.2017,2.6418,0.0,1.7634,1.4259,1.1073,1.0667,0.9712,0.8607,0.8607,0.8607,0.8599,0.8546,0.853,0.8522,0.8293,0.775,0.7743,0.8743,0.9375,0.9265,0.8223,0.8627,0.9336,0.9412,0.8577,0.8364,0.0,0.0,0.0,0.0,0.0,0.0,2.8333,2.8926,2.8721,0.0,0.0,0.0,0.0,2.4913,0.0,2.5041,2.6191,2.6865,2.6553,2.5663,0.0,0.0,0.0,0.0,1.1858,0.6298,0.1307,-0.2849,-0.7894,-1.2266,-1.5827,-1.9614,-2.3133,-2.621,-2.8386,-3.0495,-3.2505,-3.2999,-3.3873,-3.5184,-3.6208,-3.7975,-4.0518,-4.3322,-4.5657,-4.7314,-4.7773,-4.8092,-4.8432,5.6834,5.8269,0.0,0.0,0.0,0.0,0.0,4.598,0.0,3.8329,0.0,3.5576,3.3954,3.4108,3.3631,3.2203,0.0,2.9486,2.7508,2.6358,2.5461,2.4683,2.4925,2.5728,2.6638,2.7282,2.9584,0.0,0.0,4.0053,4.5123,4.7715,4.9963,5.1759,5.1941,5.1789,5.0941,4.7055,4.1924,3.6163,3.2031,2.6156,1.9775,1.6867,1.379,1.0755,0.9888,0.9246,0.8607,0.8607,0.8607,0.8607,0.8607,0.8607,0.8429,0.7889,0.7531,0.716,0.7629,0.6363,0.4566,0.2582,0.3252,0.4604,0.4722,0.404,0.385,0.5721,0.6752,0.0,0.0,0.0,0.0,2.4496,0.0,0.0,0.0,0.0,0.0,0.0,0.0,0.0,2.1963,2.471,2.6536,0.0,0.0,0.0,0.0,0.0,0.0,1.3673,0.8123,0.0,-0.0147,0.0,-0.8075,-1.164,-1.5512,-1.9947,-2.4686,-2.7552,-3.0272,-3.2819,-3.3328,-3.4205,-3.5352,-3.6376,-3.846,-4.1658,-4.4985,-4.679,-4.7613,-4.8092,-4.8273,-4.8432,5.6789,5.8562,0.0,0.0,0.0,5.1694,4.6786,4.4217,4.1654,3.7991,3.6286,3.4945,3.3954,3.4454,3.4174,3.2763,3.1628,0.0,0.0,0.0,0.0,2.4163,2.3742,2.3787,2.4444,2.4454,2.6238,0.0,0.0,3.6513,4.1472,4.4543,4.7042,4.9005,5.0305,5.0242,4.9003,4.5141,0.0,3.4774,2.8943,2.2957,1.7045,1.3865,1.1105,0.8935,0.8939,0.8773,0.8607,0.8607,0.8607,0.8607,0.8607,0.8246,0.7889,0.7531,0.6998,0.6279,0.4474,0.304,0.1608,-0.0178,-0.1067,-0.1419,-0.1228,-0.14,-0.1218,0.017,0.1336,0.2925,0.5682,0.0,0.0,0.0,0.0,0.0,0.0,0.0,0.0,0.0,0.0,1.8633,0.0,0.0,0.0,0.0,0.0,0.0,0.0,0.0,0.0,0.0,1.0047,0.0,0.0,0.0,-0.3641,-0.706,-1.089,-1.5822,-2.2133,-2.5942,-2.9563,-3.2819,-3.3328,-3.4371,-3.5873,-3.686,-3.9627,-4.3361,-4.5495,-4.679,-4.7613,-4.8092,-4.8591,-4.8749,5.5288,0.0,0.0,0.0,0.0,0.0,0.0,4.2921,0.0,3.6746,3.5608,3.4927,3.4422,3.491,3.4875,3.3998,3.2749,3.1245,2.9152,2.7349,2.5803,2.4308,2.3651,2.3358,2.3387,2.2977,2.4184,2.6944,0.0,0.0,3.8389,4.223,4.4738,4.6095,4.7123,4.6929,0.0,0.0,0.0,3.1997,2.6017,2.0344,1.5257,1.2342,1.016,0.8607,0.8607,0.8607,0.8607,0.8607,0.8607,0.8607,0.8607,0.8246,0.7706,0.6991,0.6097,0.4662,0.2511,0.0897,-0.0359,-0.1795,-0.2515,-0.287,-0.2856,-0.2852,-0.2661,-0.1744,-0.1376,-0.0668,0.0939,0.4371,0.0,0.0,0.0,0.0,0.0,0.0,0.0,0.0,0.0,0.0,0.0,0.0,0.0,0.0,0.0,0.0,0.0,0.0,0.0,0.0,0.0,0.0,0.0,0.0,0.0,-0.6251,-1.0036,-1.5407,-2.224,-2.6015,-2.9669,-3.3148,-3.3312,-3.4371,-3.6057,-3.8759,-4.1323,-4.3876,-4.6144,-4.7272,-4.7592,-4.841,-4.8749,-4.8907,0.0,5.4419,0.0,0.0,5.1855,0.0,4.5102,4.1559,3.8491,3.5758,3.5161,3.5033,3.5033,3.5367,3.5399,3.4875,3.3616,3.2203,3.0245,2.8269,2.6556,2.4913,2.4135,2.3461,2.2848,2.232,2.2864,0.0,0.0,0.0,0.0,3.9674,4.2442,0.0,0.0,0.0,0.0,0.0,3.4057,2.8862,2.3365,1.8448,1.4068,1.1577,0.9674,0.8607,0.8607,0.8607,0.8607,0.8607,0.8607,0.8607,0.8607,0.8067,0.7527,0.6812,0.502,0.2868,0.1076,-0.0538,-0.1975,-0.2694,-0.2874,-0.2874,-0.2874,-0.2874,-0.2867,-0.284,-0.3678,-0.4253,-0.3345,-0.1523,0.0,0.0,0.0,0.0,0.0,0.0,0.0,0.0,0.0,0.0,1.2072,0.0,0.0,0.0,0.0,0.0,0.0,0.0,0.0,0.0,0.0,0.6218,0.3173,0.0,-0.3619,0.0,-1.166,-1.6933,-2.3608,-2.6919,-3.0217,-3.3492,-3.3492,-3.4536,-3.6577,-4.0657,-4.301,-4.4186,-4.6629,-4.7613,-4.7773,-4.8591,-4.8907,-4.8907,0.0,0.0,0.0,0.0,0.0,0.0,0.0,3.9777,3.7316,3.6008,3.5306,3.5033,3.5033,3.5367,3.5399,3.4875,3.3998,3.2749,3.1315,2.8989,2.7184,2.6265,2.4585,2.3612,2.3343,2.2654,2.2643,0.0,0.0,2.9027,0.0,0.0,0.0,0.0,0.0,0.0,0.0,3.4305,3.034,2.6162,2.0983,1.6812,1.3356,1.0911,0.95,0.8607,0.8607,0.8607,0.8607,0.8607,0.8607,0.8607,0.8607,0.771,0.6633,0.664,0.4485,0.1614,-0.0359,-0.1795,-0.2694,-0.2874,-0.2874,-0.2874,-0.2874,-0.2874,-0.3231,-0.4478,-0.7041,-0.8915,-0.8752,-0.7001,-0.413,0.0,0.0,0.0,0.0,0.0,1.102,0.9317,0.0,0.0,0.0,1.5664,0.0,0.0,0.0,0.0,0.0,0.0,0.0,1.6486,0.0,0.7723,0.3531,-0.1601,0.0,-1.1137,-1.6064,-2.1071,-2.6164,-2.8534,-3.1093,-3.3492,-3.3492,-3.518,-3.7874,-4.099,-4.3341,-4.5005,-4.6951,-4.7933,-4.8273,-4.8749,-4.8907,-4.8907,0.0,0.0,0.0,0.0,0.0,0.0,0.0,3.8397,3.682,3.5848,3.5444,3.5367,3.5367,3.5494,3.5573,3.5399,3.4174,3.294,3.1848,2.9528,2.7546,2.63,2.5093,2.4201,2.3612,2.3052,2.2873,0.0,0.0,0.0,0.0,0.0,0.0,0.0,0.0,3.3452,3.2438,2.9621,2.6504,2.2967,1.9033,1.5685,1.3034,1.1094,0.9852,0.8964,0.8786,0.8607,0.8607,0.8607,0.8607,0.8607,0.8246,0.7349,0.6454,0.6099,0.3766,0.0897,-0.0538,-0.1975,-0.2874,-0.2874,-0.2874,-0.2874,-0.2874,-0.3053,-0.359,-0.4843,-0.7787,-1.0422,-1.1328,-1.0525,-0.8772,0.0,0.0,0.0,0.0,0.0,0.0,0.5436,0.0,1.012,0.0,0.0,0.0,0.0,0.0,0.0,0.0,0.0,0.0,1.8129,0.0,0.963,0.5054,-0.1309,-0.7759,-1.3944,-1.9205,-2.3961,-2.8534,-3.0203,-3.1915,-3.381,-3.4848,-3.6541,-3.854,-4.1748,-4.3837,-4.5169,-4.7272,-4.8092,-4.8432,-4.8749,-4.8907,-4.8907,4.5505,0.0,4.5113,0.0,4.2447,4.0665,3.8583,3.7246,3.6253,3.5748,3.5573,3.5573,3.5573,3.5573,3.5573,3.5573,3.4525,3.3455,3.2557,3.041,2.8449,2.6833,2.556,0.0,2.3752,2.3429,2.3217,2.2922,2.574,0.0,0.0,0.0,0.0,0.0,3.0993,2.9361,2.785,2.6042,2.3645,2.0945,1.8104,1.533,1.2979,1.1373,1.0301,0.9401,0.8865,0.8685,0.8685,0.8685,0.8685,0.8677,0.8083,0.717,0.6097,0.5201,0.287,0.0179,-0.1257,-0.2156,-0.2874,-0.2874,-0.2874,-0.2874,-0.2874,-0.3231,-0.4126,-0.5736,-0.8719,-1.1428,-1.2721,-1.2476,-1.171,-1.0099,0.0,0.0,0.0,0.0,0.0,0.0,0.7384,1.0777,1.3137,1.6819,0.0,0.0,0.0,0.0,0.0,0.0,0.0,0.0,0.0,0.0,0.0,-0.1153,-0.8829,-1.6526,-2.2304,-2.7203,-3.0929,-3.1777,-3.2936,-3.4349,-3.5891,-3.7583,-3.9271,-4.2321,-4.433,-4.582,-4.7453,-4.8251,-4.8591,-4.8749,-4.8907,-4.8591,4.4852,4.412,4.328,4.2403,4.0014,3.7996,3.7036,3.6253,3.5573,3.5573,3.5573,3.5573,3.5573,3.5573,3.5573,3.5573,3.5225,3.4525,3.347,3.1671,2.9694,0.0,0.0,2.5082,2.3752,2.3741,2.3278,2.2331,0.0,0.0,2.6834,0.0,3.1086,3.1137,2.8768,2.6942,2.5175,2.408,2.2417,2.024,1.8169,1.6017,1.3802,1.1797,1.0519,0.96,0.9053,0.8869,0.8869,0.8869,0.8869,0.8836,0.8117,0.6812,0.538,0.3406,0.1614,-0.0359,-0.2335,-0.2874,-0.2874,-0.2874,-0.2874,-0.2874,-0.2874,-0.3231,-0.4483,-0.7874,-1.0555,-1.2437,-1.3032,-1.269,-1.2124,-1.1391,0.0,0.0,0.0,0.0,0.0,0.4229,0.9133,1.2936,1.4634,0.0,0.0,0.0,0.0,0.0,0.0,0.0,0.0,2.0716,1.8277,0.0,0.8169,-0.1129,-1.007,-1.8818,-2.5762,-3.0616,-3.3476,-3.3476,-3.3997,-3.4832,-3.6042,-3.8066,-4.0584,-4.2321,-4.4658,-4.6972,-4.7432,-4.8092,-4.8907,-4.8907,-4.8591,-4.8251,4.4197,4.3057,4.1808,4.0228,3.8781,3.7485,3.6237,3.5955,3.5939,3.5939,3.613,3.6273,3.6273,3.5859,3.5573,0.0,3.5225,3.4525,0.0,3.2026,3.0245,2.8269,2.6833,2.5525,2.4525,2.4009,2.3526,2.3063,0.0,0.0,0.0,2.7395,2.741,2.7196,2.5564,2.4365,2.3619,2.3087,2.2029,2.0327,1.8783,1.6672,1.4173,1.2352,1.0891,0.9972,0.9237,0.8873,0.8873,0.8873,0.8873,0.8676,0.734,0.6559,0.5429,0.2875,0.1076,-0.0359,-0.2335,-0.2874,-0.2874,-0.2874,-0.2874,-0.3053,-0.3231,-0.502,-0.7163,-0.9477,-1.1444,-1.282,-1.3687,-1.3528,-1.3519,-1.377,-1.2889,0.0,0.0,0.0,0.0,0.3066,0.8734,1.2459,0.0,1.4527,0.0,0.0,0.0,0.0,0.0,0.0,0.0,0.0,1.5377,0.0,0.595,-0.1594,-0.9949,-1.9234,-2.5051,-2.992,-3.3492,-3.373,-3.4366,-3.5206,-3.6745,-3.845,-4.0487,-4.2952,-4.4985,-4.6629,-4.7613,-4.841,-4.8907,-4.8907,-4.8749,-4.8569,4.4239,4.3117,4.1545,3.9787,3.8598,3.7491,3.6289,3.6243,3.6288,3.6288,3.6463,3.659,3.659,3.6225,0.0,3.5955,3.5668,3.5077,3.418,3.263,3.0959,2.9169,2.7365,2.5924,2.4818,0.0,0.0,2.3526,2.4603,2.5942,2.7224,2.6574,2.602,2.5527,2.4485,2.3771,2.3192,2.2799,2.183,2.0458,1.901,1.704,1.4711,1.2679,1.1387,1.0273,0.9343,0.8975,0.8975,0.8975,0.8784,0.8404,0.7074,0.6296,0.5332,0.2366,0.0545,-0.0726,-0.2351,-0.289,-0.2887,-0.2876,-0.2874,-0.3233,-0.4126,-0.627,-0.8769,-1.055,-1.216,-1.3369,-1.3928,-1.4119,-1.4302,-1.4821,-1.4549,-1.3822,-1.2018,0.0,0.0,0.0,0.0,0.0,0.0,0.8542,0.0,0.0,0.0,0.0,0.0,0.0,0.0,1.2885,1.1055,0.0,0.2556,-0.3675,-1.1103,-1.9984,-2.6528,-3.1063,-3.3492,-3.3858,-3.4526,-3.5537,-3.6913,-3.881,-4.1005,-4.301,-4.4822,-4.6629,-4.7453,-4.8114,-4.8749,-4.8749,-4.8569,-4.8251,4.5209,4.4041,0.0,0.0,3.9184,0.0,3.6996,3.6772,3.6638,3.6638,3.6654,3.667,3.667,3.667,3.667,3.667,0.0,0.0,0.0,3.3664,3.1863,3.0093,2.8088,2.6276,2.4818,2.4291,2.4,2.3774,2.4868,2.5844,2.671,2.6698,2.6166,2.5509,2.4902,2.4319,2.3451,2.2915,2.1951,2.0674,1.921,1.7281,1.4993,1.2922,1.1605,1.0469,0.9522,0.9142,0.9142,0.9142,0.8759,0.8174,0.7165,0.6395,0.5066,0.167,-0.0185,-0.1293,-0.2561,-0.2919,-0.2912,-0.2885,-0.3055,-0.359,-0.5378,-0.7338,-0.9299,-1.1083,-1.2692,-1.3722,-1.4102,-1.4291,-1.4642,-1.4806,-1.4868,-1.3944,-1.1262,0.0,0.0,0.0,0.0,0.0,0.0,-0.0,-0.1867,0.0,0.0,0.0,0.0,0.0,0.7168,0.6556,0.5101,0.2206,-0.218,-0.7429,-1.3931,-2.1497,-2.9554,-3.3492,-3.354,-3.3889,-3.4741,-3.5922,-3.6777,-3.8828,-4.1695,-4.2512,-4.4494,-4.6972,-4.6993,-4.7474,-4.8273,-4.8273,-4.7933,-4.7592,0.0,0.0,4.3323,4.1141,3.9931,3.8611,3.7387,3.7141,3.7003,3.7003,3.7242,3.7417,3.7417,3.7417,3.7417,3.7417,3.6845,3.6137,3.5254,3.4008,3.2384,3.0402,2.8201,2.6458,2.5377,2.4474,2.4086,2.4021,2.4081,2.4285,2.4453,2.4274,2.4285,2.4285,2.4173,2.3954,2.3946,2.3399,2.2322,2.088,1.9022,1.6815,1.4422,1.2356,1.1037,1.009,0.9332,0.9142,0.9142,0.9142,0.8573,0.7616,0.7223,0.5508,0.3406,0.1302,-0.0185,-0.1294,-0.2584,-0.295,-0.2943,-0.2913,-0.3791,-0.502,-0.6984,-0.8765,-1.0728,-1.216,-1.3407,-1.4075,-1.4102,-1.4291,-1.4606,-1.4659,-1.4792,-1.3907,-1.1453,-0.7909,0.0,0.0,-0.028,-0.0837,-0.3804,-0.6317,-0.959,0.0,0.0,0.0,0.0,-1.4115,-1.0517,-0.3661,-0.5637,-0.8307,-1.1553,-1.4609,-2.004,-2.7717,-3.1644,-3.3619,-3.3905,-3.4239,-3.4911,-3.5792,-3.6991,-3.8562,-4.0367,-4.1863,-4.3837,-4.5961,-4.6306,-4.7293,-4.8273,-4.7933,-4.7773,-4.7613,4.5815,4.5163,4.3953,4.1904,4.0491,3.9355,3.812,3.7692,3.7369,3.7369,3.7544,3.7671,3.7671,3.7671,3.7671,3.7671,3.7162,3.6483,3.5774,3.4352,3.2713,3.1063,2.8597,2.6818,2.5731,2.4712,2.4118,2.4118,2.3978,2.3914,2.3914,2.3784,2.3795,2.3914,2.3914,2.3989,2.4107,2.3189,2.1889,2.0584,1.8346,1.6104,1.3858,1.2167,1.0848,0.9901,0.9332,0.9142,0.9142,0.8763,0.8189,0.7239,0.6862,0.4575,0.1712,0.0376,-0.0938,-0.225,-0.2799,-0.2981,-0.3156,-0.3475,-0.4534,-0.5948,-0.8067,-0.9838,-1.1444,-1.2875,-1.3768,-1.4251,-1.4102,-1.4463,-1.4592,-1.3936,-1.4216,-1.3647,-1.1244,-0.9107,0.0,-0.603,-0.6455,-0.8232,-1.1292,-1.3994,-1.6952,-2.0422,0.0,0.0,-2.1071,-2.2707,-2.012,-1.2196,-1.3786,-1.5957,-1.8602,-2.1905,-2.5963,-3.0632,-3.2632,-3.3667,-3.4032,-3.435,-3.5039,-3.6093,-3.6953,-3.8306,-4.0198,-4.1528,-4.3341,-4.5311,-4.5678,-4.6326,-4.7293,-4.6951,-4.679,-4.6629,4.6542,4.5738,4.4566,4.2654,4.1055,3.9728,3.886,3.803,3.7671,3.7671,3.7671,3.7671,3.7671,3.7671,3.7671,3.7671,3.7385,3.7028,3.6479,3.4681,3.3028,3.156,2.8875,2.7092,2.5994,2.4866,2.4204,2.4161,2.4161,2.4151,2.4118,2.4118,2.4118,2.4118,2.4118,2.4118,2.3924,2.2442,2.1325,2.0028,1.7608,1.5362,1.3481,1.1789,1.0659,0.9711,0.9332,0.9142,0.8952,0.8379,0.7616,0.6859,0.5911,0.3432,0.0572,-0.0954,-0.2098,-0.3047,-0.3021,-0.301,-0.3368,-0.4228,-0.5293,-0.6715,-0.899,-1.0565,-1.1976,-1.3407,-1.3945,-1.4245,-1.4242,-1.4794,-1.4754,-1.3211,-1.3646,-1.3418,-1.1237,0.0,-1.0925,-1.1205,-1.3088,-1.5676,-1.8581,-2.0864,-2.2867,-2.4652,-2.4741,-2.4605,0.0,-2.618,-2.4907,-1.998,-2.0922,-2.2542,-2.4763,-2.8399,-3.0855,-3.2042,-3.3053,-3.3746,-3.4096,-3.443,-3.529,-3.6346,-3.6814,-3.8135,-4.018,-4.1192,-4.2863,-4.4842,-4.4862,-4.5352,-4.6144,-4.5657,-4.5495,-4.5515,4.6542,4.5996,4.4837,4.3098,4.1479,4.0135,3.9225,3.8175,3.7671,3.7671,3.7671,3.7671,3.7671,3.7671,3.7671,3.7671,3.7623,3.7207,3.6282,3.484,3.3357,3.1316,2.9005,2.7192,2.6256,2.5285,2.4603,2.4409,2.4409,2.4312,2.4118,2.4118,2.4118,2.4118,2.4118,2.3935,2.3373,2.2442,2.114,1.9648,1.704,1.4792,1.291,1.1411,1.009,0.9142,0.9142,0.9142,0.8952,0.7999,0.7433,0.6672,0.4192,0.1906,-0.0191,-0.2288,-0.2862,-0.3051,-0.3046,-0.3405,-0.3943,-0.4865,-0.6454,-0.8178,-1.0154,-1.1699,-1.2875,-1.3945,-1.4299,-1.4386,-1.4449,-1.4893,-1.485,-1.3591,-1.4244,-1.4342,-1.3246,0.0,-1.4716,-1.5624,-1.7558,-1.9648,-2.1569,-2.3047,-2.4469,-2.5742,-2.6157,-2.6669,-2.7565,-2.8302,-2.8518,-2.8409,-2.8924,-2.9938,-3.1377,-3.2335,-3.3053,-3.3233,-3.3762,-3.4112,-3.4445,-3.4795,-3.5505,-3.6362,-3.6757,-3.7791,-3.9331,-4.0518,-4.2197,-4.3876,-4.3876,-4.435,-4.5169,-4.4698,-4.4534,-4.4698,4.7269,4.6551,4.5454,4.3505,4.1888,4.0566,3.9308,3.8591,3.804,3.7671,3.7671,3.7671,3.7671,3.7671,3.7671,3.7671,3.7671,3.7301,3.6359,3.5093,3.3514,3.1638,2.9294,2.7204,2.5561,2.4996,2.4753,2.4646,2.4646,2.4592,2.4484,2.4484,2.4484,2.4484,2.4484,2.4111,2.3551,2.2418,2.0906,1.9389,1.6744,1.4457,1.2549,1.1397,1.0248,0.9285,0.9285,0.906,0.8638,0.7681,0.6893,0.6101,0.2859,0.0763,-0.0954,-0.267,-0.3052,-0.3052,-0.3052,-0.3611,-0.4538,-0.5638,-0.7449,-0.9395,-1.1288,-1.2484,-1.3496,-1.4135,-1.4299,-1.4407,-1.4707,-1.4936,-1.4689,-1.299,-1.3735,0.0,0.0,-1.5118,-1.736,-1.8916,-2.1431,-2.3453,-2.4553,-2.5635,-2.6612,-2.7402,-2.7875,-2.8318,-2.9094,-2.9588,-3.0042,-3.0647,-3.1332,-3.2171,-3.3148,-3.3328,-3.3587,-3.3778,-3.3937,-3.4287,-3.4795,-3.5125,-3.5913,-3.6789,-3.7119,-3.8135,-3.9519,-4.0367,-4.1546,-4.3048,-4.3048,-4.338,-4.3856,-4.3546,-4.338,-4.338,4.7701,4.6813,4.5549,4.3604,4.1994,4.0748,3.9308,3.8775,3.8224,3.7671,3.7671,3.7671,3.7671,3.7671,3.7671,3.7671,3.7671,3.71,3.6173,3.504,3.354,3.1664,2.9165,2.6869,2.4969,2.4969,2.4947,2.4893,2.4893,2.4861,2.4807,2.4807,2.4807,2.4807,2.4608,2.423,2.3473,2.2144,2.0428,1.8688,1.6351,1.4217,1.2283,1.1289,1.0311,0.9346,0.9346,0.8915,0.8089,0.732,0.6328,0.4768,0.1716,-0.0191,-0.1716,-0.2862,-0.3052,-0.3052,-0.3243,-0.4004,-0.5137,-0.6789,-0.8633,-1.0445,-1.2113,-1.3319,-1.3983,-1.438,-1.4353,-1.4646,-1.4807,-1.5189,-1.4769,-1.313,0.0,0.0,0.0,-1.6717,-1.9727,-2.1631,-2.4352,-2.636,-2.6907,-2.7459,-2.8084,-2.8571,-2.8896,-2.941,-2.9968,-3.0217,-3.0706,-3.1272,-3.2037,-3.267,-3.3476,-3.3492,-3.3667,-3.4016,-3.4096,-3.4445,-3.5205,-3.5644,-3.6338,-3.7119,-3.7464,-3.8323,-3.9519,-4.0028,-4.1042,-4.2068,-4.2068,-4.2383,-4.2716,-4.2383,-4.2235,-4.2235,4.7354,4.6289,4.5021,4.3087,4.1652,4.022,3.9308,3.8775,3.8224,3.7671,3.7671,3.7671,3.7671,3.7671,3.7671,3.7671,3.7285,3.6545,3.56,3.4103,3.2597,3.1067,2.8008,2.6067,2.5464,2.5464,2.5367,2.5152,2.5152,2.5033,2.4807,2.4807,2.4807,2.4807,2.423,2.3473,2.2524,2.1001,1.9088,1.715,1.5472,1.3507,1.1574,1.0906,1.0113,0.9163,0.9163,0.8588,0.763,0.7252,0.5339,0.2858,0.0763,-0.1335,-0.3052,-0.3052,-0.3052,-0.3243,-0.3624,-0.4577,-0.5718,-0.7795,-0.962,-1.1424,-1.3079,-1.4087,-1.4679,-1.4529,-1.4854,-1.5127,-1.5337,-1.579,-1.5786,-1.527,0.0,0.0,-1.7502,-2.0009,-2.2396,-2.405,-2.6022,-2.7215,-2.7228,-2.7581,-2.8084,-2.8571,-2.8896,-2.9511,-3.029,-3.0334,-3.0989,-3.2128,-3.2489,-3.2983,-3.3492,-3.3492,-3.3667,-3.4016,-3.4318,-3.4838,-3.5735,-3.6075,-3.6757,-3.7619,-3.7636,-3.8152,-3.9025,-3.9519,-4.0367,-4.1042,-4.1042,-4.136,-4.1863,-4.1695,-4.1695,-4.1863,4.7181,4.5919,4.4668,4.2909,4.1849,4.0583,3.9308,3.8942,3.8575,3.7855,3.7671,3.7671,3.7671,3.7671,3.7671,3.7671,3.7285,3.6529,3.5413,3.3713,3.1637,2.9171,2.726,2.6111,2.5518,2.5518,2.5475,2.5389,2.5389,2.5335,2.5249,2.5249,2.5249,2.5249,2.4661,2.3891,2.2732,2.118,1.9427,1.7253,1.5542,1.3733,1.1773,1.1081,1.0271,0.9305,0.8923,0.8114,0.7112,0.6731,0.4406,0.1525,-0.0191,-0.1716,-0.3052,-0.3052,-0.3243,-0.3624,-0.4577,-0.5527,-0.6856,-0.8751,-1.0809,-1.2455,-1.3684,-1.4369,-1.4841,-1.4685,-1.4937,-1.5377,-1.5609,-1.5943,-1.6051,-1.5916,0.0,-1.7918,-1.8579,-2.1222,-2.362,-2.4951,-2.6626,-2.7602,-2.7789,-2.8468,-2.8966,-2.9131,-2.9792,-3.0345,-3.0642,-3.1152,-3.1872,-3.2489,-3.2983,-3.3328,-3.3492,-3.3699,-3.3985,-3.4318,-3.4668,-3.5189,-3.6075,-3.6551,-3.7119,-3.7619,-3.798,-3.834,-3.9025,-3.9195,-3.9876,-4.0554,-4.0554,-4.0873,-4.1378,-4.1378,-4.1378,-4.1378,4.6987,4.5568,4.4137,4.273,4.1669,4.0583,3.9308,3.9125,3.8759,3.7855,3.7671,3.7671,3.7671,3.7671,3.7671,3.7671,3.6915,3.5972,3.504,3.238,2.9924,2.7646,2.6681,2.5917,2.5518,2.5518,2.5518,2.5518,2.5518,2.5518,2.5518,2.5518,2.5324,2.5129,2.4546,2.3561,2.2387,2.062,1.8647,1.685,1.5316,1.3488,1.1506,1.1202,1.0379,0.9408,0.8626,0.781,0.6991,0.5634,0.3282,0.0383,-0.1149,-0.2295,-0.3052,-0.3052,-0.3624,-0.4387,-0.5527,-0.6856,-0.8182,-0.9888,-1.1784,-1.3463,-1.4306,-1.4852,-1.4991,-1.5025,-1.5272,-1.5716,-1.6152,-1.6471,-1.676,-1.6869,-1.8238,-1.9413,-2.0334,-2.2803,-2.4857,-2.6045,-2.7158,-2.7923,-2.8123,-2.8978,-2.9481,-2.9481,-3.0317,-3.0817,-3.0984,-3.1843,-3.2339,-3.2819,-3.3423,-3.3651,-3.3651,-3.3889,-3.4239,-3.4668,-3.5093,-3.5741,-3.6616,-3.6946,-3.7464,-3.7808,-3.8152,-3.8512,-3.8854,-3.8854,-3.9536,-4.0216,-4.0385,-4.0723,-4.106,-4.106,-4.106,-4.1229,4.6619,4.5197,4.3604,4.2209,4.1308,4.022,3.9308,3.9125,3.8759,3.7855,3.7671,3.7671,3.7671,3.7671,3.7671,3.7671,3.6359,3.504,3.3916,3.0115,2.7646,2.7067,2.61,2.5518,2.5518,2.5518,2.5518,2.5518,2.5518,2.5518,2.5518,2.5518,2.5129,2.473,2.3561,2.2387,2.0629,1.8639,1.6864,1.5267,1.3941,1.2508,1.1111,1.1006,1.0379,0.9212,0.8232,0.7648,0.6872,0.3924,0.156,-0.0387,-0.2517,-0.3077,-0.3052,-0.3052,-0.3815,-0.4956,-0.6476,-0.8372,-1.0077,-1.1212,-1.2533,-1.4046,-1.4993,-1.5181,-1.5327,-1.5547,-1.6073,-1.6529,-1.6728,-1.7558,-1.8328,-1.8813,-2.0113,-2.1726,-2.3677,-2.5033,-2.6209,-2.7529,-2.7963,-2.8136,-2.8136,-2.8978,-2.9481,-2.9481,-3.0317,-3.0984,-3.1482,-3.1994,-3.2339,-3.2834,-3.366,-3.4016,-3.4016,-3.4016,-3.4366,-3.5033,-3.5548,-3.6085,-3.6946,-3.7464,-3.7808,-3.8323,-3.8323,-3.8323,-3.8323,-3.8854,-3.9366,-3.9689,-4.0216,-4.0723,-4.106,-4.106,-4.106,-4.1229,4.6444,4.4845,4.3266,4.2209,4.1308,4.0402,3.969,3.9308,3.8942,3.8224,3.7855,3.7671,3.7671,3.7671,3.7671,3.7671,3.6574,3.4521,3.1464,2.9347,2.7778,2.6606,2.5896,2.5518,2.5518,2.5518,2.5518,2.5518,2.5518,2.5518,2.5518,2.5518,2.5129,2.473,2.3561,2.2387,2.0629,1.8639,1.6864,1.5068,1.3545,1.2113,1.1111,1.0615,0.9798,0.8626,0.7645,0.6866,0.6082,0.2746,0.0588,-0.0977,-0.2542,-0.3108,-0.3084,-0.3467,-0.46,-0.5905,-0.7612,-0.9694,-1.159,-1.2356,-1.3299,-1.4422,-1.4993,-1.5181,-1.5362,-1.5687,-1.6153,-1.6597,-1.704,-1.801,-1.9097,-1.973,-2.1598,-2.342,-2.4708,-2.6099,-2.7175,-2.8016,-2.8083,-2.8305,-2.8655,-2.9146,-2.9649,-2.9998,-3.0832,-3.1497,-3.2009,-3.2339,-3.2943,-3.3676,-3.3786,-3.4239,-3.4716,-3.4731,-3.4827,-3.5033,-3.5822,-3.6502,-3.6946,-3.7464,-3.7808,-3.8323,-3.8323,-3.8323,-3.8323,-3.8854,-3.9366,-3.9689,-4.0216,-4.0723,-4.106,-4.106,-4.106,-4.1229,4.6269,4.4491,4.2909,4.1849,4.1127,4.0402,4.0055,3.9491,3.8942,3.8408,3.804,3.7671,3.7671,3.7798,3.7877,3.7692,3.5906,3.3491,2.9972,2.88,2.7611,2.6229,2.5959,2.5798,2.5798,2.5798,2.5798,2.5798,2.5798,2.5798,2.5798,2.5602,2.496,2.4082,2.2904,2.1282,1.9437,1.7459,1.587,1.4476,1.3002,1.1982,1.1178,1.0523,0.9514,0.8328,0.7537,0.6346,0.4561,0.1587,-0.0594,-0.1974,-0.295,-0.3326,-0.3501,-0.426,-0.5774,-0.7459,-0.8948,-1.1023,-1.2916,-1.3299,-1.4052,-1.4805,-1.5181,-1.5368,-1.5556,-1.6119,-1.6606,-1.7073,-1.774,-1.8914,-2.0032,-2.1077,-2.2984,-2.4835,-2.5946,-2.6948,-2.7774,-2.8163,-2.8136,-2.8318,-2.8824,-2.9146,-2.9816,-3.0332,-3.115,-3.1707,-3.2357,-3.2705,-3.3359,-3.4191,-3.435,-3.462,-3.5033,-3.5349,-3.5428,-3.5601,-3.6156,-3.6789,-3.7291,-3.7636,-3.798,-3.8323,-3.8323,-3.8323,-3.8683,-3.9025,-3.9536,-4.0046,-4.0554,-4.0892,-4.106,-4.106,-4.1229,-4.1378,4.5744,4.396,4.2371,4.1506,4.0946,4.0402,4.0055,3.9491,3.8958,3.864,3.8088,3.7734,3.7766,3.8052,3.8055,3.7476,3.491,3.2181,2.9675,2.8486,2.7292,2.6293,2.6282,2.6272,2.6272,2.625,2.6239,2.6239,2.6239,2.6239,2.6229,2.5629,2.4706,2.3512,2.1922,1.9834,1.7695,1.611,1.4719,1.3724,1.2516,1.1708,1.1297,1.0694,0.9484,0.8069,0.7465,0.5446,0.2622,0.0404,-0.1607,-0.3187,-0.3159,-0.3541,-0.4118,-0.5245,-0.7159,-0.9064,-1.0497,-1.2361,-1.3876,-1.4429,-1.4805,-1.5181,-1.5181,-1.5563,-1.6126,-1.6681,-1.7055,-1.7755,-1.8702,-1.9943,-2.1326,-2.2726,-2.4474,-2.6158,-2.7106,-2.7758,-2.801,-2.8257,-2.8217,-2.8386,-2.8906,-2.9397,-3.0069,-3.0905,-3.1405,-3.204,-3.2846,-3.3212,-3.3704,-3.4541,-3.4859,-3.5049,-3.5081,-3.5934,-3.6286,-3.6286,-3.6773,-3.7291,-3.7619,-3.8152,-3.8323,-3.8323,-3.8323,-3.8512,-3.9025,-3.9536,-4.0046,-4.0403,-4.0892,-4.106,-4.106,-4.106,-4.1378,-4.1863,4.5392,4.38,4.2371,4.1506,4.0946,4.0583,4.0402,3.9673,3.9224,3.9353,3.8643,3.8179,3.8449,3.8545,3.8403,3.7834,3.4824,3.2155,3.0198,2.8606,2.7399,2.6799,2.6605,2.6508,2.6508,2.6325,2.6239,2.6239,2.6239,2.6239,2.6229,2.5629,2.4798,2.3747,2.194,2.0099,1.7842,1.6219,1.4998,1.3774,1.2344,1.1681,1.1208,0.9779,0.8525,0.7465,0.6864,0.444,0.1211,-0.1616,-0.2825,-0.322,-0.3616,-0.4192,-0.4955,-0.6916,-0.8637,-1.0316,-1.2138,-1.3447,-1.4571,-1.502,-1.5181,-1.5181,-1.5181,-1.5563,-1.6126,-1.6681,-1.7055,-1.7795,-1.9242,-2.0705,-2.2099,-2.3857,-2.5628,-2.7144,-2.8108,-2.8417,-2.8738,-2.8858,-2.8845,-2.919,-3.0037,-3.0724,-3.1578,-3.2089,-3.2598,-3.3137,-3.3553,-3.406,-3.4387,-3.4906,-3.4986,-3.5176,-3.5462,-3.6063,-3.6286,-3.6286,-3.7119,-3.7464,-3.7619,-3.8152,-3.8323,-3.8323,-3.8323,-3.8512,-3.9025,-3.9536,-4.0046,-4.0403,-4.0892,-4.106,-4.106,-4.106,-4.1378,-4.203,4.4845,4.3444,4.2029,4.1127,4.092,4.0857,4.0857,4.0075,3.9703,3.9901,3.8997,3.8497,3.8672,3.8656,3.8063,3.6669,3.4055,3.1628,2.9975,2.8575,2.7553,2.695,2.6821,2.6756,2.6756,2.6519,2.6401,2.6401,2.6401,2.6253,2.6168,2.5348,2.4273,2.2747,2.0714,1.8829,1.6925,1.5494,1.4264,1.3238,1.2004,1.1325,1.0834,0.9201,0.8133,0.7264,0.5448,0.2421,-0.1211,-0.2625,-0.3231,-0.3231,-0.3836,-0.4827,-0.6001,-0.8155,-0.9892,-1.1788,-1.3427,-1.4501,-1.501,-1.5309,-1.5423,-1.5556,-1.5556,-1.5938,-1.6494,-1.6868,-1.7624,-1.8549,-2.0037,-2.1685,-2.3483,-2.5354,-2.7145,-2.8322,-2.8934,-2.907,-2.9205,-2.9058,-2.9045,-2.9379,-3.0232,-3.1267,-3.1969,-3.2483,-3.2981,-3.3398,-3.4081,-3.4593,-3.4922,-3.5287,-3.5287,-3.5556,-3.5922,-3.6443,-3.6789,-3.6946,-3.7464,-3.7808,-3.798,-3.8152,-3.8323,-3.8323,-3.8512,-3.8854,-3.9366,-3.9876,-4.0385,-4.0723,-4.106,-4.106,-4.106,-4.106,-4.1882,-4.3341,4.4342,4.2928,4.1863,4.0954,4.1046,4.1268,4.1268,4.0577,4.0215,4.0281,3.9352,3.8799,3.8878,3.8572,3.7283,3.4983,3.2986,3.0987,2.9389,2.8167,2.736,2.695,2.6907,2.6885,2.6885,2.6648,2.6541,2.6584,2.6584,2.6478,2.6066,2.5069,2.354,2.1731,1.9466,1.7533,1.577,1.4541,1.3509,1.2471,1.1851,1.1161,1.0245,0.8607,0.7741,0.6861,0.3832,0.0202,-0.3234,-0.3231,-0.323,-0.3433,-0.4038,-0.5448,-0.7248,-0.938,-1.1337,-1.3094,-1.4737,-1.5195,-1.5472,-1.5425,-1.5695,-1.5967,-1.5938,-1.6494,-1.6868,-1.725,-1.8184,-1.948,-2.0955,-2.278,-2.4796,-2.6809,-2.8269,-2.9283,-2.9593,-2.9566,-2.9472,-2.9219,-2.9367,-2.9703,-3.0559,-3.1613,-3.2303,-3.2819,-3.3163,-3.38,-3.4611,-3.4956,-3.5272,-3.5573,-3.5748,-3.5922,-3.6286,-3.6773,-3.7291,-3.7619,-3.7636,-3.798,-3.8323,-3.8323,-3.8323,-3.8512,-3.8854,-3.9366,-3.9876,-4.0216,-4.0723,-4.106,-4.106,-4.106,-4.106,-4.1397,-4.2697,-4.4822,4.4307,4.304,4.2116,4.156,4.1594,4.1628,4.1628,4.0728,4.0314,4.0627,3.9723,3.9275,3.9593,3.8487,3.6751,3.4585,3.2384,3.038,2.8767,2.7553,2.695,2.695,2.6745,2.6638,2.6638,2.6401,2.6379,2.6584,2.6584,2.6392,2.5816,2.4989,2.3625,2.1941,1.9647,1.7552,1.6073,1.4814,1.3769,1.2711,1.2079,1.1122,0.9926,0.8273,0.7169,0.6259,0.2623,-0.0606,-0.3234,-0.3231,-0.3433,-0.4038,-0.5047,-0.6455,-0.8464,-1.1054,-1.2652,-1.3819,-1.527,-1.5811,-1.573,-1.5472,-1.5772,-1.6284,-1.6523,-1.6868,-1.725,-1.7437,-1.8557,-2.0037,-2.151,-2.3331,-2.5343,-2.7365,-2.8462,-2.9349,-2.986,-2.986,-2.9847,-2.9806,-3.0493,-3.1203,-3.1749,-3.2632,-3.3511,-3.3861,-3.4386,-3.4925,-3.5336,-3.551,-3.5526,-3.5573,-3.5922,-3.6286,-3.6286,-3.7119,-3.7636,-3.7619,-3.798,-3.8152,-3.8323,-3.8323,-3.8512,-3.8854,-3.9025,-3.9536,-4.0403,-4.0403,-4.0723,-4.106,-4.106,-4.106,-4.1229,-4.2383,-4.3691,-4.5311,4.4288,4.3015,4.2273,4.1697,4.1885,4.2022,4.2022,4.1264,4.0875,4.104,4.0094,3.9577,3.9346,3.7386,3.5196,3.2986,3.1189,2.9581,2.8155,2.7349,2.695,2.695,2.6842,2.6788,2.6788,2.6552,2.6476,2.6584,2.6253,2.5649,2.4759,2.3622,2.1862,2.0103,1.8013,1.6335,1.5078,1.4235,1.3391,1.2334,1.1911,1.0765,0.8972,0.8103,0.6378,0.4064,0.0202,-0.202,-0.3231,-0.3635,-0.4038,-0.4641,-0.6052,-0.7861,-0.987,-1.1874,-1.3473,-1.4862,-1.5797,-1.592,-1.5818,-1.5689,-1.6103,-1.6722,-1.6837,-1.7499,-1.8184,-1.8184,-1.948,-2.0955,-2.279,-2.4796,-2.6628,-2.8269,-2.9182,-2.9734,-2.9913,-2.9913,-2.9913,-3.0272,-3.0973,-3.1507,-3.1877,-3.294,-3.3646,-3.4174,-3.47,-3.505,-3.5573,-3.5573,-3.5573,-3.5573,-3.6096,-3.6443,-3.6616,-3.7291,-3.7808,-3.798,-3.8152,-3.8323,-3.8323,-3.8512,-3.8854,-3.9025,-3.9536,-4.0064,-4.0403,-4.0723,-4.0892,-4.106,-4.106,-4.1229,-4.1714,-4.3526,-4.4842,-4.6123]},{"header":{"parameterUnit":"m.s-1","parameterCategory":1,"la1":30.6,"la2":28.766,"lo1":-90.7593,"lo2":-88.6598,"dy":0.0162,"dx":0.0183,"nx":116,"ny":114,"refTime":"2024-03-30T00:00:00:Z","depth":0,"parameterNumber":3,"parameterNumberName":"V-component_of_WINDS"},"data":[0.0,0.0,0.0,0.0,0.0,0.0,0.0,0.0,0.0,0.0,0.0,0.0,0.0,0.0,0.0,0.0,0.0,0.0,0.0,0.0,0.0,0.0,0.0,0.0,0.0,0.0,0.0,0.0,0.0,0.0,0.0,0.0,0.0,0.0,0.0,0.0,0.0,0.0,0.0,0.0,0.0,0.0,0.0,0.0,0.0,0.0,0.0,0.0,0.0,0.0,0.0,0.0,0.0,0.0,0.0,0.0,0.0,0.0,0.0,0.0,0.0,0.0,0.0,0.0,0.0,0.0,0.0,0.0,0.0,0.0,0.0,0.0,0.0,0.0,0.0,0.0,0.0,0.0,0.0,0.0,0.0,0.0,0.0,0.0,0.0,0.0,0.0,0.0,0.0,0.0,0.0,0.0,0.0,0.0,0.0,0.0,0.0,0.0,0.0,0.0,0.0,0.0,0.0,0.0,0.0,0.0,0.0,0.0,0.0,0.0,0.0,0.0,0.0,0.0,0.0,0.0,0.0,0.0,0.0,0.0,0.0,0.0,0.0,0.0,0.0,0.0,0.0,0.0,0.0,0.0,0.0,0.0,0.0,0.0,0.0,0.0,0.0,0.0,0.0,0.0,0.0,0.0,0.0,0.0,0.0,0.0,0.0,0.0,0.0,0.0,0.0,0.0,0.0,0.0,0.0,0.0,0.0,0.0,0.0,0.0,0.0,0.0,0.0,0.0,0.0,0.0,0.0,0.0,0.0,0.0,0.0,0.0,0.0,0.0,0.0,0.0,0.0,0.0,0.0,0.0,0.0,0.0,0.0,0.0,0.0,0.0,0.0,0.0,0.0,0.0,0.0,0.0,0.0,0.0,0.0,0.0,0.0,0.0,0.0,0.0,0.0,0.0,0.0,0.0,0.0,0.0,0.0,0.0,0.0,0.0,0.0,0.0,0.0,0.0,0.0,0.0,0.0,0.0,0.0,0.0,0.0,0.0,0.0,0.0,0.0,0.0,0.0,0.0,0.0,0.0,0.0,0.0,0.0,0.0,0.0,0.0,0.0,0.0,0.0,0.0,0.0,0.0,0.0,0.0,0.0,0.0,0.0,0.0,0.0,0.0,0.0,0.0,0.0,0.0,0.0,0.0,0.0,0.0,0.0,0.0,0.0,0.0,0.0,0.0,0.0,0.0,0.0,0.0,0.0,0.0,0.0,0.0,0.0,0.0,0.0,0.0,0.0,0.0,0.0,0.0,0.0,0.0,0.0,0.0,0.0,0.0,0.0,0.0,0.0,0.0,0.0,0.0,0.0,0.0,0.0,0.0,0.0,0.0,0.0,0.0,0.0,0.0,0.0,0.0,0.0,0.0,0.0,0.0,0.0,0.0,0.0,0.0,0.0,0.0,0.0,0.0,0.0,0.0,0.0,0.0,0.0,0.0,0.0,0.0,0.0,0.0,0.0,0.0,0.0,0.0,0.0,0.0,0.0,0.0,0.0,0.0,0.0,0.0,0.0,0.0,0.0,0.0,0.0,0.0,0.0,0.0,0.0,0.0,0.0,0.0,0.0,0.0,0.0,0.0,0.0,0.0,0.0,0.0,0.0,0.0,0.0,0.0,0.0,0.0,0.0,0.0,0.0,0.0,0.0,0.0,0.0,0.0,0.0,0.0,0.0,0.0,0.0,0.0,0.0,0.0,0.0,0.0,0.0,0.0,0.0,0.0,0.0,0.0,0.0,0.0,0.0,0.0,0.0,0.0,0.0,0.0,0.0,0.0,0.0,0.0,0.0,0.0,0.0,0.0,0.0,0.0,0.0,0.0,0.0,0.0,0.0,0.0,0.0,0.0,0.0,0.0,0.0,0.0,0.0,0.0,0.0,0.0,0.0,0.0,0.0,0.0,0.0,0.0,0.0,0.0,0.0,0.0,0.0,0.0,0.0,0.0,0.0,0.0,0.0,0.0,0.0,0.0,0.0,0.0,0.0,0.0,0.0,0.0,0.0,0.0,0.0,0.0,0.0,0.0,0.0,0.0,0.0,0.0,0.0,0.0,0.0,0.0,0.0,0.0,0.0,0.0,0.0,0.0,0.0,0.0,0.0,0.0,0.0,0.0,0.0,0.0,0.0,0.0,0.0,0.0,0.0,0.0,0.0,0.0,0.0,0.0,0.0,0.0,0.0,0.0,0.0,0.0,0.0,0.0,0.0,0.0,0.0,0.0,0.0,0.0,0.0,0.0,0.0,0.0,0.0,0.0,0.0,0.0,0.0,0.0,0.0,0.0,0.0,0.0,0.0,0.0,0.0,0.0,0.0,0.0,0.0,0.0,0.0,0.0,0.0,0.0,0.0,0.0,0.0,0.0,0.0,0.0,0.0,0.0,0.0,0.0,0.0,0.0,0.0,0.0,0.0,0.0,0.0,0.0,0.0,0.0,0.0,0.0,0.0,0.0,0.0,0.0,0.0,0.0,0.0,0.0,0.0,0.0,0.0,0.0,0.0,0.0,0.0,0.0,0.0,0.0,0.0,0.0,0.0,0.0,0.0,0.0,0.0,0.0,0.0,0.0,0.0,0.0,0.0,0.0,0.0,0.0,0.0,0.0,0.0,0.0,0.0,0.0,0.0,0.0,0.0,0.0,0.0,0.0,0.0,0.0,0.0,0.0,0.0,0.0,0.0,0.0,0.0,0.0,0.0,0.0,0.0,0.0,0.0,0.0,0.0,0.0,0.0,0.0,0.0,0.0,0.0,0.0,0.0,0.0,0.0,0.0,0.0,0.0,0.0,0.0,0.0,0.0,0.0,0.0,0.0,0.0,0.0,0.0,0.0,0.0,0.0,0.0,0.0,0.0,0.0,0.0,0.0,0.0,0.0,0.0,0.0,0.0,0.0,0.0,0.0,0.0,0.0,0.0,0.0,0.0,0.0,0.0,0.0,0.0,0.0,0.0,0.0,0.0,0.0,0.0,0.0,0.0,0.0,0.0,0.0,0.0,0.0,0.0,0.0,0.0,0.0,0.0,0.0,0.0,0.0,0.0,0.0,0.0,0.0,0.0,0.0,0.0,0.0,0.0,0.0,0.0,0.0,0.0,0.0,0.0,0.0,0.0,0.0,0.0,0.0,0.0,0.0,0.0,0.0,0.0,0.0,0.0,0.0,0.0,0.0,0.0,0.0,0.0,0.0,0.0,0.0,0.0,0.0,0.0,0.0,0.0,0.0,0.0,0.0,0.0,0.0,0.0,0.0,0.0,0.0,0.0,0.0,0.0,0.0,0.0,0.0,0.0,0.0,0.0,0.0,0.0,0.0,0.0,0.0,0.0,0.0,0.0,0.0,0.0,0.0,0.0,0.0,0.0,0.0,0.0,0.0,0.0,0.0,0.0,0.0,0.0,0.0,0.0,0.0,0.0,0.0,0.0,0.0,0.0,0.0,0.0,0.0,0.0,0.0,0.0,0.0,0.0,0.0,0.0,0.0,0.0,0.0,0.0,0.0,0.0,0.0,0.0,0.0,0.0,0.0,0.0,0.0,0.0,0.0,0.0,0.0,0.0,0.0,0.0,0.0,0.0,0.0,0.0,0.0,0.0,0.0,0.0,0.0,0.0,0.0,0.0,0.0,0.0,0.0,0.0,0.0,0.0,0.0,0.0,0.0,0.0,0.0,0.0,0.0,0.0,0.0,0.0,0.0,0.0,0.0,0.0,0.0,0.0,0.0,0.0,0.0,0.0,0.0,0.0,0.0,0.0,0.0,0.0,0.0,0.0,0.0,0.0,0.0,0.0,0.0,0.0,0.0,0.0,0.0,0.0,0.0,0.0,0.0,0.0,0.0,0.0,0.0,0.0,0.0,0.0,0.0,0.0,0.0,0.0,0.0,0.0,0.0,0.0,0.0,0.0,0.0,0.0,0.0,0.0,0.0,0.0,0.0,0.0,0.0,0.0,0.0,0.0,0.0,0.0,0.0,0.0,0.0,0.0,0.0,0.0,0.0,0.0,0.0,0.0,0.0,0.0,0.0,0.0,0.0,0.0,0.0,0.0,0.0,0.0,0.0,0.0,0.0,0.0,0.0,0.0,0.0,0.0,0.0,0.0,0.0,0.0,0.0,0.0,0.0,0.0,0.0,0.0,0.0,0.0,0.0,0.0,0.0,0.0,0.0,0.0,0.0,0.0,0.0,0.0,0.0,0.0,0.0,0.0,0.0,0.0,0.0,0.0,0.0,0.0,0.0,0.0,0.0,0.0,0.0,0.0,0.0,0.0,0.0,0.0,0.0,0.0,0.0,0.0,0.0,0.0,0.0,0.0,0.0,0.0,0.0,0.0,0.0,0.0,0.0,0.0,0.0,0.0,0.0,0.0,0.0,0.0,0.0,0.0,0.0,0.0,0.0,0.0,0.0,0.0,0.0,0.0,0.0,0.0,0.0,0.0,0.0,0.0,0.0,0.0,0.0,0.0,0.0,0.0,0.0,0.0,0.0,0.0,0.0,0.0,0.0,0.0,0.0,0.0,0.0,0.0,0.0,0.0,0.0,0.0,0.0,0.0,0.0,0.0,0.0,0.0,0.0,0.0,0.0,0.0,0.0,0.0,0.0,0.0,0.0,0.0,0.0,0.0,0.0,0.0,0.0,0.0,0.0,0.0,0.0,0.0,0.0,0.0,0.0,0.0,0.0,0.0,0.0,0.0,0.0,0.0,0.0,0.0,0.0,0.0,0.0,0.0,0.0,0.0,0.0,0.0,0.0,0.0,0.0,0.0,0.0,0.0,0.0,0.0,0.0,0.0,0.0,0.0,0.0,0.0,0.0,0.0,0.0,0.0,0.0,0.0,0.0,0.0,0.0,0.0,0.0,0.0,0.0,0.0,0.0,0.0,0.0,0.0,0.0,0.0,0.0,0.0,0.0,0.0,0.0,0.0,0.0,0.0,0.0,0.0,0.0,0.0,0.0,0.0,0.0,0.0,0.0,0.0,0.0,0.0,0.0,0.0,0.0,0.0,0.0,0.0,0.0,0.0,0.0,0.0,0.0,0.0,0.0,0.0,0.0,0.0,0.0,0.0,0.0,0.0,0.0,0.0,0.0,0.0,0.0,0.0,0.0,0.0,0.0,0.0,0.0,0.0,0.0,0.0,0.0,0.0,0.0,0.0,0.0,0.0,0.0,0.0,0.0,0.0,0.0,0.0,0.0,0.0,0.0,0.0,0.0,0.0,0.0,0.0,0.0,0.0,0.0,0.0,0.0,0.0,0.0,0.0,0.0,0.0,0.0,0.0,0.0,0.0,0.0,0.0,0.0,0.0,0.0,0.0,0.0,0.0,0.0,0.0,0.0,0.0,0.0,0.0,0.0,0.0,0.0,0.0,0.0,0.0,0.0,0.0,0.0,0.0,0.0,0.0,0.0,0.0,0.0,0.0,0.0,0.0,0.0,0.0,0.0,0.0,0.0,0.0,0.0,0.0,0.0,0.0,0.0,0.0,0.0,0.0,0.0,0.0,0.0,0.0,0.0,0.0,0.0,0.0,0.0,0.0,0.0,0.0,0.0,0.0,0.0,0.0,0.0,0.0,0.0,0.0,0.0,0.0,0.0,0.0,0.0,0.0,0.0,0.0,0.0,0.0,0.0,0.0,0.0,0.0,0.0,0.0,0.0,0.0,0.0,0.0,0.0,0.0,0.0,0.0,0.0,0.0,0.0,0.0,0.0,0.0,0.0,0.0,0.0,0.0,0.0,0.0,0.0,0.0,0.0,0.0,0.0,0.0,0.0,0.0,0.0,0.0,0.0,0.0,0.0,0.0,0.0,0.0,0.0,0.0,0.0,0.0,0.0,0.0,0.0,0.0,0.0,0.0,0.0,0.0,0.0,0.0,0.0,0.0,0.0,0.0,0.0,0.0,0.0,0.0,0.0,0.0,0.0,0.0,0.0,0.0,0.0,0.0,0.0,0.0,0.0,0.0,0.0,0.0,0.0,0.0,0.0,0.0,0.0,0.0,0.0,0.0,0.0,0.0,0.0,0.0,0.0,0.0,0.0,0.0,0.0,0.0,0.0,0.0,0.0,0.0,0.0,0.0,0.0,0.0,0.0,0.0,0.0,0.0,0.0,0.0,0.0,0.0,0.0,0.0,0.0,0.0,-4.9802,0.0,0.0,0.0,0.0,0.0,0.0,0.0,0.0,0.0,0.0,0.0,0.0,0.0,0.0,0.0,0.0,0.0,0.0,0.0,0.0,0.0,0.0,0.0,0.0,-3.4823,-3.4823,-3.4823,-3.4823,-3.4823,-3.4823,0.0,0.0,0.0,0.0,0.0,-3.4823,-3.492,-3.5332,-3.6158,-3.7789,-4.016,-4.3037,-4.2399,-4.0507,-3.7458,0.0,0.0,0.0,0.0,0.0,0.0,0.0,0.0,0.0,0.0,0.0,0.0,0.0,0.0,0.0,0.0,0.0,0.0,0.0,0.0,0.0,0.0,0.0,0.0,0.0,0.0,0.0,0.0,0.0,0.0,0.0,0.0,0.0,0.0,0.0,0.0,0.0,0.0,0.0,0.0,0.0,0.0,0.0,0.0,0.0,0.0,0.0,0.0,0.0,0.0,0.0,0.0,0.0,0.0,0.0,0.0,0.0,0.0,0.0,0.0,0.0,0.0,0.0,0.0,0.0,0.0,0.0,0.0,0.0,0.0,0.0,-5.2938,0.0,0.0,0.0,0.0,0.0,0.0,0.0,0.0,0.0,0.0,0.0,0.0,0.0,0.0,0.0,0.0,0.0,0.0,0.0,0.0,0.0,-3.4823,-3.4823,-3.5017,-3.5065,-3.5163,-3.5332,-3.5357,-3.5163,-3.5163,0.0,0.0,-3.4823,-3.4823,-3.4823,-3.5308,-3.6304,-3.7871,-4.0911,-4.4826,-4.9733,-5.0246,-4.8027,-4.3408,-4.1922,0.0,0.0,0.0,0.0,0.0,0.0,0.0,0.0,0.0,0.0,0.0,0.0,0.0,0.0,0.0,0.0,0.0,0.0,0.0,0.0,0.0,0.0,0.0,0.0,0.0,0.0,0.0,0.0,0.0,0.0,0.0,0.0,0.0,0.0,0.0,0.0,0.0,0.0,0.0,0.0,0.0,0.0,0.0,0.0,0.0,0.0,0.0,0.0,0.0,0.0,0.0,0.0,0.0,0.0,0.0,0.0,0.0,0.0,0.0,0.0,0.0,0.0,0.0,-6.5397,-6.603,-6.6307,-6.7381,-6.7984,-6.7914,-6.3074,-5.9812,-5.7786,0.0,0.0,0.0,0.0,0.0,0.0,0.0,0.0,0.0,0.0,0.0,0.0,0.0,0.0,0.0,0.0,0.0,0.0,0.0,0.0,-3.492,-3.5114,-3.5819,-3.6309,-3.6479,-3.7219,-3.7367,-3.6601,-3.6382,-3.5893,-3.5138,-3.492,-3.492,-3.5114,-3.6329,-3.8165,-4.0595,-4.773,-5.2856,-5.5983,-5.709,-5.7064,-5.5865,-4.9027,-4.5099,-4.3575,0.0,0.0,0.0,0.0,0.0,0.0,0.0,0.0,0.0,0.0,0.0,0.0,0.0,0.0,0.0,0.0,0.0,0.0,0.0,0.0,0.0,0.0,0.0,0.0,0.0,0.0,0.0,0.0,0.0,0.0,0.0,0.0,0.0,0.0,0.0,0.0,0.0,0.0,0.0,0.0,0.0,-4.5407,-4.6413,0.0,0.0,0.0,0.0,0.0,0.0,0.0,0.0,0.0,0.0,0.0,0.0,0.0,0.0,-6.549,-6.7921,-6.9596,-7.0552,-7.136,-7.1866,-7.2026,-7.2425,-7.3144,-7.4047,-7.3432,0.0,-6.3499,-6.0616,0.0,0.0,0.0,0.0,0.0,0.0,0.0,0.0,0.0,0.0,0.0,0.0,0.0,0.0,0.0,0.0,0.0,0.0,0.0,0.0,0.0,-3.7462,-3.8383,-3.9796,-3.9822,-3.9594,-3.9213,-3.7965,-3.6801,-3.599,-3.5187,-3.5163,-3.5966,-3.788,-4.2178,-4.896,-5.5318,-5.9996,-6.2906,-6.3719,-6.408,-6.3942,-5.9977,-5.544,-5.052,-4.8413,0.0,0.0,0.0,0.0,0.0,0.0,0.0,0.0,0.0,0.0,0.0,0.0,0.0,0.0,0.0,0.0,0.0,0.0,0.0,0.0,0.0,0.0,0.0,0.0,0.0,0.0,0.0,0.0,0.0,0.0,0.0,0.0,0.0,0.0,0.0,0.0,0.0,0.0,0.0,-4.6248,-4.9274,-5.0961,-4.9289,-4.757,0.0,0.0,0.0,0.0,0.0,0.0,0.0,0.0,0.0,-6.2227,-6.6235,-6.9575,-7.2225,-7.4418,-7.5972,-7.6881,-7.7697,-7.8147,-7.8219,-7.8331,-7.866,-7.9139,-7.9164,-7.6844,-7.2648,-6.745,-6.3002,-5.906,0.0,0.0,0.0,0.0,0.0,-5.7685,0.0,0.0,0.0,0.0,0.0,0.0,0.0,0.0,0.0,0.0,0.0,0.0,-3.8681,-4.0063,-4.1849,-4.4091,-4.399,-4.352,-4.2965,-4.0456,-3.8414,-3.7022,-3.577,-3.5722,-3.707,-4.1612,-4.8269,-5.7181,-6.2357,-6.633,-6.9124,-6.9729,-7.0096,-7.0248,-6.9329,-6.4789,-5.7527,-5.4792,-5.1509,-4.7775,0.0,0.0,0.0,0.0,0.0,0.0,0.0,0.0,0.0,0.0,0.0,0.0,0.0,0.0,0.0,0.0,0.0,0.0,0.0,0.0,0.0,0.0,0.0,0.0,0.0,0.0,0.0,0.0,0.0,0.0,0.0,0.0,0.0,0.0,0.0,0.0,0.0,-4.9655,-5.2502,-5.5313,-5.3789,-5.2442,0.0,0.0,0.0,0.0,0.0,0.0,-5.9513,-6.3651,-6.7148,-6.9709,-7.3253,-7.6148,-7.822,-7.9739,-8.0959,-8.1889,-8.2562,-8.2851,-8.2878,-8.2883,-8.2846,-8.2851,-8.274,-8.1812,-7.9968,-7.3828,-6.9177,-6.5558,-6.1543,-5.9816,-5.9435,-5.8795,-6.0615,-6.3574,0.0,0.0,0.0,0.0,0.0,0.0,0.0,0.0,0.0,0.0,0.0,-3.8485,-4.0711,-4.4211,-4.7272,-4.9395,-5.0406,-5.0114,-4.7897,-4.4547,-4.1366,-3.8528,-3.6621,-3.6547,-3.8717,-4.8663,-5.6865,-6.3065,-6.8134,-7.1737,-7.3979,-7.4843,-7.5276,-7.5276,-7.4566,-7.0209,-6.3253,-6.1055,-5.7183,-5.2245,-4.8453,0.0,0.0,0.0,0.0,0.0,0.0,0.0,0.0,0.0,0.0,0.0,0.0,0.0,0.0,0.0,0.0,0.0,0.0,0.0,0.0,0.0,0.0,0.0,0.0,0.0,0.0,0.0,0.0,0.0,0.0,0.0,0.0,0.0,0.0,0.0,0.0,0.0,0.0,-5.8192,-5.6537,0.0,0.0,0.0,0.0,-5.8555,-6.2807,-6.588,-6.7192,-7.1398,-7.4588,-7.6353,-7.8843,-8.107,-8.2925,-8.3116,-8.3699,-8.461,-8.4629,-8.4668,-8.4687,-8.4674,-8.4629,-8.4568,-8.4493,-8.3914,-8.272,-7.8974,-7.5225,-7.1529,-6.9284,-6.7786,-6.6866,-6.6078,-6.7135,-6.9132,0.0,0.0,0.0,0.0,0.0,-3.4823,-3.4823,-3.492,-3.5551,-3.7045,-3.88,-4.1523,-4.5696,-4.8963,-5.2178,-5.5604,-5.5096,-5.3588,-5.1638,-4.6625,-4.2525,-3.9757,-3.8252,-4.0807,-4.7928,-5.5888,-6.2837,-6.8471,-7.2577,-7.5295,-7.6695,-7.7063,-7.7164,-7.7164,-7.6893,-7.5056,-7.1937,-6.7142,-6.2885,-5.8836,-5.4022,-4.9119,0.0,0.0,0.0,0.0,0.0,0.0,0.0,0.0,0.0,0.0,0.0,0.0,0.0,0.0,0.0,0.0,0.0,0.0,0.0,0.0,0.0,0.0,0.0,0.0,0.0,0.0,0.0,0.0,0.0,0.0,0.0,0.0,0.0,0.0,0.0,0.0,0.0,-6.3036,-6.3178,0.0,-6.4678,-6.4766,-6.5349,-6.6882,-7.0379,-7.2993,-7.414,-7.7423,-7.9816,-8.1,-8.2442,-8.4037,-8.5804,-8.5897,-8.6646,-8.8082,-8.8096,-8.8069,-8.8084,-8.8071,-8.7721,-8.7144,-8.7074,-8.6216,-8.4764,-8.347,-8.0518,-7.6581,-7.409,-7.3238,-7.3312,-7.2294,-7.2963,-7.4383,0.0,0.0,0.0,0.0,-3.4823,-3.4823,-3.4823,-3.5114,-3.6086,-3.8133,-4.0781,-4.4409,-4.9807,-5.3451,-5.7184,-6.1142,-5.974,-5.7613,-5.5276,-4.9267,-4.4637,-4.1849,-4.2476,-4.694,-5.534,-6.1959,-6.788,-7.2945,-7.6139,-7.8049,-7.8754,-7.8991,-7.8957,-7.872,-7.8483,-7.8111,-7.7367,-7.2747,-6.8559,-6.4387,-5.9553,-5.4482,-4.9453,0.0,0.0,0.0,0.0,0.0,0.0,0.0,0.0,0.0,0.0,0.0,0.0,0.0,0.0,0.0,0.0,0.0,0.0,0.0,0.0,0.0,0.0,0.0,0.0,0.0,0.0,0.0,0.0,0.0,0.0,0.0,0.0,0.0,0.0,0.0,-6.3689,-6.7645,-6.8678,-6.9699,-7.1226,-7.1695,-7.2476,-7.387,-7.6798,-7.8865,-7.9636,-8.203,-8.375,-8.4606,-8.5506,-8.6663,-8.8079,-8.8143,-8.8774,-8.9914,-8.9886,-8.9918,-8.9911,-8.9896,-8.9339,-8.8467,-8.839,-8.7543,-8.6184,-8.5836,-8.4046,-8.1213,-7.8572,-7.7702,-7.7735,-7.663,-7.6792,-7.742,0.0,0.0,0.0,-3.4823,-3.4823,-3.4823,-3.4823,-3.5235,-3.64,-3.8743,-4.2628,-4.7247,-5.2632,-5.7798,-6.2181,-6.5575,-6.446,-6.1995,-5.8595,-5.2497,-4.7801,-4.5176,-4.9452,-5.463,-6.0469,-6.6839,-7.2085,-7.6206,-7.896,-8.0276,-8.0276,-8.0987,-8.0953,-8.0242,-7.9498,-7.9194,-7.9092,-7.7604,-7.3917,-6.8851,-6.495,-6.0141,-5.4878,0.0,0.0,0.0,0.0,0.0,0.0,0.0,0.0,0.0,0.0,0.0,0.0,0.0,0.0,0.0,0.0,0.0,0.0,0.0,0.0,0.0,0.0,0.0,0.0,0.0,0.0,0.0,0.0,0.0,0.0,0.0,0.0,0.0,-6.0719,-6.3294,-6.6992,-7.1814,-7.2658,-7.3714,-7.5914,-7.6944,-7.8004,-7.9269,-8.1843,-8.3438,-8.3507,-8.5143,-8.6468,-8.7248,-8.8105,-8.8976,-8.9949,-8.991,-8.9887,-8.993,-8.99,-8.9882,-8.9886,-8.9816,-8.9299,-8.8398,-8.8339,-8.7817,-8.6943,-8.6088,-8.5698,-8.5385,-8.2862,-8.1243,-8.0202,-7.9158,-7.8584,-7.8194,0.0,0.0,-3.4823,-3.4823,-3.4823,-3.4823,-3.4823,-3.5722,-3.7711,-4.0989,-4.5641,-5.0803,-5.6914,-6.163,-6.5374,-6.776,-6.5204,-6.1751,-5.7693,-5.2294,-4.9348,-4.9781,-5.47,-6.0284,-6.6635,-7.1945,-7.6071,-7.8758,-8.0782,-8.1799,-8.1799,-8.2002,-8.2002,-8.1765,-8.1021,-8.0682,-8.0581,-7.9126,-7.7371,-7.5089,-7.0991,-6.6344,-6.1562,0.0,0.0,0.0,0.0,0.0,0.0,0.0,0.0,0.0,0.0,0.0,0.0,0.0,0.0,0.0,0.0,0.0,0.0,0.0,0.0,0.0,0.0,0.0,0.0,0.0,0.0,0.0,0.0,0.0,0.0,0.0,-6.1886,-6.6052,-6.6142,-6.9207,-7.2849,-7.6608,-7.778,-7.9089,-8.1078,-8.1519,-8.2092,-8.3102,-8.4479,-8.552,-8.6118,-8.7209,-8.8183,-8.9079,-8.9313,-8.9872,-9.0768,-9.0183,-9.0208,-9.0828,-9.0195,-8.9908,-8.9913,-8.9844,-8.9285,-8.839,-8.8339,-8.7817,-8.6982,-8.6749,-8.6571,-8.6289,-8.4266,-8.3192,-8.267,-8.1516,-8.0423,-7.9512,0.0,-3.4823,-3.4823,-3.4823,-3.4823,-3.4823,-3.4823,-3.6038,-3.8333,-4.2071,-4.7287,-5.2938,-5.9002,-6.3667,-6.6784,-6.8134,-6.528,-6.1569,-5.7318,-5.3524,-5.2762,-5.534,-6.1006,-6.6588,-7.2175,-7.6233,-7.919,-8.0917,-8.2202,-8.2712,-8.2408,-8.2712,-8.2712,-8.2408,-8.1934,-8.1562,-8.1224,-8.0378,-7.953,-7.8443,-7.6205,-7.2321,-6.7578,-6.4674,-6.1371,-5.8001,-5.6198,-5.3813,-5.1221,-4.9998,0.0,0.0,0.0,0.0,0.0,0.0,0.0,0.0,0.0,0.0,0.0,0.0,0.0,0.0,0.0,0.0,0.0,0.0,0.0,0.0,0.0,0.0,0.0,0.0,-6.6469,-7.1254,-7.3055,-7.5195,-7.7486,-7.9864,-8.1349,-8.2608,-8.3704,-8.4193,-8.4819,-8.5689,-8.6546,-8.7404,-8.8222,-8.8767,-8.943,-9.0326,-9.034,-9.0794,-9.1664,-9.1213,-9.1045,-9.1205,-9.0695,-9.027,-8.9905,-8.9807,-8.9255,0.0,-8.8341,-8.7837,-8.6982,-8.6961,-8.6899,0.0,0.0,0.0,0.0,0.0,-8.1575,-8.0524,0.0,-3.4823,-3.4823,-3.4823,-3.4823,-3.4823,-3.4823,-3.616,-3.8528,-4.2245,-4.7841,-5.3537,-5.9166,-6.3777,-6.6501,-6.6752,-6.4265,-6.0954,-5.7064,-5.5837,-5.7183,-6.1628,-6.7722,-7.2864,-7.6971,-7.9797,-8.1659,-8.2543,-8.3253,-8.3287,-8.2678,-8.3321,-8.3287,-8.2644,-8.2577,-8.2171,-8.1528,-8.146,-8.0817,-7.9726,-8.0207,-7.7477,-7.2892,-7.0772,-6.8402,-6.6045,-6.5026,-6.2522,-5.9333,-5.7299,0.0,0.0,0.0,0.0,0.0,0.0,0.0,0.0,0.0,0.0,0.0,0.0,0.0,0.0,0.0,0.0,0.0,0.0,0.0,0.0,0.0,0.0,0.0,0.0,-7.053,-7.5764,-7.9896,-8.0661,-8.1131,-8.2184,-8.3693,-8.4676,-8.4793,-8.5687,-8.6585,-8.7287,-8.8144,-8.8962,-8.9781,0.0,0.0,0.0,0.0,-9.1637,-9.2479,-9.2404,-9.1984,-9.1203,-9.1106,-9.0594,-8.9754,-8.9596,-8.9084,-8.8256,-8.8187,-8.772,-8.6982,-8.692,-8.6854,-8.6684,-8.5797,-8.5236,-8.4747,-8.341,-8.2288,0.0,0.0,-3.4823,-3.4823,-3.4823,-3.4823,-3.4823,-3.4823,-3.616,-3.8456,-4.197,-4.6974,-5.2006,-5.672,-6.0591,-6.26,-6.1989,-6.0053,-5.8092,-5.6636,-5.7983,-6.1645,-6.8216,-7.2864,-7.6768,-7.9965,-8.203,-8.3152,-8.3287,-8.4031,-8.4336,-8.42,-8.4336,-8.4336,-8.4167,-8.3558,-8.3219,-8.305,-8.2441,-8.1766,-8.1222,-8.1166,-7.9658,-7.7313,-7.6068,-7.4495,-7.2788,-7.1325,-6.8812,-6.6117,-6.5312,-6.2753,-5.9331,-5.6693,-5.3267,0.0,0.0,0.0,0.0,0.0,0.0,0.0,0.0,0.0,0.0,0.0,0.0,0.0,0.0,0.0,0.0,0.0,0.0,0.0,-6.9702,-7.4029,-7.7882,-8.1116,-8.2747,-8.3912,-8.4845,-8.5326,-8.5805,-8.6544,-8.7479,-8.8066,-8.8222,-8.9079,-8.9625,-8.9781,-9.0482,0.0,-9.1106,-9.1781,-9.2256,-9.2489,-9.1818,-9.1367,-9.1184,0.0,0.0,-8.8857,-8.871,-8.8195,-8.7361,-8.7254,-8.7137,-8.6982,-8.692,-8.6698,-8.6366,-8.6092,-8.5301,-8.4328,-8.3898,-8.3074,-8.2102,0.0,-3.4823,-3.4823,-3.4823,-3.4823,-3.4823,-3.4823,-3.6038,-3.8133,-4.135,-4.5541,-4.9753,-5.3583,-5.6949,-5.8319,-5.707,-5.5927,-5.6281,-5.8573,-6.1636,-6.632,-7.3131,-7.7134,-8.02,-8.2165,-8.3385,-8.4065,-8.4065,-8.4437,-8.464,-8.464,-8.464,-8.464,-8.4606,-8.4234,-8.3862,-8.349,-8.3118,-8.2513,-8.1964,-8.2046,-8.1643,-8.084,-7.9831,-7.869,-7.7476,-7.6965,-7.4681,-7.1865,-7.1,-6.8553,-6.5452,-6.3273,-5.961,-5.5458,0.0,0.0,0.0,0.0,0.0,0.0,0.0,0.0,0.0,0.0,0.0,0.0,0.0,0.0,-5.7052,-6.0575,0.0,-6.9242,-7.315,-7.7047,-8.0368,-8.2806,-8.4262,-8.5195,-8.5661,-8.6143,-8.6778,-8.7673,-8.8219,-8.8845,-8.9742,-9.0209,-9.0638,-9.1066,-9.1495,-9.1743,-9.1742,-9.221,-9.2471,-9.2512,-9.2069,-9.1626,-9.121,-9.0724,-9.0015,-8.9118,-8.8655,-8.8123,-8.7677,-8.7215,-8.6982,-8.6982,-8.6854,-8.6532,-8.6114,-8.5988,-8.5435,-8.4704,-8.4572,-8.3867,-8.293,0.0,-3.4823,-3.4823,-3.4823,-3.4823,-3.4823,-3.4823,-3.577,-3.744,-4.005,-4.3417,-4.66,-4.9524,-5.221,-5.3337,-5.2218,-5.2281,-5.4845,-6.1029,-6.5274,-7.0474,-7.7104,-8.0502,-8.2739,-8.3693,-8.4302,-8.464,-8.464,-8.464,-8.464,-8.464,-8.464,-8.464,-8.464,-8.464,-8.4302,-8.3727,-8.3727,-8.326,-8.2508,-8.2927,-8.3172,-8.3332,-8.243,-8.1461,-8.0601,-8.0802,-7.8675,-7.5621,-7.4476,-7.2406,-6.999,-6.8281,-6.4938,-6.0998,-5.7767,-5.3824,0.0,0.0,0.0,0.0,0.0,0.0,0.0,0.0,-5.1832,-5.4106,-5.7268,-6.0356,-6.3379,-6.6247,-7.0118,-7.3691,-7.6398,-7.9579,-8.2435,-8.4359,-8.5272,-8.5777,-8.5933,-8.6648,-8.7439,-8.8334,-8.8608,-8.9352,-9.0755,-9.1144,-9.1495,-9.1885,-9.2235,-9.2327,-9.2171,-9.2378,-9.2481,-9.2482,-9.2496,-9.2131,-9.1454,-9.1403,-9.0846,-8.9917,-8.9207,-8.8784,-8.8497,-8.7623,-8.7137,-8.6941,-8.6761,-8.6394,-8.595,-8.5813,-8.5513,-8.5228,-8.5094,-8.4499,-8.3839,0.0,-3.4823,-3.4823,-3.4823,-3.4823,-3.4823,-3.4823,-3.5381,-3.6306,-3.7891,-3.9814,-4.1762,-4.3533,-4.5211,-4.6686,-4.797,-4.9523,-5.3882,-6.2236,-6.717,-7.2958,-8.0066,-8.2267,-8.3727,-8.4471,-8.4573,-8.464,-8.464,-8.464,-8.464,-8.464,-8.464,-8.464,-8.464,-8.464,-8.4573,-8.4505,-8.4505,-8.4313,-8.4011,-8.3792,-8.3936,-8.414,-8.3448,-8.2718,-8.1834,-8.0411,-7.8075,-7.56,-7.4744,-7.3543,-7.2157,-7.0239,-6.8141,-6.5607,-6.1322,-5.7785,-5.5017,-5.415,-5.4076,-5.4244,-5.408,-5.4617,-5.5424,0.0,-5.8324,-6.0683,-6.3215,-6.6396,-6.9507,-7.2008,-7.4618,-7.741,-8.037,-8.142,-8.2728,-8.5195,-8.5622,-8.5972,-8.6749,-8.6998,-8.7439,-8.8334,-8.9153,-8.9742,-8.9936,-9.1378,-9.1612,-9.017,-9.1573,-9.2068,-9.1348,-9.2078,-9.2498,-9.25,-9.2489,-9.245,-9.2334,-9.23,-9.1743,-9.0852,-9.0725,-9.0262,-8.943,-8.8517,-8.7658,-8.6809,-8.6687,-8.6307,-8.5881,-8.5628,-8.5349,-8.5051,-8.5006,-8.4878,-8.4635,0.0,0.0,-3.4823,-3.4823,-3.4823,-3.4823,-3.4823,-3.5114,-3.5794,-3.685,-3.7884,-3.9,-4.0192,-4.0848,-4.2137,-4.4386,-4.7278,-5.2612,-6.144,-6.7593,-7.3886,-8.0677,-8.3013,-8.4302,-8.4606,-8.464,-8.464,-8.464,-8.464,-8.464,-8.464,-8.464,-8.464,-8.464,-8.464,-8.464,-8.464,-8.464,-8.4517,-8.425,-8.3964,-8.3797,-8.3454,-8.263,-8.0647,-7.8154,-7.8008,-7.5529,0.0,-7.129,-7.0078,-6.8903,-6.8537,-6.7323,-6.5405,-6.229,-5.9742,-5.7814,-5.7381,-5.8156,-5.9183,-5.9661,-6.0405,-6.1368,-6.275,-6.4301,-6.6112,-6.8556,-7.111,-7.3416,-7.5236,-7.7309,-7.9389,0.0,-8.2527,-8.3873,-8.5467,-8.57,-8.5855,-8.6205,-8.6298,-8.6894,-8.8256,-8.927,-8.982,-8.982,-9.1417,-9.1846,-9.0638,-9.1729,-9.2263,-9.1983,-9.2323,-9.2514,-9.25,-9.2507,-9.249,-9.249,-9.2444,-9.2182,-9.1747,-9.1231,-9.0206,-8.8828,-8.8458,-8.7735,-8.6785,-8.6662,-8.6277,-8.5775,-8.5552,-8.5266,-8.4954,-8.4954,-8.4909,-8.4863,0.0,0.0,0.0,-3.4823,-3.4823,-3.4823,-3.4823,-3.492,-3.5357,-3.5942,-3.6356,-3.6796,-3.7415,-3.7465,-3.8554,-4.1205,-4.4892,-5.0759,-5.9402,-6.6281,-7.3083,-7.9727,-8.2499,-8.4094,-8.4606,-8.464,-8.464,-8.464,-8.464,-8.464,-8.464,-8.464,-8.464,-8.464,-8.464,-8.464,-8.464,-8.464,-8.4517,-8.425,-8.3964,-8.339,-8.2524,-8.0986,-7.767,-7.3856,-7.4205,-7.1364,-6.7199,-6.5748,-6.4619,-6.4038,-6.416,-6.4005,-6.3214,-6.0859,-5.9734,-5.9322,-6.0156,-6.1741,-6.3363,-6.4457,-6.5515,-6.6635,-6.8144,-6.9439,-7.0824,-7.2573,-7.4444,-7.5932,-7.6675,-7.8391,-8.0165,-8.1556,-8.3158,-8.4665,-8.5894,-8.5855,-8.57,-8.57,-8.5559,-8.6038,-8.7556,-8.8764,-8.943,-8.943,-9.1066,-9.1651,-9.0794,-9.1821,-9.2432,-9.2479,-9.251,-9.2502,-9.25,-9.2514,-9.2479,-9.2479,-9.2419,-9.2362,-9.2293,-9.162,-9.0343,-8.8613,-8.8593,-8.7908,-8.6761,-8.6571,-8.6177,-8.5665,-8.5513,-8.5224,-8.4901,-8.4901,-8.4901,-8.4901,0.0,0.0,0.0,0.0,-3.4823,-3.4823,-3.4823,-3.4823,-3.4847,-3.4847,-3.4847,-3.4847,-3.4871,-3.4871,-3.5941,-3.838,-4.2332,-4.8069,-5.5983,-6.3178,-7.017,-7.7395,-8.0498,-8.2908,-8.4606,-8.464,-8.464,-8.464,-8.464,-8.464,-8.464,-8.464,-8.464,-8.464,-8.464,-8.464,-8.464,-8.464,-8.4517,-8.425,-8.3964,-8.2984,-8.1418,-7.8476,-7.4356,-6.995,-6.9033,-6.5413,-6.0703,-5.7898,-5.7604,-5.8116,-5.6863,-5.802,-5.9343,-5.6537,-5.7256,-5.9678,-6.2801,-6.5032,-6.6758,-6.8032,-6.9625,-7.1141,-7.2013,-7.3528,-7.4702,-7.4819,-7.5986,-7.6861,-7.6232,-7.7722,-7.9689,-8.1831,-8.3231,-8.477,-8.669,-8.6243,-8.57,-8.57,-8.5015,-8.4871,0.0,-8.7479,-8.8534,-8.8534,-9.017,-9.0755,-8.9897,-9.1483,-9.2444,-9.2495,-9.2514,-9.2492,-9.2494,-9.2498,-9.2456,-9.2405,-9.2405,-9.2362,-9.2293,-9.219,-9.1199,-8.9468,-8.9404,-8.8344,-8.6674,-8.6394,-8.6017,-8.559,-8.5355,-8.5138,-8.4901,-8.4901,-8.4901,-8.4901,0.0,0.0,0.0,0.0,0.0,-3.4823,-3.4823,-3.4823,-3.4823,-3.4823,-3.4823,0.0,0.0,0.0,0.0,0.0,-4.0322,-4.4984,-5.1508,-5.8328,-6.4884,-7.0882,-7.4384,-7.6819,-7.8056,-7.8551,-7.8923,-7.9388,-8.0493,-8.155,-8.2623,-8.3341,-8.392,-8.464,-8.464,-8.464,-8.4606,-8.3886,-8.3317,-8.2647,-8.0544,-7.8559,-7.6256,-7.2335,-6.7468,-6.2093,0.0,-5.5717,-5.4483,-5.1874,-5.0787,-5.0456,-5.0667,-5.2498,-5.472,-5.61,-5.7582,-5.9622,-6.3653,-6.6341,-6.8703,-7.1247,-7.2732,-7.3985,-7.5387,-7.5728,-7.5649,-7.5485,-7.4746,-7.4048,-7.3835,-7.4926,-7.6618,-7.8859,-8.1407,-8.3808,-8.5874,-8.5389,-8.4864,-8.4883,-8.4176,0.0,0.0,0.0,0.0,-8.7637,-8.9781,-9.0716,-8.9858,-9.1444,-9.2444,-9.2495,-9.2507,-9.25,-9.2482,-9.2461,-9.2419,-9.2405,-9.2338,-9.2293,-9.2243,-9.2228,-9.1549,-9.0323,-8.9676,-8.8693,-8.7526,-8.6626,-8.6017,-8.559,-8.5393,-8.5138,-8.4901,-8.4901,-8.4901,-8.4901,0.0,0.0,0.0,0.0,0.0,0.0,0.0,0.0,0.0,0.0,0.0,0.0,0.0,0.0,0.0,0.0,0.0,-4.2107,-4.6923,-5.2778,-5.8589,-6.4194,-6.7536,-7.0151,-7.209,-7.2573,-7.3177,-7.3868,-7.5288,-7.6702,-7.8139,-7.9189,-8.0135,-8.1116,-8.1116,-8.1116,-8.1049,-8.0068,-7.903,-7.797,-7.5404,-7.2843,-7.0054,-6.5897,-6.0913,0.0,-4.9922,-4.7615,-4.6938,-4.5656,-4.527,-4.5452,-4.6292,-4.8566,-5.159,-5.5402,-5.7805,-6.0276,-6.4908,-6.8193,-7.0886,-7.3446,-7.4932,-7.6069,-7.7169,-7.6979,-7.6213,-7.4802,-7.2923,-7.1193,-7.0016,-7.0623,-7.2237,-7.498,-7.8382,-8.1687,-8.4699,-8.4647,-8.4476,-8.4902,-8.4215,-8.407,0.0,0.0,0.0,-8.717,-8.9313,-9.0404,-8.982,-9.1496,-9.2468,-9.252,-9.2492,-9.2489,-9.2522,-9.2429,-9.2419,-9.238,-9.2323,-9.226,-9.2187,-9.221,-9.1705,-9.075,-8.9771,-8.8825,-8.7823,-8.6654,-8.5915,-8.5552,-8.5311,-8.5051,-8.4901,-8.4901,-8.4901,-8.4901,0.0,0.0,0.0,0.0,0.0,0.0,0.0,0.0,0.0,0.0,0.0,0.0,0.0,0.0,0.0,0.0,0.0,0.0,-4.2419,-4.6768,-5.1715,-5.745,-6.0045,-6.2955,-6.6385,-6.648,-6.6965,-6.7937,-6.8913,-7.0064,-7.1467,-7.2456,-7.348,-7.4475,-7.4475,-7.4475,-7.441,-7.3274,-7.2078,-7.0623,-6.8839,-6.6252,-6.294,-5.894,-5.4694,-5.0147,-4.5272,-4.1302,-3.8672,-3.9616,-4.1287,-4.3148,-4.3885,-4.6549,-5.0268,-5.4675,-5.8118,-6.1671,-6.6733,-7.0544,-7.3364,-7.4774,-7.6259,-7.7396,-7.7396,-7.724,-7.6198,-7.2923,-7.0605,-6.8201,-6.4901,-6.5082,-6.6899,-7.0339,-7.4341,-7.8627,-8.3231,-8.4064,-8.4587,0.0,0.0,0.0,0.0,0.0,0.0,-8.7131,0.0,-8.982,-8.9781,-9.1496,-9.251,-9.2512,-9.25,-9.2507,-9.2495,-9.2444,-9.238,-9.2391,-9.2347,-9.226,-9.2226,-9.221,-9.1685,-9.0828,-8.9803,-8.879,-8.7782,-8.6473,-8.5779,-8.5471,-8.5138,-8.4954,-8.4901,-8.4901,-8.4901,-8.4901,0.0,0.0,0.0,0.0,0.0,0.0,0.0,0.0,0.0,0.0,0.0,0.0,0.0,0.0,0.0,0.0,0.0,0.0,-3.9312,-4.2272,-4.5485,-4.8742,-5.0783,-5.2688,-5.4316,-5.4814,-5.5689,-5.6974,-5.9121,-6.1753,-6.4689,-6.6274,-6.8071,-6.9849,-6.9849,-6.9849,-6.9785,-6.7837,-6.6336,-6.4737,-6.0966,-5.794,-5.5215,-5.111,-4.7559,-4.4453,-4.1108,-3.8579,-3.6973,-3.8788,-4.1828,-4.5229,-4.7973,-5.034,-5.3083,-5.8174,-6.1695,-6.4997,-6.9732,-7.2902,-7.5336,-7.7198,-7.7467,-7.7187,-7.7017,-7.5283,-7.2763,-6.9252,-6.5876,-6.2534,-5.9159,-6.0043,-6.22,-6.5154,-7.0818,-7.6537,-8.1165,-8.3251,-8.465,-8.5693,-8.5058,-8.4932,-8.5871,-8.6001,0.0,0.0,-8.8806,-8.9833,-8.9859,-9.1547,-9.2481,-9.2489,-9.2496,-9.2489,-9.2495,-9.2419,-9.2377,-9.2308,-9.226,-9.2208,-9.221,-9.2151,-9.1972,-9.1656,-9.0623,-8.9615,-8.8498,-8.7257,-8.6164,-8.5311,-8.5056,-8.4954,-8.4901,-8.4901,-8.4901,-8.4901,0.0,0.0,0.0,0.0,0.0,0.0,0.0,0.0,0.0,0.0,0.0,0.0,0.0,0.0,0.0,0.0,0.0,0.0,0.0,-3.8741,-4.0637,-4.287,-4.4044,-4.5282,-4.6613,-4.6971,-4.7723,-4.8958,-5.0853,-5.3058,-5.5529,-5.7226,-5.8894,-6.0455,-6.0758,-6.0772,-6.0711,-5.9009,-5.7665,0.0,0.0,-5.0578,-4.8597,-4.5391,-4.277,-4.0537,-3.854,-3.7862,-3.8364,-4.1125,-4.4792,-4.879,-5.2108,-5.5114,-5.8209,-6.2293,-6.5565,-6.856,-7.242,-7.5136,-7.7017,-7.7884,-7.7571,-7.667,-7.5192,-7.2694,-6.954,-6.5529,-6.1483,-5.7751,-5.4737,-5.5179,-5.714,-6.038,-6.6463,-7.2623,-7.8064,-8.1462,-8.3979,-8.5559,-8.5759,-8.596,-8.6468,-8.6546,-8.6858,0.0,-8.904,-8.9833,-8.991,-9.1571,-9.2498,-9.2496,-9.2517,-9.2481,-9.2471,-9.2405,-9.2362,-9.2293,-9.2243,-9.219,-9.2191,-9.2131,-9.2066,-9.1944,0.0,-9.0091,-8.9324,-8.7996,-8.7081,-8.6375,-8.5735,-8.544,-8.5393,-8.5052,-8.4901,-8.4854,0.0,0.0,0.0,0.0,0.0,0.0,0.0,0.0,0.0,0.0,-3.4823,-3.4823,0.0,0.0,0.0,0.0,0.0,0.0,0.0,0.0,-3.6998,-3.8715,-3.8965,-3.9822,-4.1354,-4.138,-4.1869,-4.2778,-4.3717,-4.4819,-4.6161,-4.757,-4.877,-4.9699,-5.0258,-5.0457,-5.0485,-4.947,-4.8596,-4.7593,-4.5714,-4.4362,-4.3204,0.0,-3.9494,-3.8113,-3.6917,-3.8108,-4.0803,-4.4407,-4.8577,-5.2733,-5.6139,-6.0032,-6.3925,-6.6702,-6.9377,-7.2039,-7.4847,-7.7061,-7.8441,-7.7695,-7.7061,-7.5756,-7.2603,-6.9503,-6.6041,-6.1387,-5.7044,-5.3439,-5.1124,-5.101,-5.2467,-5.6398,-6.2081,-6.8277,-7.4749,-7.9325,-8.2922,-8.5369,-8.6599,-8.7206,-8.7209,-8.7287,-8.7676,-8.8456,-8.9391,-9.0002,-9.0066,-9.1632,-9.2496,-9.2498,-9.2475,-9.2456,-9.2391,-9.2391,-9.2362,-9.2276,-9.2243,-9.219,-9.2171,-9.2131,-9.2066,-9.1921,0.0,0.0,-8.9954,-8.873,-8.811,-8.7743,-8.6708,-8.6265,-8.6189,-8.5507,-8.5242,-8.5157,0.0,0.0,0.0,0.0,0.0,0.0,0.0,0.0,0.0,0.0,-3.4823,-3.4823,0.0,0.0,0.0,0.0,0.0,0.0,0.0,0.0,0.0,-3.56,-3.5624,-3.5795,-3.6064,-3.6064,-3.653,-3.7394,-3.8216,-3.9576,-4.149,-4.2474,-4.3755,-4.5261,-4.5368,-4.5582,-4.6008,-4.4807,-4.4089,-4.3558,-4.16,-4.0508,-3.9907,-3.8404,0.0,0.0,-3.5547,-3.7161,-4.0266,-4.3526,-4.9133,-5.5418,-5.9817,-6.338,-6.6708,-7.0071,-7.2333,-7.4301,-7.689,-7.8602,-7.9437,-7.8609,-7.6806,-7.4151,-7.0036,-6.5322,-6.0473,-5.5723,-5.1849,-4.8827,-4.7308,-4.852,-5.0936,-5.4563,-6.0225,-6.6549,-7.3388,-7.8122,-8.203,-8.5152,-8.6505,-8.7195,-8.7209,-8.7832,0.0,0.0,0.0,-9.0885,-9.0975,-9.1921,-9.2499,-9.252,-9.2429,-9.2393,-9.2391,-9.2391,-9.2347,-9.2243,-9.2226,-9.2171,-9.2131,-9.2066,-9.1936,-9.1812,0.0,0.0,-8.9648,-8.9144,-8.839,-8.7521,-8.726,-8.7175,-8.7175,-8.7023,-8.6852,-8.6604,0.0,0.0,0.0,0.0,0.0,0.0,0.0,-3.4823,-3.4823,-3.4823,-3.4823,-3.4823,-3.4823,-3.4823,-3.4823,0.0,0.0,0.0,0.0,0.0,0.0,0.0,-3.4823,-3.4823,-3.4823,-3.4823,-3.4944,-3.5404,0.0,-3.653,-3.7419,-3.8166,-3.8893,-3.9701,-4.0004,-4.0256,-4.0404,-3.984,-3.9531,-3.9377,-3.8362,-3.7855,-3.7726,-3.7091,0.0,0.0,-3.5112,-3.6721,-3.9695,-4.2813,-4.7584,-5.325,-5.9131,-6.3574,-6.7327,-7.0464,-7.2716,-7.4852,-7.7389,-7.8988,-7.9594,-7.8306,-7.5689,-7.2285,-6.7814,-6.2032,-5.6576,-5.2627,-4.8681,-4.5923,-4.5835,-4.6653,-4.8403,-5.1527,-5.6755,-6.2557,-6.8814,-7.4711,-7.9792,-8.3522,-8.5849,-8.7209,-8.7209,-8.7988,-8.8689,0.0,0.0,-9.1119,-9.1209,-9.2013,-9.2482,-9.2507,-9.2432,-9.2405,-9.2391,-9.2391,-9.2347,-9.2187,-9.2187,-9.2171,-9.211,-9.2044,-9.1912,-9.1759,-9.1492,0.0,-9.0187,-8.9863,-8.9375,-8.8767,-8.8246,-8.8009,-8.7971,-8.742,-8.7133,-8.6908,0.0,0.0,0.0,0.0,0.0,0.0,-3.4823,-3.4823,-3.4823,-3.4823,-3.4823,-3.4823,-3.4823,-3.4823,-3.4823,0.0,0.0,0.0,0.0,0.0,0.0,0.0,0.0,0.0,-3.4823,0.0,0.0,-3.4823,-3.4823,0.0,0.0,0.0,0.0,0.0,-3.605,-3.629,-3.6411,-3.6411,-3.6411,0.0,0.0,-3.6411,0.0,0.0,0.0,0.0,0.0,-3.643,-3.8923,-4.1666,-4.5157,-4.9307,-5.5048,-6.0628,-6.5793,-6.8964,-7.1646,-7.4232,-7.7179,-7.8905,-7.9481,-7.7813,-7.4694,-7.0768,-6.5953,-5.9468,-5.3599,-5.0229,-4.6242,-4.3694,-4.4861,-4.5295,-4.6341,-4.9056,-5.3584,-5.8765,-6.4473,-7.1206,-7.7211,-8.1685,-8.5036,-8.7092,-8.7443,-8.8261,0.0,0.0,0.0,0.0,-9.1505,-9.2148,-9.2507,-9.2495,-9.2419,-9.2391,-9.2391,-9.2586,-9.262,-9.2498,-9.2654,-9.2638,-9.236,-9.2254,-9.2018,-9.1705,-9.14,0.0,0.0,-9.0389,-9.0205,-8.9897,-8.9156,-8.8767,-8.8501,-8.7674,-8.7135,-8.6703,0.0,0.0,0.0,0.0,0.0,0.0,-3.4823,-3.4823,-3.4823,-3.4823,-3.4823,-3.4823,-3.4823,-3.4823,-3.4823,0.0,0.0,0.0,0.0,0.0,0.0,0.0,0.0,0.0,0.0,0.0,0.0,-3.4823,-3.4823,0.0,0.0,0.0,0.0,0.0,0.0,-3.5954,-3.6411,-3.6411,0.0,0.0,0.0,0.0,0.0,0.0,0.0,0.0,0.0,-3.6088,-3.7966,-3.9535,-4.2172,-4.4991,-4.6661,-5.319,-6.1008,-6.5197,-6.8894,-7.2443,-7.6528,-7.8775,-7.9481,-7.7813,-7.4516,-7.027,-6.4541,-5.759,-5.1294,-4.7449,-4.3767,-4.1814,-4.3518,-4.4569,-4.6081,-4.8699,-5.2366,-5.6958,-6.2964,-6.8983,-7.4893,-8.0547,-8.4145,-8.6702,-8.8222,-8.9157,-9.0053,0.0,0.0,0.0,-9.242,-9.2463,-9.249,-9.2405,-9.2405,-9.2391,-9.2391,-9.3171,-9.3516,-9.3393,-9.4171,-9.4096,-9.3186,-9.2987,-9.2363,-9.14,0.0,0.0,0.0,-9.0159,-8.9935,-8.979,-8.9714,-8.9259,-8.8577,-8.8355,-8.7575,-8.6363,0.0,0.0,0.0,0.0,0.0,0.0,-3.4823,-3.4823,-3.4823,-3.4823,-3.4823,-3.4823,-3.4823,-3.4823,-3.4823,-3.4823,0.0,0.0,0.0,0.0,0.0,0.0,0.0,0.0,0.0,0.0,-3.4823,-3.4823,-3.4823,0.0,0.0,0.0,0.0,0.0,0.0,-3.5256,-3.5449,-3.5449,0.0,0.0,0.0,0.0,0.0,0.0,0.0,0.0,0.0,0.0,-3.7218,-3.8091,-3.9801,-4.1591,-4.2345,-4.6358,-5.2126,-5.9185,-6.5296,-7.0568,-7.4635,-7.7758,-7.9367,-7.7122,-7.3634,-6.9208,-6.3329,-5.6535,-5.0445,-4.6837,-4.3514,-4.159,-4.2951,-4.3528,-4.4447,-4.635,-4.9642,-5.372,-5.8814,-6.5124,-7.1346,-7.7322,-8.1556,-8.4709,0.0,0.0,-9.0322,0.0,0.0,0.0,-9.3312,-9.3747,-9.3755,-9.3185,-9.3185,-9.2937,-9.243,-9.2742,-9.2853,-9.2732,-9.3082,-9.2968,-9.2526,-9.2341,-9.1986,-9.1368,0.0,0.0,0.0,-9.0113,-8.9887,-8.979,-8.979,-8.9249,-8.8431,-8.823,-8.7297,-8.6069,0.0,0.0,0.0,0.0,0.0,-3.4823,-3.4823,-3.4823,-3.4823,-3.4823,-3.4823,-3.4823,-3.4823,-3.4823,-3.4823,-3.4823,-3.4823,0.0,0.0,0.0,0.0,0.0,0.0,0.0,0.0,0.0,-3.4823,-3.4823,-3.4823,-3.4823,0.0,0.0,-3.4823,-3.4823,0.0,0.0,0.0,0.0,0.0,0.0,0.0,0.0,0.0,0.0,0.0,0.0,0.0,0.0,0.0,0.0,0.0,-3.896,-3.9371,-4.1603,-4.5789,-5.3943,-6.1097,-6.7254,-7.1484,-7.517,-7.7212,-7.4853,-7.1417,-6.7028,-6.1462,-5.5077,-4.9491,-4.626,-4.3425,-4.1785,-4.2629,-4.3099,-4.3777,-4.5166,-4.8285,-5.1984,-5.5973,-6.1806,-6.7784,-7.353,-7.8046,-8.1915,0.0,-8.8455,0.0,0.0,0.0,0.0,0.0,-9.5309,-9.5251,-9.4108,-9.3808,-9.3405,-9.2781,-9.2781,-9.2698,-9.2576,-9.283,-9.2695,-9.2261,-9.2146,-9.1754,-9.1198,0.0,0.0,0.0,-9.0067,-8.9887,-8.979,-8.979,-8.9048,-8.8041,-8.7697,-8.6554,-8.5168,0.0,0.0,0.0,0.0,0.0,-3.4823,-3.4823,-3.4823,-3.4823,-3.4823,-3.4823,-3.4823,-3.4823,-3.4823,-3.4823,-3.4823,-3.4823,0.0,0.0,0.0,0.0,0.0,0.0,0.0,0.0,0.0,-3.4823,-3.4823,-3.4823,-3.4823,-3.4823,-3.4823,-3.4823,-3.4823,0.0,0.0,0.0,0.0,0.0,0.0,0.0,0.0,0.0,0.0,0.0,0.0,0.0,0.0,0.0,0.0,0.0,0.0,0.0,-3.9701,-4.3769,-5.0184,-5.6362,-6.2126,-6.6939,-7.0537,-7.2479,-7.0692,-6.7373,-6.3296,-5.8526,-5.2961,-4.8054,-4.5331,-4.313,-4.1868,-4.2607,-4.3596,-4.4709,-4.6002,-4.9286,-5.2627,-5.5327,-5.965,-6.4377,-6.9359,-7.3712,-7.8546,-8.435,-8.9424,0.0,0.0,0.0,0.0,0.0,-9.7097,-9.6759,-9.4924,-9.4106,-9.3677,-9.3677,-9.3677,-9.3632,-9.351,-9.4271,-9.4108,-9.2986,-9.2759,-9.1972,0.0,0.0,0.0,0.0,-8.9839,-8.979,-8.979,-8.979,-8.8707,-8.7159,-8.6674,-8.5152,-8.3281,0.0,0.0,0.0,0.0,0.0,0.0,-3.4823,-3.4823,-3.4823,-3.4823,-3.4823,-3.4823,-3.4823,-3.4823,-3.4823,-3.4823,-3.4823,0.0,0.0,0.0,0.0,0.0,0.0,0.0,0.0,-3.4823,-3.4823,-3.4823,-3.4823,-3.4823,-3.4823,-3.4823,-3.4823,-3.4823,-3.4823,-3.4823,0.0,0.0,0.0,0.0,0.0,0.0,0.0,0.0,0.0,0.0,0.0,0.0,0.0,0.0,0.0,0.0,0.0,0.0,0.0,-4.5009,-5.1927,-5.9287,-6.2858,-6.6503,-6.8681,-6.6115,-6.336,-5.9962,-5.5143,-5.0611,-4.7013,-4.508,-4.3456,-4.2526,-4.301,-4.3758,-4.491,-4.6988,-4.9512,-5.2274,-5.5021,-5.7263,-6.049,-6.5463,-7.3647,-8.0781,0.0,0.0,0.0,0.0,0.0,0.0,0.0,-9.6551,-9.6135,-9.4924,-9.4651,-9.395,-9.282,-9.282,-9.2737,-9.2615,-9.2832,-9.2649,-9.2173,-9.1947,0.0,0.0,0.0,0.0,0.0,-8.9839,-8.979,-8.979,-8.9692,-8.852,-8.6831,-8.6367,-8.487,-8.2987,0.0,0.0,0.0,0.0,0.0,0.0,-3.4823,-3.4823,-3.4823,-3.4823,-3.4823,-3.4823,-3.4823,-3.4823,-3.4823,-3.4823,-3.4823,0.0,0.0,0.0,0.0,0.0,0.0,0.0,-3.4823,-3.4823,-3.4823,-3.4823,-3.4823,-3.4823,-3.4823,-3.4823,-3.4823,-3.4823,-3.4823,-3.4823,0.0,0.0,0.0,0.0,0.0,0.0,-3.4823,0.0,0.0,0.0,0.0,0.0,0.0,0.0,0.0,0.0,0.0,0.0,0.0,0.0,-4.7099,-5.3204,-5.6591,-5.9761,-6.1567,-5.939,-5.7363,-5.4988,-5.1108,-4.8022,-4.5598,-4.4497,-4.3599,-4.3061,-4.3615,-4.4527,-4.6001,-4.8413,-5.0815,-5.3328,-5.5899,-5.676,0.0,-6.4961,0.0,0.0,0.0,0.0,0.0,0.0,0.0,0.0,0.0,0.0,-9.5849,-9.4924,-9.4613,-9.395,-9.2898,-9.2547,-9.2308,-9.2151,-9.2093,-9.1882,-9.1649,-9.1336,0.0,0.0,0.0,0.0,0.0,-8.9839,-8.979,-8.979,-8.9642,-8.8418,-8.6636,-8.6144,-8.4695,-8.2843,0.0,0.0,0.0,0.0,0.0,0.0,0.0,-3.4823,-3.4823,-3.4823,-3.4823,-3.4823,-3.4823,-3.4823,-3.4823,-3.4823,-3.4823,0.0,0.0,0.0,0.0,0.0,0.0,0.0,-3.4823,-3.4823,-3.4823,-3.4823,-3.4823,-3.4823,-3.4823,-3.4823,-3.4823,-3.4823,-3.4823,-3.4823,-3.4823,-3.4823,-3.4823,-3.4823,-3.4823,-3.4823,0.0,0.0,0.0,0.0,0.0,0.0,0.0,0.0,0.0,0.0,0.0,0.0,0.0,0.0,0.0,0.0,0.0,-5.1104,-5.2324,-5.1371,-5.0301,-4.9029,-4.6874,-4.5251,0.0,-4.3705,-4.3427,-4.3585,-4.4434,-4.5618,-4.7449,-5.0216,-5.2743,-5.5139,0.0,-5.7895,0.0,0.0,-7.5738,0.0,0.0,0.0,0.0,0.0,0.0,0.0,0.0,0.0,-9.5704,-9.4846,-9.4106,-9.3677,-9.3599,-9.282,-9.2293,-9.2113,-9.195,-9.1708,-9.1368,-9.0951,0.0,0.0,0.0,0.0,0.0,-8.979,-8.979,-8.979,-8.9642,-8.8367,-8.6583,-8.5993,-8.4577,-8.2782,0.0,0.0,0.0,0.0,0.0,0.0,0.0,0.0,0.0,0.0,-3.4823,-3.4823,-3.4823,-3.4823,-3.4823,0.0,0.0,0.0,0.0,0.0,0.0,0.0,0.0,0.0,-3.4823,-3.4823,-3.4823,-3.4823,-3.4823,-3.4823,-3.4823,-3.4823,-3.4823,-3.4823,-3.4823,-3.4823,-3.4823,-3.4823,-3.4823,-3.4823,-3.4823,-3.4823,0.0,0.0,0.0,0.0,-3.4823,-3.4823,0.0,0.0,0.0,0.0,0.0,0.0,0.0,0.0,-3.9659,-4.0572,-4.1952,0.0,-4.8625,-4.7598,-4.6905,-4.6022,0.0,-4.3501,-4.3027,-4.3723,-4.3771,-4.4159,-4.529,-4.5708,-4.6917,-5.0358,-5.1336,-5.3009,-5.6814,0.0,0.0,-6.637,-7.4104,0.0,0.0,0.0,0.0,0.0,0.0,0.0,0.0,0.0,-9.4846,-9.3989,-9.3794,-9.3366,-9.2703,-9.244,-9.226,-9.2113,-9.1859,-9.1561,-9.1231,-9.0876,0.0,0.0,0.0,0.0,-8.979,-8.979,-8.979,-8.9741,-8.9541,-8.821,-8.6312,-8.5856,-8.4336,-8.2471,0.0,0.0,0.0,0.0,0.0,0.0,0.0,0.0,0.0,0.0,-3.4823,-3.4823,-3.4823,-3.4823,-3.4823,0.0,0.0,0.0,0.0,0.0,0.0,0.0,0.0,-3.4823,-3.4823,-3.4823,-3.4823,-3.4823,-3.4823,-3.4823,-3.4823,-3.4823,-3.4823,-3.4823,-3.4823,-3.4823,-3.4823,-3.4823,-3.4823,-3.4823,-3.4823,0.0,0.0,0.0,0.0,0.0,-3.4823,-3.4823,0.0,-3.4823,-3.5113,-3.5501,0.0,0.0,0.0,0.0,-3.8919,-3.9217,-3.95,-4.1812,-4.4035,-4.3372,-4.3423,-4.3353,-4.2644,-4.2407,-4.2555,-4.3693,-4.3927,-4.4312,-4.5541,-4.6059,-4.7505,-5.1206,-5.2335,0.0,0.0,0.0,-6.8581,-6.9916,0.0,0.0,0.0,0.0,0.0,0.0,0.0,0.0,0.0,0.0,-9.4145,-9.3716,-9.3327,-9.2898,-9.2391,-9.2293,-9.2169,-9.1993,-9.1735,-9.1385,-9.1024,-9.0721,-9.0427,0.0,0.0,0.0,-8.979,-8.979,-8.9552,-8.9161,-8.8857,-8.7485,-8.5583,-8.512,-8.3855,-8.2343,0.0,0.0,0.0,0.0,0.0,0.0,0.0,0.0,0.0,0.0,0.0,0.0,0.0,0.0,0.0,0.0,0.0,0.0,0.0,0.0,0.0,0.0,-3.4823,-3.4823,-3.4823,-3.4823,-3.4823,-3.4823,-3.4823,-3.4823,-3.4823,-3.4823,-3.4823,-3.4823,-3.4823,-3.4823,-3.4823,-3.4823,-3.4823,-3.4823,-3.4823,0.0,0.0,0.0,0.0,0.0,0.0,0.0,0.0,-3.4823,-3.5017,-3.5308,-3.6039,0.0,0.0,0.0,0.0,0.0,-3.9249,-3.9645,-3.9996,-3.9996,-4.0688,-4.1311,-4.1311,-4.1647,-4.231,-4.3457,-4.3771,-4.4159,-4.5594,-4.6586,-4.8453,0.0,0.0,0.0,-6.4347,-7.0555,-7.4615,-7.4932,0.0,0.0,0.0,0.0,0.0,0.0,0.0,0.0,0.0,-9.3989,-9.3638,-9.3521,-9.2898,-9.2547,-9.2377,-9.226,-9.2093,-9.1882,-9.1571,-9.1198,-9.0722,-9.0432,-9.0205,0.0,0.0,0.0,-8.9601,-8.9487,-8.8934,-8.8142,-8.7833,-8.6479,-8.4683,-8.4211,-8.3324,-8.2343,0.0,0.0,0.0,0.0,0.0,0.0,0.0,0.0,0.0,0.0,0.0,0.0,0.0,0.0,0.0,0.0,0.0,0.0,0.0,0.0,0.0,-3.4823,-3.4823,-3.4823,-3.4823,-3.4823,-3.4823,-3.4823,-3.4823,-3.4823,-3.4823,-3.4823,-3.4823,-3.4823,-3.4823,-3.4823,-3.4823,-3.4823,-3.4823,-3.4823,-3.4823,0.0,0.0,0.0,0.0,0.0,0.0,0.0,0.0,-3.4823,-3.5017,-3.5332,-3.5886,0.0,0.0,0.0,0.0,0.0,-3.923,-3.9645,-3.9996,-3.9996,-4.0516,-4.1085,-4.1085,-4.1283,-4.1785,-4.26,-4.2921,-4.3578,-4.5479,-4.6577,-4.8604,0.0,0.0,-6.5278,0.0,0.0,0.0,0.0,0.0,0.0,0.0,0.0,0.0,0.0,0.0,0.0,0.0,0.0,-9.3366,-9.2625,-9.3171,-9.3117,-9.2331,-9.2169,-9.1972,-9.1735,-9.1361,-9.0951,-9.052,-9.0212,-8.9982,0.0,0.0,-8.8767,-8.8729,-8.795,-8.7386,-8.7084,-8.6718,-8.5676,-8.4354,-8.4028,-8.3235,-8.2186,0.0,0.0,0.0,0.0,0.0,0.0,0.0,0.0,0.0,0.0,0.0,0.0,0.0,0.0,0.0,0.0,0.0,0.0,0.0,0.0,-3.4823,-3.4823,-3.4823,-3.4823,-3.4823,-3.4823,-3.4823,-3.4823,-3.4823,-3.4823,-3.4823,-3.4823,-3.4823,-3.4823,-3.4823,-3.4823,-3.4823,-3.4823,-3.4823,-3.4823,0.0,0.0,0.0,0.0,0.0,0.0,0.0,0.0,0.0,0.0,-3.5017,-3.5524,-3.6143,0.0,0.0,0.0,0.0,0.0,-3.9407,-3.976,-3.9996,-4.0198,-4.0602,-4.1001,-4.1001,-4.1198,-4.1535,-4.214,-4.2386,-4.2968,-4.4825,-4.6656,-5.0473,-5.8269,0.0,0.0,0.0,0.0,0.0,0.0,0.0,0.0,0.0,0.0,0.0,0.0,0.0,0.0,0.0,0.0,-9.282,-9.243,-9.2781,-9.2737,-9.2226,-9.2073,-9.1882,-9.1655,-9.1159,-9.0762,-9.0432,-9.0121,-8.9707,-8.9146,0.0,-8.8301,-8.7798,-8.7235,-8.658,-8.5816,-8.5526,-8.4584,-8.3399,-8.3087,-8.248,-8.1818,0.0,0.0,0.0,0.0,0.0,0.0,0.0,0.0,0.0,0.0,0.0,0.0,0.0,0.0,0.0,0.0,0.0,0.0,0.0,-3.4823,-3.4823,-3.4823,-3.4823,-3.4823,-3.4823,-3.4823,-3.4823,-3.4823,-3.4823,-3.4823,-3.4823,-3.4823,-3.4823,-3.4823,-3.4823,-3.4823,-3.4823,-3.4823,-3.4823,-3.4823,0.0,0.0,0.0,0.0,0.0,0.0,0.0,0.0,0.0,0.0,0.0,0.0,0.0,0.0,0.0,-3.8729,-3.9114,-3.9407,-3.9612,-3.9848,-4.0083,-4.0312,-4.0914,-4.1398,-4.1482,-4.205,-4.2644,-4.269,-4.2943,-4.3537,-4.486,-4.8355,0.0,-6.4073,-7.0961,0.0,0.0,0.0,0.0,0.0,0.0,0.0,0.0,0.0,0.0,0.0,0.0,0.0,0.0,0.0,-9.1807,-9.1807,-9.1793,-9.1692,-9.153,-9.1307,-9.1231,-9.1204,-9.0716,-9.022,-8.9768,-8.9543,-8.9014,-8.8312,-8.8084,-8.762,-8.6868,-8.6405,-8.5606,-8.4666,-8.427,-8.346,-8.2508,-8.2251,-8.1922,-8.1547,0.0,0.0,0.0,0.0,0.0,0.0,0.0,0.0,0.0,0.0,0.0,0.0,0.0,0.0,0.0,0.0,0.0,0.0,0.0,-3.4823,-3.4823,-3.4823,-3.4823,-3.4823,-3.4823,-3.4823,-3.4823,-3.4823,-3.4823,-3.4823,-3.4823,-3.4823,-3.4823,-3.4823,-3.4823,-3.4823,-3.4823,-3.4823,-3.4823,-3.4823,-3.4823,0.0,0.0,0.0,0.0,0.0,0.0,0.0,0.0,0.0,0.0,0.0,0.0,0.0,-3.8304,-3.8729,-3.9114,-3.9407,-3.9612,-3.9848,-4.0083,-4.0312,-4.1338,-4.2424,-4.2792,-4.4512,-4.5837,-4.5185,-4.5793,-4.6411,-4.6471,-5.3353,-6.1273,-6.8328,-7.4058,0.0,0.0,0.0,0.0,0.0,0.0,0.0,0.0,0.0,0.0,0.0,0.0,0.0,0.0,0.0,0.0,-8.9975,-8.9947,-8.9846,-8.978,-8.9382,-8.9504,-9.0108,-8.9687,-8.8912,-8.7883,-8.7695,-8.7554,-8.744,-8.6644,-8.6133,-8.5874,-8.4694,-8.3988,-8.362,-8.3076,-8.2481,-8.1952,-8.1952,-8.172,-8.1445,0.0,0.0,0.0,0.0,0.0,0.0,0.0,0.0,0.0,0.0,0.0,0.0,0.0,0.0,0.0,0.0,0.0,0.0,0.0,-3.4823,-3.4823,-3.4823,-3.4823,-3.4823,-3.4823,-3.4823,-3.4823,-3.4823,-3.4823,-3.4823,-3.4823,-3.4823,-3.4823,-3.4823,-3.4823,-3.4823,-3.4823,-3.4823,-3.4823,-3.4823,-3.4823,-3.4823,0.0,0.0,0.0,0.0,0.0,0.0,0.0,0.0,-3.5883,-3.6521,-3.7268,-3.7939,-3.8485,-3.9024,-3.9203,-3.9407,-3.976,-3.9936,-4.0083,-4.0457,-4.271,-4.4803,-4.4466,-4.6628,-4.8545,-4.8247,-4.9017,-5.0179,-5.1403,0.0,-6.3473,-7.0466,0.0,0.0,0.0,0.0,0.0,0.0,0.0,0.0,0.0,0.0,0.0,0.0,0.0,0.0,0.0,0.0,0.0,-8.9752,-8.9668,-8.9583,-8.9404,-8.9088,-8.8729,-8.8252,-8.8384,-8.8214,-8.7693,-8.7459,-8.7099,-8.6568,-8.6133,-8.5534,-8.4758,-8.4042,-8.3546,-8.3143,-8.2633,-8.2186,-8.1885,-8.1885,-8.172,-8.1375,0.0,0.0,0.0,0.0,0.0,0.0,0.0,0.0,0.0,0.0,0.0,0.0,0.0,0.0,0.0,0.0,0.0,0.0,-3.4823,-3.4823,-3.4823,-3.4823,-3.4823,-3.4823,-3.4823,-3.4823,-3.4823,-3.4823,-3.4823,-3.4823,-3.4823,-3.4823,-3.4823,-3.4823,-3.4823,-3.4823,-3.4823,-3.4823,-3.4823,-3.4823,-3.4823,-3.4823,0.0,0.0,0.0,0.0,0.0,0.0,0.0,0.0,-3.6358,-3.7108,-3.7821,-3.8395,-3.8756,-3.9203,-3.9292,-3.938,-4.0083,-4.0482,-4.0854,-4.1483,-4.4561,-4.765,-4.8059,-5.0843,-5.3418,-5.334,-5.3856,-5.4888,-5.7123,-6.0748,0.0,0.0,0.0,0.0,0.0,0.0,0.0,0.0,0.0,0.0,0.0,0.0,0.0,0.0,0.0,0.0,0.0,0.0,0.0,0.0,-8.8801,-8.8633,-8.8428,-8.8151,-8.7571,-8.6732,-8.6923,-8.7019,-8.6894,-8.6662,-8.6303,-8.5735,-8.5555,-8.5021,-8.4153,-8.3675,-8.3202,-8.2659,-8.2316,-8.2055,-8.1818,-8.1818,-8.1547,-8.1163,0.0,0.0,0.0,0.0,0.0,0.0,0.0,0.0,-3.4823,-3.4823,-3.4823,0.0,0.0,0.0,0.0,0.0,0.0,0.0,-3.4823,-3.4823,-3.4823,-3.4823,-3.4823,-3.4823,-3.4823,-3.4823,-3.4823,-3.4823,-3.4823,-3.4823,-3.4823,-3.4823,-3.4823,-3.4823,-3.4823,-3.4823,-3.4823,-3.4823,-3.4823,-3.4823,-3.4823,-3.4823,-3.4823,0.0,0.0,0.0,0.0,0.0,0.0,0.0,-3.7015,-3.7598,-3.8421,-3.8756,-3.9024,-3.923,-3.9319,-3.9496,-4.0457,-4.154,-4.2595,-4.3519,-4.6862,-5.0743,-5.3828,-5.7739,-6.0768,-6.0866,-6.0282,-6.0609,-6.3262,-6.5192,0.0,0.0,0.0,0.0,0.0,0.0,0.0,0.0,0.0,0.0,0.0,0.0,0.0,0.0,0.0,0.0,0.0,0.0,0.0,0.0,-8.6962,-8.676,-8.6494,-8.6177,-8.5881,-8.559,-8.5349,-8.5219,-8.5219,-8.4992,-8.4901,-8.4901,-8.476,-8.453,-8.4153,-8.3527,-8.2867,-8.2186,-8.2186,-8.1952,-8.1579,-8.1579,-8.1269,-8.0803,0.0,0.0,0.0,0.0,0.0,0.0,0.0,0.0,-3.4823,-3.4823,-3.4823,0.0,0.0,0.0,0.0,0.0,0.0,0.0,-3.4823,-3.4823,-3.4823,-3.4823,-3.4823,-3.4823,-3.4823,-3.4823,-3.4823,-3.4823,-3.4823,-3.4823,-3.4823,-3.4823,-3.4823,-3.4823,-3.4823,-3.4823,-3.4823,-3.4823,-3.4823,-3.4823,-3.4823,-3.4823,-3.4823,0.0,0.0,0.0,0.0,0.0,0.0,0.0,0.0,0.0,-3.9173,-3.9644,-3.9907,-4.0458,-4.0594,-4.0841,-4.21,-4.3488,-4.4837,-4.6113,-5.0229,-5.4749,-5.7909,-6.1219,-6.4548,-6.7949,-6.6953,-6.5988,-6.7884,-6.9261,0.0,0.0,0.0,0.0,0.0,0.0,0.0,0.0,0.0,0.0,0.0,0.0,0.0,0.0,0.0,0.0,0.0,0.0,0.0,0.0,-8.6863,-8.6621,-8.6366,-8.612,-8.5887,-8.5667,-8.5349,-8.5138,-8.5051,-8.4947,-8.4901,-8.4901,-8.4665,-8.4293,-8.3838,-8.3047,-8.2471,-8.2186,-8.2055,-8.1818,-8.1579,-8.1478,-8.1163,-8.0803,0.0,0.0,0.0,0.0,0.0,0.0,0.0,0.0,-3.4823,-3.4823,-3.4823,-3.4823,0.0,0.0,0.0,0.0,0.0,0.0,-3.4823,-3.4823,-3.4823,-3.4823,-3.4823,-3.4823,-3.4823,-3.4823,-3.4823,-3.4823,-3.4823,-3.4823,-3.4823,-3.4823,-3.4823,-3.4823,-3.4823,-3.4823,-3.4823,-3.4823,-3.4823,-3.4823,-3.4823,-3.4823,-3.4823,0.0,0.0,0.0,0.0,0.0,0.0,0.0,0.0,0.0,-3.9634,-4.0259,-4.0675,-4.13,-4.1462,-4.1808,-4.3598,-4.5709,-4.7824,-4.9617,-5.441,-5.9888,-6.4821,-6.7677,-7.0434,-7.4714,-7.3783,-7.2628,-7.3954,-7.4434,0.0,0.0,0.0,0.0,0.0,0.0,0.0,0.0,0.0,0.0,0.0,0.0,0.0,0.0,0.0,0.0,0.0,0.0,0.0,0.0,-8.6693,-8.644,-8.6153,-8.5958,-8.5742,-8.5471,-8.5304,-8.5132,-8.4954,-8.4947,-8.4854,-8.4808,-8.4381,-8.3876,-8.3395,-8.2684,-8.2279,-8.2055,-8.1952,-8.1751,-8.1478,-8.1445,-8.1092,-8.0656,0.0,0.0,-3.4433,-3.4726,0.0,0.0,0.0,0.0,-3.4823,-3.4823,-3.4823,-3.4823,0.0,0.0,0.0,0.0,0.0,0.0,0.0,-3.4823,-3.4823,-3.4823,-3.4823,-3.4823,-3.4823,-3.4823,-3.4823,-3.4823,-3.4823,-3.4823,-3.4823,-3.4823,-3.4823,-3.4823,-3.4823,-3.4823,-3.4823,-3.4823,-3.4823,-3.4823,-3.4823,-3.4823,-3.4823,-3.4823,0.0,0.0,0.0,0.0,0.0,0.0,0.0,0.0,-3.9961,-4.0703,-4.1327,-4.1978,-4.2168,-4.2775,-4.5142,-4.8173,-5.121,-5.3923,-5.9249,-6.5788,-7.2962,-7.5552,-7.7378,-8.0502,0.0,-7.968,-8.0558,0.0,0.0,0.0,0.0,0.0,0.0,0.0,0.0,0.0,0.0,0.0,0.0,0.0,0.0,0.0,0.0,0.0,0.0,0.0,0.0,0.0,-8.652,-8.6277,-8.5996,-8.5817,-8.5511,0.0,-8.5219,-8.5089,-8.4947,-8.4901,-8.4808,-8.4579,-8.3838,-8.3281,-8.2843,-8.2534,-8.215,-8.1885,-8.1885,-8.1652,-8.1375,-8.1375,-8.1021,-8.0508,0.0,0.0,-3.4433,-3.4726,0.0,0.0,0.0,0.0,0.0,-3.4823,-3.4823,0.0,0.0,0.0,0.0,0.0,0.0,0.0,0.0,-3.4823,-3.4823,-3.4823,-3.4823,-3.4823,-3.4823,-3.4823,-3.4823,-3.4823,-3.4823,-3.4823,-3.4823,-3.4823,-3.4823,-3.4823,-3.4823,-3.4823,-3.4823,-3.4823,-3.4823,-3.4823,-3.4823,-3.4823,-3.4823,-3.4823,-3.492,0.0,0.0,0.0,0.0,0.0,0.0,0.0,-4.0475,-4.1327,-4.2032,-4.309,-4.3779,-4.4959,-4.7852,-5.123,-5.4745,-5.8532,-6.5022,-7.1358,-7.5089,-7.8453,-8.1093,-8.2225,-8.2716,-8.2996,-8.327,0.0,0.0,0.0,0.0,0.0,0.0,0.0,0.0,0.0,0.0,0.0,0.0,0.0,0.0,0.0,0.0,0.0,0.0,0.0,0.0,-8.6716,-8.644,-8.6215,-8.5996,-8.5817,-8.559,0.0,-8.5266,-8.5176,-8.5132,-8.4992,-8.4627,-8.4102,-8.362,-8.3106,-8.2696,-8.2215,-8.1952,-8.1885,-8.1652,-8.1445,-8.1375,-8.1021,-8.073,-8.0508,0.0,0.0,0.0,0.0,0.0,0.0,0.0,0.0,0.0,0.0,0.0,0.0,0.0,0.0,0.0,0.0,0.0,0.0,0.0,-3.4823,-3.4823,-3.4823,-3.4823,-3.4823,-3.4823,-3.4823,-3.4944,-3.5208,-3.5208,-3.5064,-3.4823,-3.4823,-3.4823,-3.4823,-3.4823,-3.4823,-3.4823,-3.4823,-3.4823,-3.4823,-3.4823,-3.4823,-3.4823,-3.492,-3.5114,-3.55,-3.6073,0.0,0.0,0.0,0.0,0.0,0.0,0.0,-4.2249,-4.3416,-4.4428,-4.5808,-4.8702,-5.2932,-5.8159,-6.539,-7.0654,-7.4745,-7.7553,-8.0067,-8.2006,-8.2837,-8.4294,-8.5475,0.0,0.0,0.0,0.0,0.0,0.0,0.0,0.0,0.0,0.0,0.0,0.0,0.0,0.0,0.0,0.0,0.0,0.0,0.0,-8.698,-8.6821,-8.6571,-8.6307,-8.606,-8.5854,-8.5667,-8.5511,-8.5349,-8.5224,-8.5132,-8.4954,-8.4722,-8.4293,-8.3784,-8.3338,-8.2867,-8.2508,-8.2084,-8.1818,-8.1751,-8.1514,-8.1305,-8.1234,-8.0876,-8.0656,-8.0433,0.0,0.0,0.0,0.0,0.0,0.0,0.0,0.0,0.0,0.0,0.0,0.0,0.0,0.0,0.0,0.0,0.0,0.0,0.0,0.0,0.0,-3.4823,-3.4823,-3.4823,-3.4823,-3.4823,-3.5088,-3.5617,-3.5713,-3.5569,-3.5232,-3.5136,-3.504,-3.4968,-3.4968,-3.4919,-3.4823,-3.4823,-3.4823,-3.4823,-3.4823,-3.4823,-3.4823,-3.5138,-3.5428,-3.5787,-3.6521,-3.7268,-3.7913,-3.8485,0.0,0.0,0.0,0.0,-4.2059,-4.3145,-4.4455,-4.609,-4.8995,-5.4626,-6.2041,-7.1711,-7.5272,-7.6993,-7.9569,-8.0933,-8.1934,-8.2903,-8.5039,0.0,0.0,0.0,0.0,0.0,0.0,0.0,0.0,0.0,0.0,0.0,0.0,0.0,0.0,0.0,0.0,0.0,0.0,0.0,-8.7089,-8.6904,-8.6645,-8.6384,-8.6126,-8.5926,-8.5705,-8.5551,-8.5391,-8.5262,-8.5138,-8.4954,-8.4579,-8.4242,-8.3892,-8.3546,-8.3084,-8.2659,-8.2279,-8.1952,-8.1751,-8.1547,-8.1445,-8.1234,-8.1021,-8.0803,-8.0656,-8.0433,0.0,0.0,0.0,0.0,0.0,0.0,0.0,0.0,0.0,0.0,-3.4628,-3.4823,0.0,-3.4823,-3.4823,-3.4823,-3.4823,-3.4823,-3.4823,0.0,0.0,-3.4823,-3.4823,-3.4823,-3.4823,-3.4823,-3.5088,-3.5617,-3.6074,-3.6507,-3.6867,-3.6411,-3.5954,-3.5521,-3.5521,-3.5256,-3.4823,-3.4823,-3.4823,-3.4823,-3.4823,-3.4823,-3.4823,-3.5138,-3.55,-3.6073,-3.6828,-3.7572,-3.8213,-3.8729,-3.9024,0.0,0.0,0.0,-4.1354,-4.2032,-4.3702,-4.61,-4.971,-5.833,-6.7688,-7.3274,-7.6598,-7.8834,-8.0058,-8.1553,-8.2799,0.0,0.0,0.0,0.0,0.0,0.0,0.0,0.0,0.0,0.0,0.0,0.0,0.0,0.0,0.0,0.0,0.0,0.0,0.0,0.0,0.0,-8.7037,-8.6803,-8.6596,-8.6336,-8.6094,-8.5926,-8.5705,-8.5551,-8.5431,-8.5388,-8.5006,-8.4685,-8.4255,-8.3838,-8.3564,-8.3338,-8.2904,-8.2444,-8.1952,-8.1751,-8.1547,-8.1445,-8.1234,-8.1092,-8.1021,-8.0656,-8.0508,-8.0433,0.0,0.0,0.0,0.0,0.0,0.0,0.0,0.0,0.0,0.0,0.0,-3.4823,-3.4823,-3.4823,-3.4823,-3.4823,-3.4823,-3.4823,-3.4823,-3.4823,-3.4823,-3.4823,-3.4823,-3.4823,-3.4823,-3.4823,-3.5232,-3.605,-3.6579,-3.7276,-3.8094,-3.7853,-3.7156,-3.605,-3.5737,-3.5328,-3.4823,-3.4823,-3.4823,-3.4823,-3.4823,-3.4823,-3.4823,-3.5404,-3.6143,-3.6964,-3.7887,-3.8792,-3.9414,-3.959,-3.9706,-3.9755,-4.0087,0.0,0.0,0.0,-4.3121,-4.6161,-5.2268,-5.9619,-6.662,-7.1025,-7.463,-7.729,-7.8374,-8.0082,-8.1497,-8.1601,0.0,0.0,0.0,0.0,0.0,0.0,0.0,0.0,0.0,0.0,0.0,0.0,0.0,0.0,0.0,0.0,0.0,0.0,0.0,-8.7072,-8.6904,-8.6669,-8.6384,-8.6159,-8.5923,-8.5742,-8.559,-8.5551,-8.5431,-8.5304,-8.4954,-8.4492,-8.405,-8.362,-8.3338,-8.3047,-8.2597,-8.2251,-8.1885,-8.1615,-8.1408,-8.1375,-8.1163,-8.1128,-8.1021,-8.0656,-8.0508,-8.0433,0.0,0.0,0.0,0.0,0.0,0.0,0.0,0.0,0.0,0.0,0.0,-3.4823,-3.4823,0.0,0.0,0.0,-3.4823,-3.4823,-3.4823,-3.4823,-3.4823,-3.4823,-3.4823,-3.4823,-3.4823,-3.4823,-3.5352,-3.6411,-3.694,-3.7757,-3.8815,-3.8815,-3.8022,-3.6579,-3.605,-3.5449,-3.4823,-3.4823,-3.4823,-3.4823,-3.4823,-3.492,-3.5138,-3.6198,-3.7304,-3.8448,-3.9864,-4.074,-4.1142,-4.1,-4.0572,-4.0138,-3.9987,-3.997,0.0,0.0,0.0,-4.664,-5.3732,-5.9196,-6.3808,-6.7921,-7.1319,-7.4063,-7.5602,0.0,-7.8657,0.0,0.0,0.0,0.0,0.0,0.0,0.0,0.0,0.0,0.0,0.0,0.0,0.0,0.0,0.0,0.0,0.0,0.0,0.0,0.0,-8.6962,-8.6799,-8.652,-8.6246,-8.6031,-8.5817,-8.5667,-8.5511,-8.5471,-8.5308,-8.5138,-8.477,-8.4343,-8.3892,-8.3452,-8.3047,-8.2721,-8.2316,-8.1989,-8.1751,-8.1514,-8.1375,-8.1305,-8.1163,-8.1021,-8.0948,-8.0656,-8.0433,-8.0358,0.0,0.0,0.0,0.0,0.0,0.0,0.0,0.0,0.0,0.0,0.0,-3.4823,-3.4823,-3.4823,-3.4823,-3.4823,-3.4823,-3.4823,-3.4823,-3.4823,-3.4823,-3.4823,-3.4823,0.0,-3.4823,-3.4823,-3.5352,-3.6411,-3.694,-3.7757,-3.8815,-3.8815,-3.8214,-3.7132,-3.6603,-3.5785,-3.4823,-3.4823,-3.4823,-3.4823,-3.4823,-3.5114,-3.5766,-3.7526,-3.9318,-4.1019,-4.2941,-4.3558,-4.3523,-4.2702,-4.1625,-4.046,-3.9584,-3.9346,-3.9346,0.0,0.0,0.0,-5.2571,-5.674,-6.0683,-6.5022,-6.7241,-6.9159,-7.1892,0.0,-7.4159,0.0,0.0,0.0,0.0,0.0,0.0,0.0,0.0,0.0,0.0,0.0,0.0,0.0,0.0,0.0,0.0,0.0,0.0,0.0,0.0,-8.6924,-8.6693,-8.644,-8.6184,-8.5996,-8.5817,-8.5667,-8.5511,-8.5308,-8.5138,-8.5006,-8.4454,-8.3998,-8.3602,-8.3106,-8.2659,-8.2251,-8.2055,-8.1683,-8.1445,-8.1375,-8.1305,-8.1092,-8.1092,-8.0948,-8.0803,-8.0582,-8.0358,-8.0207,0.0,0.0,0.0,0.0,0.0,0.0,0.0,0.0,0.0,0.0,0.0,0.0,0.0,-3.5328,-3.5473,-3.5809,-3.5833,-3.5833,-3.5833,-3.5833,-3.5833,-3.5833,-3.5833,-3.5833,-3.5833,-3.5833,-3.6194,-3.6916,-3.7445,-3.8094,-3.8815,-3.8815,-3.8407,-3.7661,-3.6795,-3.5809,-3.4823,-3.4823,-3.4823,-3.4823,-3.4823,-3.5114,-3.5861,-3.8158,-4.0349,-4.2573,-4.4931,0.0,0.0,0.0,0.0,0.0,-3.9903,-3.9292,-3.9469,-4.0087,-4.2266,-4.5047,-4.7874,-5.1228,-5.4367,-5.6529,-5.9537,-6.2458,-6.3951,-6.6834,-6.9509,0.0,0.0,0.0,0.0,0.0,0.0,0.0,0.0,0.0,0.0,0.0,0.0,0.0,0.0,0.0,0.0,0.0,0.0,0.0,0.0,0.0,-8.5669,-8.5398,-8.5416,-8.5779,-8.5628,-8.5511,-8.5469,-8.5304,-8.5094,-8.4871,-8.4306,-8.3838,-8.3395,-8.2806,-8.2343,-8.1818,-8.1615,-8.1514,-8.1375,-8.1234,-8.1163,-8.1128,-8.1128,-8.0948,-8.0803,-8.0582,-8.0358,-8.013,0.0,0.0,0.0,0.0,0.0,-3.1902,-3.2752,-3.3368,-3.3775,-3.428,0.0,0.0,0.0,0.0,-3.6026,-3.6362,-3.6411,-3.6411,-3.6411,-3.6411,-3.6411,-3.6411,-3.6411,-3.6411,-3.6411,-3.6411,-3.6675,-3.7204,-3.7541,-3.7998,-3.8527,-3.8527,-3.8238,-3.7685,-3.6988,-3.6074,-3.5088,-3.5088,-3.4992,-3.4823,-3.4823,-3.5332,-3.6397,-3.9045,-4.2051,-4.5172,0.0,0.0,0.0,0.0,0.0,0.0,-4.1137,-3.9782,-3.9469,-4.0432,-4.1709,-4.3031,-4.4602,-4.6988,-4.9351,-5.0429,-5.3179,-5.6046,-5.7386,-6.0762,-6.4046,0.0,0.0,0.0,0.0,0.0,0.0,0.0,0.0,0.0,0.0,0.0,0.0,0.0,0.0,0.0,0.0,0.0,0.0,0.0,0.0,0.0,-8.4628,-8.4362,-8.4397,-8.4787,-8.471,-8.4784,-8.4968,-8.4762,-8.4658,-8.4647,-8.4102,-8.3564,-8.301,-8.2597,-8.2018,-8.1547,-8.1445,-8.1375,-8.1305,-8.12,-8.1128,-8.1092,-8.1057,-8.0876,-8.0656,-8.0508,-8.0207,-7.9977,0.0,0.0,-3.0147,-3.0791,-3.1319,-3.1993,-3.2857,-3.371,-3.4343,-3.4657,0.0,0.0,0.0,0.0,0.0,-3.6459,-3.6459,-3.6459,-3.6459,-3.6459,-3.6459,-3.6459,-3.6459,-3.6459,-3.6459,-3.6459,-3.6699,-3.7204,-3.7204,-3.7469,-3.7974,-3.7974,-3.7709,-3.7204,-3.7204,-3.6651,-3.5665,-3.5641,-3.5352,-3.4871,-3.4871,-3.5746,-3.7501,-4.0372,-4.4297,0.0,-5.1609,-5.3744,0.0,-5.1933,0.0,0.0,-4.3364,-4.0789,-3.9469,-4.0055,-4.1053,-4.2167,0.0,0.0,0.0,-4.7305,-4.8599,-5.0188,-5.2827,-5.5269,-5.7857,0.0,0.0,0.0,0.0,0.0,0.0,0.0,0.0,0.0,0.0,0.0,0.0,0.0,0.0,0.0,0.0,0.0,0.0,0.0,0.0,-8.3861,-8.3672,-8.3418,-8.3213,-8.299,-8.299,-8.3371,-8.4012,-8.3764,-8.3877,-8.433,-8.3801,-8.3223,-8.2523,-8.2279,-8.1922,-8.1375,-8.1375,-8.1305,-8.1128,-8.1128,-8.1128,-8.1128,-8.0876,-8.0656,-8.0508,-8.0283,-7.9899,-7.9507,0.0,-2.9682,-3.0127,-3.046,-3.0791,-3.134,-3.2189,-3.2728,-3.3369,0.0,0.0,0.0,-3.6445,-3.7116,-3.7541,-3.7541,-3.7541,-3.7541,-3.7541,-3.7541,-3.7541,-3.7541,-3.7541,-3.7541,-3.7541,-3.7541,-3.7613,-3.7757,-3.7757,-3.7829,-3.7974,-3.7974,-3.7902,-3.7757,-3.7757,-3.7397,-3.6723,-3.6338,-3.6098,-3.5978,-3.5978,-3.6332,-3.7287,-4.0455,-4.3806,0.0,0.0,-5.4769,-5.6667,0.0,-5.235,-5.0134,-4.3931,-4.0789,-3.9292,-3.9557,-3.9843,-4.0129,-4.0653,0.0,0.0,0.0,0.0,0.0,-4.8157,-5.1456,-5.4943,0.0,0.0,0.0,0.0,0.0,0.0,0.0,0.0,0.0,0.0,0.0,0.0,0.0,0.0,0.0,0.0,0.0,0.0,0.0,-8.2122,-8.215,-8.2599,-8.2904,-8.3066,-8.299,-8.295,-8.2907,-8.2927,-8.2671,-8.2378,-8.2195,-8.2165,-8.1978,-8.1586,-8.1629,-8.1514,-8.1375,-8.1234,-8.1163,-8.1128,-8.1128,-8.1128,-8.1128,-8.0876,-8.0656,-8.0508,-8.0283,-7.9786,-7.9196,-2.9699,-2.9889,-3.0344,-3.0664,-3.089,-3.1228,-3.1989,-3.2543,-3.3093,0.0,0.0,0.0,-3.6779,-3.7512,-3.7785,-3.7785,-3.7998,-3.7974,-3.7974,-3.7974,-3.7974,-3.7974,-3.7974,-3.7974,-3.7974,-3.7974,-3.7974,-3.7974,-3.7974,-3.7974,-3.7974,-3.7974,-3.7974,-3.7974,-3.7974,-3.7805,-3.7493,-3.7697,-3.751,-3.7093,-3.7543,-3.8409,-3.9852,-4.275,-4.6207,0.0,0.0,0.0,-6.048,-5.8411,-5.5176,0.0,0.0,-4.2079,-4.0062,-3.9462,-3.9292,-3.9407,-3.9612,-4.011,-4.0659,-4.1367,0.0,0.0,-4.5833,-4.9099,-5.2663,0.0,0.0,0.0,0.0,0.0,0.0,0.0,0.0,0.0,0.0,0.0,0.0,0.0,0.0,0.0,0.0,0.0,0.0,-8.153,-8.1296,-8.1208,-8.1486,-8.1802,-8.1958,-8.1958,-8.1919,-8.1913,-8.2006,-8.162,-8.1344,-8.1169,-8.0984,-8.0948,-8.0975,-8.0922,-8.1084,-8.1234,-8.1163,-8.1128,-8.1092,-8.1021,-8.0948,-8.0948,-8.073,-8.0582,-8.0358,-8.0054,-7.955,-7.9034,0.0,-3.0392,-3.0626,-3.1208,-3.1208,-3.1441,-3.1998,-3.255,-3.3233,0.0,-3.5024,-3.6145,-3.6904,-3.7358,-3.7596,-3.7596,-3.7785,-3.7998,-3.7998,-3.7974,-3.7974,-3.7974,-3.7974,-3.7974,-3.7974,-3.7974,-3.7974,-3.7974,-3.7974,-3.7974,-3.7974,-3.7974,-3.7974,-3.7974,-3.7974,-3.7974,-3.808,-3.9208,-3.9272,-3.8685,-3.9773,-4.1721,-4.4125,0.0,-5.0184,-5.4783,-5.8014,-6.1722,-6.4917,-6.3364,-5.7954,0.0,0.0,0.0,-4.1211,-3.9891,-3.9489,-3.9489,-3.97,-4.034,-4.1029,-4.1619,-4.2578,0.0,-4.5363,-4.7939,-5.1056,-5.4931,0.0,0.0,0.0,0.0,0.0,0.0,0.0,0.0,0.0,0.0,0.0,0.0,0.0,0.0,0.0,-8.1887,-8.1677,-8.1387,-8.1128,-8.0822,-8.0543,-8.0506,-8.0506,-8.0506,-8.043,-8.0616,-8.1089,-8.0481,-8.0366,-8.0729,-8.0096,-8.0021,-8.0502,-8.0276,-8.0509,-8.1128,-8.1128,-8.1128,-8.1092,-8.0876,-8.0803,-8.0803,-8.0582,-8.0358,-8.013,-7.9665,-7.9231,-7.8705,-2.9922,-3.0157,-3.0509,-3.0879,-3.0995,-3.1112,-3.1441,-3.1787,-3.2342,-3.3119,-3.4803,-3.6036,-3.6688,-3.7036,-3.7251,-3.7251,-3.7465,-3.7702,-3.7702,-3.7892,-3.7974,-3.7974,-3.7974,-3.7974,-3.7974,-3.7974,-3.7974,-3.7974,-3.7974,-3.7974,-3.7974,-3.7974,-3.7974,-3.7974,-3.7974,-3.7974,-3.808,-3.9597,-4.1071,-4.2565,-4.3637,-4.5407,-4.7792,-5.0257,-5.3095,-5.6304,-6.0164,-6.3766,-6.6462,-6.4905,-5.9982,-5.3889,0.0,0.0,0.0,-4.1155,-4.0652,-4.0302,-4.0194,-4.1053,-4.211,-4.2398,0.0,0.0,-4.6213,-4.8437,-5.0991,0.0,0.0,0.0,0.0,0.0,0.0,0.0,0.0,0.0,0.0,0.0,0.0,0.0,0.0,0.0,0.0,-8.1815,-8.1591,-8.1231,-8.0914,-8.0614,-8.0506,-8.0506,-8.0506,-8.0506,-8.0235,-8.0026,-7.9961,-7.9316,-7.881,-7.8438,-7.8566,-7.8894,-7.9366,-7.9747,-8.0368,-8.1128,-8.1128,-8.1128,-8.1092,-8.0876,-8.0803,-8.073,-8.0433,-8.013,-7.9899,-7.9471,-7.8788,-7.798,-2.9804,-3.0039,-3.0274,-3.0762,-3.0898,-3.1015,-3.1112,-3.1325,-3.1787,-3.2342,-3.4246,-3.6105,-3.7534,-3.8524,-3.9259,-4.0009,-4.0019,-3.9894,-3.9735,-3.9278,-3.8921,-3.8631,-3.8526,-3.8315,-3.8185,-3.8185,-3.808,-3.7974,-3.7974,-3.7974,-3.7974,-3.7974,-3.7974,-3.7974,-3.7974,-3.8185,-3.8502,-4.0109,-4.2153,-4.4538,-4.6032,0.0,-5.1608,-5.4105,-5.7077,-6.0282,-6.3631,-6.6738,-6.8973,-6.7342,-6.3174,0.0,-5.3241,-4.8961,-4.5191,0.0,-4.2008,-4.1563,0.0,0.0,0.0,-4.3419,0.0,0.0,0.0,-4.7696,-4.9659,-5.2186,0.0,0.0,0.0,0.0,0.0,0.0,0.0,0.0,0.0,0.0,0.0,0.0,0.0,0.0,0.0,-8.0533,-8.0355,-8.0061,-7.9759,-7.9736,-8.0064,-7.9999,-8.0121,-8.0431,-8.0195,-7.9822,-7.9387,-7.8789,-7.8146,-7.7666,-7.7495,-7.783,-7.8431,-7.9025,-7.9752,-8.0513,-8.0947,-8.1021,-8.0948,-8.073,-8.0582,-8.0508,-8.0283,-7.9977,-7.9665,-7.9034,-7.8336,-7.7597,-2.9686,-2.9804,-3.0039,-3.0645,-3.0762,-3.0879,-3.0898,-3.1112,-3.1441,-3.1903,-3.3974,-3.6374,-3.8683,-4.0501,-4.2087,-4.3402,-4.3513,-4.3145,-4.2383,-4.1282,-4.0313,-3.9569,-3.9129,-3.8841,-3.8421,-3.8421,-3.8315,-3.7974,-3.7974,-3.7974,-3.7974,-3.7974,-3.7974,-3.7974,-3.808,-3.8502,-3.9208,-4.0893,-4.3106,-4.5795,0.0,-5.1141,-5.4594,-5.7352,-6.0732,-6.4373,-6.7543,-7.0064,-7.1553,-6.9622,-6.6007,-6.142,-5.624,-5.2164,0.0,0.0,0.0,0.0,0.0,0.0,0.0,0.0,0.0,-4.5356,0.0,0.0,0.0,0.0,0.0,0.0,0.0,0.0,0.0,0.0,0.0,0.0,0.0,0.0,0.0,0.0,0.0,0.0,0.0,-7.8513,-7.847,-7.8379,-7.8224,-7.849,-7.9297,-7.9428,-7.9769,-8.0354,-8.0113,-7.9652,-7.9102,-7.8437,-7.7863,-7.7426,-7.6838,-7.7014,-7.7746,-7.8263,-7.8992,-7.9933,-8.0514,-8.0804,-8.0803,-8.0508,-8.0358,-8.013,-8.013,-7.9822,-7.9347,-7.8622,-7.791,-7.712,-2.945,-2.9568,-2.9686,-3.0392,-3.0509,-3.0509,-3.0879,-3.0898,-3.1344,-3.2457,-3.4593,-3.6939,-3.9145,-4.2294,-4.4556,-4.5384,-4.648,-4.631,-4.4316,-4.3573,-4.2286,-4.0338,-3.9802,-3.9208,-3.8421,-3.8421,-3.8315,-3.7974,-3.7974,-3.7974,-3.7974,-3.7974,-3.7974,-3.7974,-3.8526,-3.9183,-4.0236,-4.2269,-4.464,-4.7287,-5.0266,-5.2922,0.0,-5.9293,-6.2767,-6.6207,-7.1193,-7.3344,-7.3365,0.0,-6.6973,-6.3125,0.0,-5.5025,-5.0713,-4.7954,0.0,0.0,0.0,0.0,0.0,0.0,-4.4959,0.0,0.0,0.0,-4.7235,-4.8482,0.0,0.0,0.0,0.0,0.0,0.0,0.0,0.0,0.0,0.0,0.0,0.0,0.0,0.0,0.0,0.0,-7.5776,-7.6448,-7.6402,-7.6924,-7.8385,-7.9172,-7.9761,-8.0197,-7.9865,-7.9387,-7.8854,-7.8202,-7.7607,-7.7155,-7.6773,-7.6947,-7.7575,-7.7615,-7.8448,-7.9933,-7.9792,-8.0154,-8.073,-8.0358,-8.013,-7.9899,-7.9779,-7.9427,-7.8906,-7.8237,-7.7333,-7.6427,-2.945,-2.945,-2.9686,-3.0039,-3.0157,-3.0157,-3.0294,-3.1073,-3.2404,-3.4662,-3.7535,-4.0933,-4.5165,-4.8567,-5.1576,-5.389,0.0,-5.3134,0.0,0.0,-4.6512,-4.3835,-4.2501,-4.1115,-3.9597,-3.9312,-3.8687,-3.7974,-3.7974,-3.7974,-3.7974,-3.7974,-3.7974,-3.7998,-3.8949,-3.9898,-4.0993,-4.3725,-4.6258,0.0,0.0,-5.4756,0.0,-6.0219,-6.5082,-7.048,-7.3532,-7.4434,-7.3762,0.0,-6.8387,0.0,0.0,0.0,0.0,-5.3016,0.0,0.0,0.0,0.0,0.0,0.0,0.0,0.0,-4.5758,0.0,-4.5641,0.0,0.0,0.0,0.0,0.0,0.0,0.0,-5.2386,0.0,0.0,0.0,0.0,0.0,0.0,0.0,0.0,0.0,0.0,0.0,-7.1757,-7.3041,-7.537,-7.6397,-7.768,-7.9476,-7.9149,-7.8803,-7.8437,-7.792,-7.7365,-7.6773,-7.6578,-7.656,-7.6818,-7.7289,-7.7869,-7.8557,-7.9287,-7.972,-7.9935,-8.0028,-7.9822,-7.9471,-7.8987,-7.8657,-7.8371,-7.7597,-7.6702,-7.5865,-2.9665,-2.948,-2.945,-2.9686,-2.9804,-2.9922,-3.0372,-3.1808,-3.4011,-3.7118,-4.0871,-4.5261,-5.0728,-5.4694,-5.8235,-6.1367,-6.1189,-5.9885,0.0,0.0,-5.112,-4.7732,-4.5631,-4.3369,-4.0898,-4.0338,-3.9357,-3.7974,-3.7974,-3.7974,-3.7974,-3.7974,-3.7974,-3.8104,-3.9382,-4.0512,-4.1855,0.0,-4.8028,-5.0559,-5.4388,-5.7614,-6.022,-6.2605,-6.7826,-7.4029,-7.4978,-7.5183,-7.4612,-7.2054,-7.0075,0.0,-6.5877,0.0,-6.1007,0.0,0.0,0.0,-5.1566,0.0,0.0,0.0,0.0,0.0,0.0,0.0,0.0,0.0,0.0,0.0,0.0,0.0,-4.6412,-4.7884,0.0,-5.0351,0.0,0.0,0.0,0.0,0.0,0.0,0.0,0.0,0.0,-6.6475,-6.7393,-6.9295,-7.2567,-7.408,-7.6026,-7.8561,-7.8508,-7.8332,-7.8146,-7.7688,-7.7144,-7.6614,-7.6378,-7.6275,-7.6311,-7.6891,-7.7289,-7.751,-7.8674,-7.9179,-7.921,-7.9655,-7.955,-7.9034,-7.8287,-7.7858,-7.7597,-7.6884,-7.6148,-7.5388,-3.0167,-2.9525,-2.9094,-2.945,-2.9568,-3.002,-3.1381,-3.335,-3.5938,-3.9393,0.0,0.0,0.0,0.0,0.0,0.0,0.0,-6.5233,-6.2162,0.0,-5.582,-5.1282,-4.8835,-4.5855,0.0,-4.1312,-3.9965,-3.7974,-3.7974,-3.7974,-3.7974,-3.7974,-3.7974,-3.8104,-3.9699,-4.1363,-4.3138,-4.6807,-5.0279,-5.3487,-5.7251,-6.1972,-6.6858,0.0,-7.1098,-7.5664,-7.5396,0.0,0.0,-7.3556,-7.2002,0.0,0.0,0.0,0.0,0.0,0.0,0.0,0.0,0.0,0.0,-5.037,0.0,0.0,0.0,0.0,-4.7136,0.0,0.0,0.0,0.0,-4.7773,-4.7403,-4.8578,-4.8317,0.0,0.0,0.0,0.0,0.0,0.0,0.0,0.0,0.0,0.0,-6.2971,-6.4216,-6.6588,-7.0575,-7.3353,-7.57,-7.768,-7.8125,-7.8189,-7.7977,-7.751,-7.7056,-7.6614,-7.6378,-7.6275,-7.6275,-7.6311,-7.6678,-7.7266,-7.7847,-7.8529,-7.906,-7.9423,-7.9347,-7.8788,-7.791,-7.712,-7.6427,-7.6148,-7.558,-7.4803,-3.1275,-3.0578,-3.0148,-3.0026,-2.9904,-3.0717,-3.2926,-3.5725,0.0,0.0,0.0,0.0,0.0,-6.6254,-6.9595,0.0,0.0,-7.126,-6.8222,-6.5216,0.0,0.0,0.0,-5.0669,0.0,0.0,0.0,-3.9625,-3.8883,-3.8315,-3.7998,-3.8359,-3.8527,-3.8575,-4.0316,-4.1651,0.0,0.0,0.0,0.0,0.0,-6.6368,-7.0375,0.0,0.0,-7.6038,-7.6254,-7.7078,0.0,-7.5955,-7.4926,-7.4136,-7.2931,-7.143,-6.9847,-6.7884,-6.6128,0.0,0.0,0.0,-5.9166,-5.6234,0.0,0.0,0.0,0.0,0.0,0.0,0.0,0.0,0.0,-4.8329,-4.7509,-4.731,-4.677,-4.6646,0.0,0.0,0.0,0.0,0.0,0.0,0.0,0.0,0.0,-5.8295,-5.9513,-6.2086,0.0,-6.858,-7.1228,-7.4718,-7.537,-7.5856,-7.629,-7.6696,-7.6589,-7.6063,-7.6221,-7.6275,-7.6275,-7.6275,-7.6353,-7.6473,-7.7055,-7.7631,-7.8198,-7.8484,-7.861,-7.8574,-7.7509,-7.6611,-7.5865,-7.5484,-7.4902,-7.4306,-3.2312,-3.1607,-3.0909,-3.0259,-3.0556,-3.2007,0.0,0.0,0.0,0.0,-5.6311,0.0,-6.766,0.0,-7.4326,0.0,-7.6199,-7.5363,-7.3145,-6.9958,0.0,-6.317,-5.9655,0.0,0.0,0.0,0.0,0.0,-4.1209,-4.007,-3.9169,-3.9345,-3.9298,-3.9128,-4.0636,-4.1688,-4.2783,-4.7455,-5.1169,0.0,0.0,-6.871,0.0,0.0,-7.356,-7.6963,0.0,-7.7996,-7.9017,-7.7891,-7.7302,-7.6842,-7.609,-7.5225,-7.4178,-7.2893,-7.1669,-7.0268,-6.7933,-6.6347,0.0,-6.1069,-5.9038,0.0,-5.4857,0.0,0.0,0.0,0.0,0.0,0.0,-5.0191,-4.8665,-4.7405,-4.6244,-4.576,0.0,-4.7605,0.0,0.0,0.0,0.0,0.0,0.0,-5.314,-5.4597,-5.5915,-5.85,0.0,0.0,-6.7503,-7.1263,-7.2696,-7.3793,-7.4558,-7.5705,-7.6162,-7.5898,-7.6207,-7.6275,-7.6311,-7.6208,-7.6108,-7.5937,-7.6589,-7.7163,-7.773,-7.8015,-7.82,-7.8322,-7.7154,-7.6241,-7.5518,-7.5033,-7.4406,-7.3698,-3.3253,-3.2403,-3.154,0.0,-3.1436,0.0,0.0,0.0,-4.8208,0.0,-6.1257,-6.6858,-7.1743,-7.4744,-7.7092,-7.896,-7.8419,-7.7599,-7.6733,-7.3479,0.0,0.0,-6.4986,-6.1245,-5.6672,0.0,0.0,0.0,0.0,-4.2995,-4.1336,-4.0873,-4.0269,-3.9681,-4.0832,-4.1743,-4.2837,-4.6957,-5.1165,-5.562,-6.3555,-6.9116,-7.2725,-7.3043,0.0,-7.8412,-7.7792,-7.8834,-8.0334,-7.937,-7.9122,-7.921,-7.906,-7.8418,-7.7674,-7.7329,-7.6506,-7.5149,-7.2733,-7.0947,-6.8897,-6.5115,0.0,0.0,0.0,0.0,-6.0551,0.0,0.0,0.0,0.0,0.0,-5.0957,-4.8909,-4.6897,-4.6088,-4.7504,-4.8033,0.0,0.0,0.0,0.0,0.0,-4.986,-5.0597,-5.2075,-5.3462,-5.5845,0.0,0.0,-6.4572,-6.734,-7.0094,-7.1936,-7.2799,-7.4649,-7.573,-7.6022,-7.6145,-7.6197,-7.627,-7.6068,-7.5934,-7.5834,-7.6374,-7.6981,-7.7469,-7.7866,-7.8084,-7.8031,-7.685,-7.5926,-7.5131,-7.4672,-7.3935,-7.3214,-3.4363,-3.2638,-3.1817,0.0,-3.3401,-3.5248,0.0,0.0,0.0,0.0,-6.5225,-7.0476,-7.4401,-7.7272,-7.9025,-7.9499,-8.0124,0.0,0.0,0.0,0.0,-7.2532,-7.0178,-6.7211,-6.3608,-6.0283,0.0,-5.1395,0.0,-4.5468,-4.245,-4.1929,-4.1139,-4.021,-4.0967,-4.1663,-4.2451,-4.5822,-5.1942,-5.9738,-6.4322,-6.9133,0.0,0.0,-7.7226,-7.9572,-7.8824,-7.9803,-8.1466,-8.1213,-8.1136,-8.1078,-8.0378,-7.999,-7.968,-7.8959,-7.8571,-7.8202,-7.7316,-7.6149,-7.4664,-7.2543,-7.115,-6.9565,0.0,0.0,0.0,0.0,0.0,0.0,0.0,0.0,0.0,-5.022,-4.8013,-4.7033,-4.7868,0.0,0.0,-4.9649,0.0,0.0,-4.9708,-4.9767,-5.031,-5.1647,-5.2359,0.0,0.0,0.0,0.0,-6.3606,-6.6126,-6.839,-7.0448,-7.2399,-7.3915,-7.4915,-7.4852,-7.5285,-7.6155,-7.5725,-7.5598,-7.5834,-7.5801,-7.6333,-7.7281,-7.7064,-7.738,-7.7893,-7.6576,-7.5258,-7.4171,-7.3731,-7.3318,-7.29,-3.486,-3.2746,0.0,-3.3887,0.0,0.0,-4.3677,0.0,0.0,-6.3318,-6.9056,0.0,-7.6338,-7.8711,-8.0151,-8.04,-8.0764,0.0,-7.9948,0.0,0.0,-7.6104,-7.4404,-7.1933,-6.8629,-6.5566,0.0,-5.6384,0.0,-4.8933,-4.4732,-4.3753,-4.2434,-4.0967,-4.1257,-4.1745,-4.2562,-4.6919,-5.3152,-6.046,-6.4568,-6.9274,0.0,-7.5627,-7.7885,-8.0058,-7.968,-8.0549,-8.1892,-8.1892,-8.1892,-8.1815,-8.131,-8.1154,-8.1077,-8.059,-8.0487,-8.0409,-7.9835,-7.9213,-7.8282,-7.663,-7.5721,-7.4692,-7.2714,-7.2463,-7.2016,0.0,0.0,0.0,0.0,0.0,0.0,-5.1645,-5.0101,-4.9497,0.0,0.0,0.0,0.0,-5.0519,0.0,-5.05,-5.0045,-4.9997,-5.0737,-5.1193,0.0,0.0,0.0,0.0,-6.1006,-6.3948,-6.655,-6.8691,-7.0654,-7.2327,-7.367,-7.3846,-7.4499,-7.5584,-7.5421,-7.5478,-7.5657,-7.5442,-7.6081,-7.7204,-7.6773,-7.7005,-7.7421,-7.5798,-7.4506,-7.3558,-7.3214,-7.3005,-7.2827,-3.517,-3.3135,0.0,0.0,0.0,0.0,0.0,-5.504,0.0,-6.7403,0.0,-7.5861,-7.7625,-7.9389,-8.0694,-8.1232,0.0,-8.1012,-8.1622,-8.0522,-7.954,-7.8885,-7.7866,-7.5791,-7.2695,-7.0155,-6.6446,0.0,0.0,-5.2673,-4.7758,-4.5678,-4.3624,-4.1727,-4.1687,-4.2125,-4.3508,-4.9154,-5.4636,-5.9889,-6.4953,-6.9958,-7.445,-7.6082,-7.8207,-8.0338,-8.0528,-8.1154,-8.1892,-8.1892,-8.1892,-8.1892,-8.1892,-8.1892,-8.1911,-8.1926,-8.1959,-8.1836,-8.1087,-8.0844,-8.0417,-7.8864,-7.8409,-7.8067,-7.7199,-7.7082,-7.6661,-7.4781,-7.3479,0.0,0.0,0.0,0.0,-5.3442,0.0,0.0,0.0,0.0,0.0,0.0,0.0,0.0,-5.1742,-5.0662,-4.9907,0.0,0.0,0.0,0.0,0.0,0.0,-5.9223,-6.2758,0.0,-6.7422,0.0,-7.0869,-7.2469,-7.2979,-7.3797,-7.4863,-7.5189,-7.54,-7.5478,-7.5297,-7.5933,-7.7127,-7.6693,-7.672,-7.6725,-7.4868,-7.38,-7.3318,-7.3005,-7.2932,-7.2827,-3.6703,-3.5187,0.0,0.0,0.0,-4.9486,-5.7009,-5.9755,-6.2932,-6.8891,-7.3177,-7.624,-7.7625,-7.924,-8.0508,-8.1092,-8.1332,0.0,0.0,0.0,0.0,-8.0923,-8.0151,-7.9037,-7.7527,-7.4158,-7.0177,0.0,0.0,-5.4905,-4.9644,-4.653,-4.406,-4.2225,-4.1838,-4.3482,-4.6705,-5.1022,0.0,-6.2412,-6.7366,-7.2261,-7.6883,-7.8631,-8.029,-8.1582,-8.1621,-8.1757,-8.1892,-8.1892,-8.1892,-8.1892,-8.1892,-8.189,-8.1926,-8.1959,-8.2046,-8.2065,-8.1948,-8.1936,-8.1859,-8.1601,-8.1516,-8.1276,-8.0381,-8.0222,-7.9717,-7.789,-7.6551,-7.4435,-7.0239,0.0,0.0,0.0,0.0,0.0,0.0,0.0,0.0,0.0,0.0,-5.2618,0.0,0.0,0.0,0.0,0.0,0.0,0.0,0.0,0.0,0.0,-6.0856,0.0,0.0,0.0,-6.9475,-7.1684,-7.1796,-7.2872,-7.472,-7.4809,-7.5051,-7.5478,-7.5297,-7.5858,-7.693,-7.6418,-7.6123,-7.5865,-7.4605,-7.38,-7.3318,-7.3005,-7.2721,-7.2615,-3.9802,0.0,0.0,0.0,0.0,0.0,0.0,-6.5465,0.0,-7.2509,-7.5501,-7.7535,-7.823,-7.9339,-8.0207,-8.0582,-8.1056,-8.1396,-8.1755,-8.2334,-8.2463,-8.2061,-8.1806,-8.0793,-7.8953,-7.6344,-7.2807,-6.84,0.0,0.0,-5.2356,-4.8794,-4.6126,-4.432,-4.511,-4.6929,0.0,0.0,0.0,-6.4883,-7.0051,-7.462,-7.8492,-8.0188,-8.1281,-8.1892,-8.1892,-8.1892,-8.1892,-8.1892,-8.1892,-8.1892,-8.1892,-8.189,-8.1904,-8.1968,-8.2039,-8.2094,-8.2188,-8.2221,-8.2265,-8.2285,-8.2305,-8.2176,-8.1786,-8.1669,-8.1284,-7.9942,-7.8816,-7.6559,-7.1712,-6.6693,0.0,0.0,0.0,0.0,0.0,0.0,0.0,0.0,0.0,0.0,0.0,0.0,0.0,0.0,0.0,0.0,0.0,0.0,0.0,0.0,0.0,0.0,0.0,0.0,0.0,-7.1446,-7.1407,-7.2482,-7.4485,-7.4494,-7.4841,-7.5334,-7.5262,-7.5858,-7.6887,-7.6481,-7.6107,-7.5614,-7.4206,-7.3492,-7.3285,-7.2794,-7.2615,-7.2508,0.0,-4.4462,0.0,0.0,-5.3697,0.0,-6.5932,-7.0906,-7.4336,-7.5819,-7.7601,-7.8686,-7.8686,-7.9435,-7.9977,-8.0207,-8.0658,-8.1232,-8.1982,-8.2684,-8.2962,-8.2777,-8.2804,-8.182,-7.9679,-7.7839,-7.4786,0.0,0.0,0.0,0.0,-5.124,-4.861,0.0,0.0,0.0,0.0,0.0,-6.3383,-6.7995,-7.2992,-7.684,-7.9785,-8.1092,-8.1734,-8.1892,-8.1892,-8.1892,-8.1892,-8.1892,-8.1892,-8.1892,-8.1892,-8.1908,-8.192,-8.1983,-8.2073,-8.2137,-8.218,-8.2264,-8.2281,-8.2299,-8.2293,-8.2293,-8.2293,-8.2293,-8.2098,-8.1317,-8.0228,-7.7892,-7.297,-6.9788,0.0,0.0,0.0,0.0,0.0,0.0,0.0,0.0,0.0,0.0,-5.5019,0.0,0.0,0.0,0.0,0.0,0.0,0.0,0.0,0.0,0.0,-6.3132,-6.6057,0.0,-6.9046,0.0,-7.1596,-7.2622,-7.4309,-7.4463,-7.479,-7.5225,-7.5225,-7.5783,-7.6684,-7.6464,-7.602,-7.5388,-7.3902,-7.3318,-7.3214,-7.2721,-7.2508,-7.2508,0.0,0.0,0.0,0.0,0.0,0.0,0.0,-7.4809,-7.6935,-7.6781,-7.7921,-7.8686,-7.8686,-7.9435,-7.9977,-8.0207,-8.0582,-8.1056,-8.1579,-8.2434,-8.3047,-8.3301,-8.2998,-8.2345,-8.1407,-7.9004,-7.5832,0.0,0.0,-6.1545,0.0,0.0,0.0,0.0,0.0,0.0,0.0,-6.418,-6.8546,-7.2369,-7.6308,-7.9092,-8.0897,-8.1499,-8.1794,-8.1892,-8.1892,-8.1892,-8.1892,-8.1892,-8.1892,-8.1892,-8.1892,-8.1943,-8.1998,-8.2075,-8.2143,-8.2211,-8.2265,-8.2285,-8.2299,-8.2293,-8.2293,-8.2293,-8.2293,-8.2293,-8.2241,-8.2026,-8.0474,-7.8244,-7.5353,-7.271,-7.0034,0.0,0.0,0.0,0.0,0.0,-5.9456,-5.8006,0.0,0.0,0.0,-5.374,0.0,0.0,0.0,0.0,0.0,0.0,0.0,-5.6104,0.0,-6.1785,-6.4669,-6.6699,0.0,-7.1323,-7.2459,-7.3484,-7.4401,-7.4822,-7.5065,-7.5225,-7.5225,-7.5443,-7.5964,-7.6286,-7.5832,-7.4902,-7.3698,-7.311,-7.2932,-7.2615,-7.2508,-7.2508,0.0,0.0,0.0,0.0,0.0,0.0,0.0,-7.7013,-7.8514,-7.8662,-7.9144,-7.9435,-7.9435,-7.9721,-7.9899,-7.9977,-8.0508,-8.1021,-8.1372,-8.2242,-8.2927,-8.3413,-8.3376,-8.3029,-8.2345,-8.0393,-7.7842,0.0,0.0,0.0,0.0,0.0,0.0,0.0,0.0,-6.1933,-6.4707,-6.8945,-7.2328,-7.5122,-7.7783,-7.9761,-8.1147,-8.1514,-8.1713,-8.1854,-8.1873,-8.1892,-8.1892,-8.1892,-8.1892,-8.1892,-8.189,-8.1937,-8.2012,-8.2078,-8.214,-8.2221,-8.2264,-8.2281,-8.2293,-8.2293,-8.2293,-8.2293,-8.2293,-8.2287,-8.2226,-8.2123,-8.0876,-7.916,-7.6944,-7.4889,-7.2754,0.0,0.0,0.0,0.0,0.0,0.0,-6.0616,0.0,-5.7396,0.0,0.0,0.0,0.0,0.0,0.0,0.0,0.0,0.0,-5.4979,0.0,-6.0804,-6.4215,-6.6667,-6.9451,-7.2579,-7.2944,-7.3744,-7.4822,-7.4754,-7.5186,-7.5938,-7.6027,-7.6182,-7.6461,-7.6097,-7.5546,-7.4803,-7.3492,-7.3005,-7.2827,-7.2615,-7.2508,-7.2508,-6.4988,0.0,-6.7199,0.0,-7.206,-7.4508,-7.6964,-7.8529,-7.955,-7.9822,-7.9899,-7.9899,-7.9899,-7.9899,-7.9899,-7.9899,-8.0358,-8.0767,-8.1091,-8.1879,-8.2622,-8.3202,-8.3602,0.0,-8.2834,-8.1707,-7.9654,-7.6768,-7.2686,0.0,0.0,0.0,0.0,0.0,-6.4979,-6.7526,-6.9806,-7.3035,-7.5567,-7.7492,-7.9207,-8.0745,-8.1947,-8.2225,-8.2405,-8.2513,-8.2611,-8.2631,-8.2631,-8.2631,-8.2631,-8.2553,-8.2064,-8.1952,-8.2039,-8.2101,-8.2176,-8.2226,-8.2295,-8.2315,-8.2293,-8.2293,-8.2293,-8.2293,-8.2293,-8.2241,-8.2162,-8.2026,-8.1252,-8.0048,-7.8111,-7.6608,-7.499,-7.3016,0.0,0.0,0.0,0.0,0.0,0.0,-6.0134,-5.815,-5.634,-5.4167,0.0,0.0,0.0,0.0,0.0,0.0,0.0,0.0,0.0,0.0,0.0,-6.6084,-6.9401,-7.3036,-7.3527,-7.4235,-7.5133,-7.4863,-7.5299,-7.6253,-7.6533,-7.6631,-7.6659,-7.5959,-7.5258,-7.4406,-7.3422,-7.29,-7.2721,-7.2615,-7.2508,-7.2721,-7.0403,-7.1645,-7.311,-7.4568,-7.6053,-7.7473,-7.8973,-7.955,-7.9899,-7.9899,-7.9899,-7.9899,-7.9899,-7.9899,-7.9899,-7.9899,-8.0054,-8.0358,-8.0803,-8.1441,-8.2141,0.0,0.0,-8.3338,-8.2834,-8.2796,-8.1181,-7.7877,0.0,0.0,-6.7687,0.0,-6.5541,-6.7156,-7.0319,-7.2541,-7.4164,-7.6372,-7.8177,-7.9696,-8.1115,-8.2403,-8.3595,-8.394,-8.415,-8.4259,-8.4359,-8.4379,-8.4379,-8.4379,-8.4379,-8.4068,-8.2414,-8.1983,-8.2089,-8.2117,-8.2171,-8.2304,-8.231,-8.2293,-8.2293,-8.2293,-8.2293,-8.2293,-8.2293,-8.2241,-8.2104,-8.177,-8.1546,-8.0806,-7.8931,-7.7919,-7.6546,-7.4011,0.0,0.0,0.0,0.0,0.0,-6.2435,-6.021,-5.8349,-5.71,0.0,0.0,0.0,0.0,0.0,0.0,0.0,0.0,-5.259,-5.4229,0.0,-6.1018,-6.4677,-6.8403,-7.2116,-7.4293,-7.5303,-7.5189,-7.5189,-7.547,-7.5991,-7.6419,-7.6349,-7.5928,-7.5959,-7.5064,-7.3731,-7.3389,-7.3005,-7.2508,-7.2508,-7.2721,-7.29,-7.2834,-7.3831,-7.5037,-7.6867,-7.7782,-7.8588,-7.9515,-8.0285,-8.072,-8.072,-8.1148,-8.147,-8.147,-8.0542,-7.9899,0.0,-8.0054,-8.0358,0.0,-8.1302,-8.1982,-8.2684,-8.3202,-8.349,-8.3463,-8.3044,-8.2045,-8.043,0.0,0.0,0.0,-7.0447,-7.0943,-7.2738,-7.4774,-7.6691,-7.8476,-7.9855,-8.0801,-8.1527,-8.2177,-8.2871,-8.3572,-8.39,-8.4142,-8.4255,-8.4339,-8.4418,-8.4418,-8.4418,-8.4418,-8.432,-8.3898,-8.3336,-8.283,-8.2332,-8.2219,-8.2304,-8.231,-8.2293,-8.2293,-8.2293,-8.2293,-8.2287,-8.2241,-8.2073,-8.1875,-8.16,-8.1426,-8.0944,-7.9653,-7.8729,-7.766,-7.6148,-7.4043,0.0,0.0,0.0,0.0,-6.3833,-6.1176,-5.9251,0.0,-5.6683,0.0,0.0,0.0,0.0,0.0,0.0,0.0,0.0,-5.7389,0.0,-6.3236,-6.6426,-6.9684,-7.3057,-7.4329,-7.4994,-7.5225,-7.576,-7.6289,-7.6808,-7.7037,-7.7118,-7.6952,-7.5918,-7.4868,-7.3902,-7.3318,-7.2794,-7.2508,-7.2508,-7.2615,-7.2688,-7.4359,-7.5059,-7.6119,-7.7667,-7.8701,-7.9493,-8.0092,-8.0927,-8.1505,-8.1505,-8.1898,-8.2183,-8.2183,-8.1362,0.0,-8.0756,-8.0584,-8.0672,-8.1014,-8.1272,-8.1715,-8.237,-8.2987,-8.3489,-8.3784,0.0,0.0,-8.2045,-7.985,-7.7533,-7.5308,-7.5043,-7.5567,-7.6848,-7.8251,-7.9613,-8.0881,-8.152,-8.2189,-8.2823,-8.3167,-8.3753,-8.451,-8.4839,-8.5061,-8.5203,-8.531,-8.5389,-8.5389,-8.5389,-8.5369,-8.5329,-8.5136,-8.4727,-8.4167,-8.3404,-8.3201,-8.3161,-8.2857,-8.2762,-8.2684,-8.2371,-8.2293,-8.228,-8.2162,-8.1948,-8.1718,-8.1507,-8.1362,-8.0974,-8.0008,-7.9062,-7.8115,-7.7144,-7.4849,-7.2801,-7.1814,0.0,0.0,0.0,0.0,0.0,0.0,-5.8915,0.0,0.0,0.0,0.0,0.0,0.0,0.0,-5.812,-5.9648,0.0,-6.5067,-6.7321,-7.0103,-7.3301,-7.4396,-7.4993,-7.5225,-7.6045,-7.6645,-7.7086,-7.7389,-7.7418,-7.712,-7.602,-7.4966,-7.3902,-7.3422,-7.3037,-7.2615,-7.2615,-7.2688,-7.29,-7.487,-7.5518,0.0,0.0,-7.9021,0.0,-8.0714,-8.1631,-8.229,-8.229,-8.2326,-8.2362,-8.2362,-8.2362,-8.2362,-8.2362,0.0,0.0,0.0,-8.1272,-8.1408,-8.2121,-8.2745,-8.3338,-8.3784,-8.402,-8.3697,-8.2909,-8.0709,-7.9539,-7.9253,-7.9216,-7.9352,-7.9689,-8.0821,-8.1447,-8.1782,-8.1934,-8.2642,-8.3695,-8.4043,-8.4939,-8.6126,-8.6461,-8.6687,-8.6832,-8.6941,-8.6982,-8.6982,-8.6982,-8.6982,-8.6882,-8.6226,-8.6052,-8.5905,-8.5062,-8.4804,-8.4638,-8.3828,-8.3582,-8.3386,-8.2606,-8.2326,-8.2226,-8.205,-8.182,-8.162,-8.1437,-8.128,-8.0915,-7.9977,-7.9031,-7.8052,-7.7067,-7.4746,-7.2579,-7.1106,0.0,0.0,0.0,0.0,0.0,0.0,-6.1875,-6.1104,0.0,0.0,0.0,0.0,0.0,-5.9452,-6.1094,-6.139,-6.3164,-6.6605,-6.7836,-7.0034,-7.3157,-7.4551,-7.5225,-7.5332,-7.6117,-7.6676,-7.7036,-7.754,-7.7453,-7.6793,-7.63,-7.5161,-7.3731,-7.3764,-7.3454,-7.2932,-7.2932,-7.311,-7.3285,0.0,0.0,-7.6965,-7.8197,-7.9653,-8.095,-8.1566,-8.245,-8.3111,-8.3111,-8.3646,-8.4039,-8.4039,-8.4039,-8.4039,-8.4039,-8.2754,-8.2128,-8.2553,-8.2102,-8.2211,-8.2964,-8.3078,-8.3281,-8.3657,-8.3967,-8.3998,-8.3772,-8.2617,-8.1986,-8.1896,-8.1297,-8.1334,-8.1986,-8.2264,-8.2857,-8.3509,-8.3664,-8.4039,-8.453,-8.4927,-8.5511,-8.6184,-8.6544,-8.6761,-8.6877,-8.6961,-8.6982,-8.6982,-8.6982,-8.704,-8.705,-8.6927,-8.6935,-8.6691,-8.5224,-8.4804,-8.4756,-8.457,-8.448,-8.4284,-8.3426,-8.2686,-8.2073,-8.189,-8.1679,-8.1484,-8.1362,-8.1205,-8.0854,-7.9977,-7.9031,-7.786,-7.63,-7.4363,-7.2387,-7.0323,-6.8097,0.0,0.0,-6.4062,-6.3901,-6.4497,-6.4143,-6.417,0.0,0.0,0.0,0.0,-6.5009,-6.4579,-6.4466,-6.6088,-6.7656,-6.904,-7.1013,-7.2881,-7.4628,-7.5004,-7.551,-7.6152,-7.6902,-7.75,-7.8086,-7.8433,-7.8196,-7.7544,-7.6702,-7.5546,-7.4273,-7.4105,-7.3525,-7.2932,-7.311,-7.3214,-7.3318,-7.5873,-7.6671,-7.7686,-7.881,-8.0333,-8.159,-8.2217,-8.3187,-8.3932,-8.3932,-8.4324,-8.461,-8.461,-8.461,-8.461,-8.461,-8.3468,-8.2914,-8.3265,-8.2932,-8.3047,-8.3636,-8.3645,-8.3781,-8.4162,-8.41,-8.411,-8.411,-8.3622,-8.3397,-8.3397,-8.2946,-8.2984,-8.3397,-8.3397,-8.366,-8.4073,-8.4331,-8.4637,-8.4924,-8.5395,-8.5846,-8.6277,-8.6571,-8.6785,-8.6899,-8.6961,-8.6982,-8.6982,-8.7021,-8.7037,-8.7121,-8.7191,-8.7302,-8.717,-8.6249,-8.5971,-8.5908,-8.5501,-8.5377,-8.5058,-8.3795,-8.304,-8.2481,-8.1908,-8.1596,-8.1426,-8.1291,-8.1184,-8.0823,-7.9977,-7.8999,-7.7784,-7.6117,-7.3998,-7.188,-7.0001,-6.8026,0.0,-6.5622,-6.5542,-6.5855,-6.6588,-6.6552,-6.6748,-6.7322,0.0,0.0,-6.7858,-6.8358,-6.8472,-6.8294,-6.9306,-7.0522,-7.193,-7.3362,-7.4347,-7.4875,-7.5048,-7.5617,-7.6438,-7.7152,-7.7785,-7.8292,-7.8796,-7.8539,-7.7632,-7.6884,-7.5832,-7.4671,-7.4539,-7.4138,-7.3525,-7.3698,-7.38,-7.3902,-7.7077,-7.7647,-7.8371,-7.9383,-8.1011,-8.2364,-8.2864,-8.3934,-8.461,-8.461,-8.461,-8.461,-8.461,-8.461,-8.461,-8.461,-8.3967,-8.3656,-8.3896,-8.3726,-8.3846,-8.441,-8.4458,-8.4637,-8.5021,-8.4625,-8.4411,-8.426,-8.426,-8.4223,-8.411,-8.411,-8.411,-8.411,-8.411,-8.411,-8.4125,-8.4492,-8.4741,-8.5056,-8.559,-8.6022,-8.6336,-8.6623,-8.6809,-8.692,-8.6961,-8.6982,-8.7001,-8.7019,-8.705,-8.7152,-8.7261,-8.7354,-8.7381,-8.7416,-8.7397,-8.7251,-8.651,-8.6197,-8.5715,-8.4191,-8.3543,-8.301,-8.2087,-8.1624,-8.135,-8.1205,-8.1154,-8.0785,-7.9754,-7.8859,-7.7713,-7.589,-7.3629,-7.1526,-6.9962,0.0,-6.7085,-6.6959,-6.7333,-6.7901,-6.8744,-6.878,-6.884,-6.9135,-6.8439,-6.8529,0.0,-7.049,-7.1323,-7.2046,-7.1779,-7.2596,-7.4549,-7.4957,-7.4952,-7.458,-7.512,-7.5796,-7.6581,-7.733,-7.7886,-7.839,-7.8948,-7.8622,-7.7597,-7.7065,-7.6148,-7.5,-7.5033,-7.4738,-7.4206,-7.4506,-7.4605,-7.4639,-7.7077,-7.8085,-7.925,-8.0209,-8.1847,-8.3209,-8.3642,-8.4255,-8.461,-8.461,-8.461,-8.461,-8.461,-8.461,-8.461,-8.461,-8.4503,-8.4559,-8.496,-8.4633,-8.4682,-8.5458,-8.5445,-8.5589,-8.588,-8.6049,-8.58,-8.5124,-8.5124,-8.4786,-8.411,-8.411,-8.411,-8.411,-8.411,-8.4163,-8.428,-8.4492,-8.4787,-8.5105,-8.5665,-8.6082,-8.6384,-8.6674,-8.6877,-8.6982,-8.6982,-8.6982,-8.7001,-8.7055,-8.7144,-8.7206,-8.7282,-8.7362,-8.7382,-8.7392,-8.7414,-8.7368,-8.7212,-8.6652,-8.6003,-8.5682,-8.4363,-8.3036,-8.2699,-8.1942,-8.1291,-8.1154,-8.1093,-8.0561,-7.8922,-7.8442,-7.7297,-7.4235,-7.3277,-7.2103,-6.9769,0.0,-6.9234,-6.8354,-6.9133,-6.9665,-6.9463,-6.9892,-7.0069,-6.9778,-6.9498,-6.9931,-7.1344,-7.1391,-7.2398,-7.4493,-7.4378,-7.4566,-7.5285,-7.5262,-7.512,-7.5083,-7.5831,-7.6616,-7.7366,-7.8151,-7.8817,-7.9329,-7.9276,-7.8788,-7.8031,-7.7421,-7.6519,-7.5614,-7.5614,-7.5291,-7.4803,-7.5131,-7.5228,-7.5131,-7.8281,-7.9027,-7.9933,-8.0966,-8.2209,-8.3173,-8.3819,-8.4194,-8.4445,-8.461,-8.461,-8.461,-8.461,-8.461,-8.461,-8.461,-8.461,-8.4773,-8.5139,-8.5247,-8.5628,-8.6339,-8.6296,-8.6281,-8.6294,-8.6459,-8.6326,-8.595,-8.595,-8.5762,-8.5387,-8.5387,-8.5387,-8.5387,-8.5387,-8.5493,-8.5649,-8.5912,-8.6252,-8.6566,-8.7156,-8.7564,-8.7898,-8.8054,-8.8235,-8.8341,-8.8341,-8.805,-8.77,-8.7789,-8.7581,-8.7248,-8.7336,-8.7379,-8.7416,-8.7381,-8.7407,-8.7407,-8.7407,-8.7073,-8.66,-8.6026,-8.5143,-8.4086,-8.2946,-8.2301,-8.1745,-8.1201,-8.1093,-8.0677,-7.9352,-7.8673,-7.7368,-7.462,-7.3215,0.0,0.0,-6.9628,-6.9626,-6.9382,-7.0649,-7.165,-7.1817,-7.2392,-7.2621,-7.2327,-7.2146,-7.2351,-7.2926,-7.3233,-7.3892,-7.4911,-7.5177,-7.5332,-7.5334,-7.5297,-7.5439,-7.5867,-7.6224,-7.7009,-7.8151,-7.8431,-7.8804,-7.9347,-7.915,-7.8622,-7.798,-7.7544,-7.6918,-7.6088,-7.6088,-7.5899,-7.558,-7.5805,-7.5899,-7.5899,-7.9388,-7.987,-8.0508,-8.1578,-8.2418,-8.3085,-8.3819,-8.4109,-8.4361,-8.461,-8.461,-8.461,-8.461,-8.461,-8.461,-8.461,-8.461,-8.4819,-8.5218,-8.5648,-8.6247,-8.6995,-8.7164,-8.7204,-8.7077,-8.7077,-8.7001,-8.6814,-8.6814,-8.6701,-8.6513,-8.6513,-8.6513,-8.6513,-8.653,-8.6636,-8.6844,-8.7193,-8.7611,-8.7918,-8.8224,-8.8514,-8.8803,-8.8738,-8.8778,-8.8924,-8.8924,-8.8536,-8.8027,-8.8095,-8.7741,-8.7331,-8.7366,-8.7382,-8.7405,-8.7414,-8.7407,-8.7407,-8.7401,-8.733,-8.7114,-8.6257,-8.5738,-8.5064,-8.354,-8.2921,-8.2455,-8.1554,-8.14,-8.0991,-7.9889,-7.9062,-7.779,-7.5428,0.0,0.0,0.0,-7.0305,-7.0535,-7.0751,-7.2257,-7.3419,-7.3927,-7.4432,-7.4616,-7.4431,-7.4306,-7.4188,-7.4175,-7.479,-7.5055,-7.5033,-7.5474,-7.5585,-7.5189,-7.5225,-7.5617,-7.6402,-7.6581,-7.7366,-7.8609,-7.8669,-7.8824,-7.915,-7.8987,-7.8574,-7.798,-7.7719,-7.7189,-7.6679,-7.6679,-7.6461,-7.6275,-7.6461,-7.6587,-7.6587,-7.9596,-8.0175,-8.0804,-8.1896,-8.2635,-8.3385,-8.3819,-8.4109,-8.4361,-8.461,-8.461,-8.461,-8.461,-8.461,-8.461,-8.461,-8.4738,-8.506,-8.5417,-8.6026,-8.6608,-8.7127,-8.8158,-8.871,-8.8804,-8.8804,-8.8466,-8.7715,-8.7715,-8.7302,-8.6513,-8.6513,-8.6513,-8.6513,-8.6636,-8.6844,-8.7095,-8.7475,-8.7912,-8.8231,-8.7748,-8.7755,-8.7913,-8.725,-8.7071,-8.7176,-8.7176,-8.7195,-8.7206,-8.7277,-8.7298,-8.7297,-8.7379,-8.7411,-8.7407,-8.7407,-8.7407,-8.7401,-8.7386,-8.7341,-8.7234,-8.6917,-8.6105,-8.5332,-8.4976,-8.4181,-8.3247,-8.2401,-8.2144,-8.1618,-7.9829,-7.9382,-7.8467,-7.5901,0.0,0.0,-7.2206,-7.2768,-7.3254,-7.2934,-7.3995,-7.4771,-7.4808,-7.4762,-7.4616,-7.4431,-7.4306,-7.4442,-7.4971,-7.508,-7.5277,-7.569,-7.5621,-7.5406,-7.5225,-7.5225,-7.5617,-7.6402,-7.708,-7.7789,-7.8413,-7.9159,-7.9276,-7.887,-7.8906,-7.8657,-7.8272,-7.798,-7.7544,-7.7189,-7.7189,-7.6975,-7.6702,-7.6793,-7.6793,-7.6702,-7.9699,-8.0342,-8.1,-8.199,-8.2579,-8.3208,-8.3819,-8.3989,-8.4158,-8.4527,-8.461,-8.461,-8.461,-8.461,-8.461,-8.461,-8.4738,-8.5024,-8.5495,-8.6137,-8.6921,-8.7821,-8.8473,-8.886,-8.8992,-8.8992,-8.8841,-8.8541,-8.8541,-8.8353,-8.8053,-8.8053,-8.8053,-8.8053,-8.8179,-8.839,-8.8696,-8.9079,-8.9478,-8.9803,-8.9282,-8.9223,-8.9423,-8.8646,-8.8429,-8.8536,-8.8614,-8.83,-8.7916,-8.7985,-8.7741,-8.7369,-8.7382,-8.7405,-8.7407,-8.7407,-8.7401,-8.7386,-8.7341,-8.7247,-8.7113,-8.6904,-8.6475,-8.5898,-8.5197,-8.4728,-8.417,-8.3285,-8.2605,-8.1968,-8.1248,-8.0148,-7.8891,-7.7364,0.0,-7.536,-7.3831,-7.4009,-7.4346,-7.4569,-7.519,-7.5836,-7.635,-7.6141,-7.5953,-7.589,-7.5633,-7.5581,-7.5841,-7.5675,-7.5544,-7.5621,-7.5406,-7.5297,-7.5225,-7.5688,-7.6331,-7.708,-7.7865,-7.8574,-7.9159,-7.9285,-7.915,-7.887,-7.8741,-7.8609,-7.8272,-7.8186,-7.7841,-7.749,-7.749,-7.7278,-7.7009,-7.7009,-7.7009,-7.7009,-7.9768,-8.0542,-8.129,-8.2083,-8.267,-8.3208,-8.3819,-8.3904,-8.4074,-8.4527,-8.461,-8.461,-8.461,-8.461,-8.461,-8.461,-8.49,-8.5261,-8.5648,-8.6605,-8.7526,-8.8354,-8.865,-8.8917,-8.8992,-8.8992,-8.8992,-8.8992,-8.8992,-8.8992,-8.8992,-8.8992,-8.9047,-8.9102,-8.9265,-8.9489,-8.979,-9.0212,-9.0641,-9.0912,-9.0312,-9.0247,-9.0443,-8.9615,-8.936,-8.9507,-8.9585,-8.9268,-8.8827,-8.8923,-8.8455,-8.7811,-8.7805,-8.7626,-8.7407,-8.7407,-8.7386,-8.7351,-8.7247,-8.7113,-8.6959,-8.6782,-8.6584,-8.6221,-8.5491,-8.5318,-8.5016,-8.4138,-8.3418,-8.2779,-8.2138,-8.0958,-7.9702,-7.8521,-7.7452,-7.644,-7.523,-7.5172,-7.5382,-7.5641,-7.6162,-7.6717,-7.7268,-7.6993,-7.6801,-7.6801,-7.6475,-7.6275,-7.6208,-7.5937,-7.5727,-7.5478,-7.5512,-7.5581,-7.5581,-7.6117,-7.6902,-7.7865,-7.836,-7.8882,-7.9427,-7.9231,-7.8987,-7.8823,-7.8657,-7.8525,-7.8357,-7.8357,-7.8015,-7.7667,-7.7579,-7.7402,-7.7223,-7.7223,-7.7223,-7.7133,-7.9938,-8.0706,-8.1578,-8.2396,-8.2851,-8.3385,-8.3819,-8.3904,-8.4074,-8.4527,-8.461,-8.461,-8.461,-8.461,-8.461,-8.461,-8.5139,-8.5648,-8.61,-8.746,-8.8354,-8.8533,-8.8823,-8.8992,-8.8992,-8.8992,-8.8992,-8.8992,-8.8992,-8.8992,-8.8992,-8.8992,-8.9102,-8.9173,-8.9489,-8.979,-9.025,-9.0602,-9.0989,-9.1231,-9.0574,-9.0428,-9.0492,-8.9639,-8.936,-8.9527,-8.9583,-8.9674,-8.9815,-8.9875,-8.9361,-8.871,-8.8714,-8.811,-8.7407,-8.7407,-8.7377,-8.7281,-8.7142,-8.6941,-8.676,-8.6621,-8.644,-8.6246,-8.6126,-8.6094,-8.5829,-8.4916,-8.4659,-8.4054,-8.2222,-8.1729,-8.0999,-7.9122,-7.8479,-7.7683,-7.6252,-7.6476,-7.6659,-7.6153,-7.6827,-7.7304,-7.7304,-7.6993,-7.6801,-7.6801,-7.6475,-7.6208,-7.6003,-7.5832,-7.5727,-7.5514,-7.6048,-7.6402,-7.6402,-7.6402,-7.7187,-7.8686,-7.8455,-7.8725,-7.9231,-7.8987,-7.8823,-7.8574,-7.8574,-7.8574,-7.8574,-7.8357,-7.8101,-7.7893,-7.7667,-7.7402,-7.7223,-7.7223,-7.7223,-7.7133,-8.004,-8.0902,-8.1802,-8.2396,-8.2851,-8.3297,-8.3682,-8.3819,-8.3989,-8.4361,-8.4527,-8.461,-8.461,-8.461,-8.461,-8.461,-8.5642,-8.7079,-8.8851,-8.9655,-9.0153,-9.0547,-8.9574,-8.8992,-8.8992,-8.8992,-8.8992,-8.8992,-8.8992,-8.8992,-8.8992,-8.8992,-8.9102,-8.9173,-8.9489,-8.979,-9.025,-9.0602,-9.0989,-9.1264,-9.0634,-9.0482,-9.0492,-8.9686,-8.9465,-8.9585,-8.9635,-8.9738,-8.9794,-8.988,-8.9763,-8.9604,-8.9612,-8.9008,-8.8305,-8.8252,-8.777,-8.7183,-8.7011,-8.6765,-8.6571,-8.6544,-8.6404,-8.6184,-8.6126,-8.6094,-8.6022,-8.5685,-8.5082,-8.4399,-8.3753,-8.295,-8.1904,-8.0629,-7.9906,-7.9065,-7.7771,-7.7439,-7.7275,-7.6974,-7.7157,-7.7243,-7.7155,-7.6929,-7.6737,-7.6643,-7.6311,-7.6039,-7.5868,-7.5727,-7.5765,-7.6083,-7.6333,-7.6902,-7.7972,-7.8008,-7.8222,-7.8686,-7.906,-7.9179,-7.9231,-7.8987,-7.8823,-7.8574,-7.8574,-7.8574,-7.8574,-7.8357,-7.8101,-7.7893,-7.7667,-7.7402,-7.7223,-7.7223,-7.7223,-7.7133,-8.0141,-8.1097,-8.199,-8.2579,-8.2941,-8.3297,-8.3508,-8.3733,-8.3989,-8.4278,-8.4445,-8.461,-8.461,-8.4895,-8.5074,-8.5156,-8.6686,-8.8399,-9.023,-9.0652,-9.1021,-9.147,-9.0531,-8.9968,-8.9968,-8.9968,-8.9968,-8.9968,-8.9968,-8.9968,-8.9968,-9.0024,-9.0001,-8.9876,-9.0184,-9.038,-9.0474,-9.0877,-9.1168,-9.14,-9.1069,-9.1011,-9.1035,-9.0602,-9.0517,-9.0634,-9.0703,-9.0755,-9.0823,-9.0923,-9.0779,-9.0447,-9.0108,-8.9626,-8.9111,-8.8687,-8.8092,-8.7456,-8.6962,-8.6645,-8.6423,-8.6404,-8.6285,-8.6159,-8.6094,-8.606,-8.6026,-8.5923,-8.5432,-8.4862,-8.4366,-8.359,-8.2646,-8.1498,-8.0819,-7.9983,-7.8684,-7.8264,-7.7891,-7.7378,-7.7304,-7.7279,-7.7092,-7.6929,-7.6672,-7.6512,-7.614,-7.6079,-7.6229,-7.6123,-7.6265,-7.6795,-7.7152,-7.7758,-7.8686,-7.893,-7.9109,-7.9031,-7.9337,-7.9347,-7.9069,-7.8906,-7.8741,-7.8574,-7.8574,-7.8574,-7.8441,-7.8272,-7.8015,-7.7754,-7.749,-7.7313,-7.7223,-7.7223,-7.7133,-7.7009,-8.0442,-8.1386,-8.2269,-8.2796,-8.3031,-8.3297,-8.3508,-8.3733,-8.4025,-8.43,-8.4551,-8.4753,-8.4824,-8.5466,-8.5978,-8.6189,-8.8059,-8.9632,-9.0657,-9.1038,-9.1403,-9.1695,-9.1658,-9.162,-9.162,-9.1545,-9.1507,-9.1507,-9.1507,-9.1507,-9.147,-9.164,-9.1407,-9.0915,-9.1311,-9.1348,-9.103,-9.1364,-9.1638,-9.1831,-9.1965,-9.2031,-9.2004,-9.2076,-9.2169,-9.2226,-9.2276,-9.2339,-9.2424,-9.2577,-9.2056,-9.1272,-9.0452,-9.0126,-8.9827,-8.8947,-8.85,-8.8089,-8.7065,-8.6583,-8.6392,-8.6223,-8.6159,-8.6094,-8.6094,-8.6065,-8.5961,-8.5815,-8.5742,-8.536,-8.4358,-8.3872,-8.3209,-8.1946,-8.1319,-8.0505,-7.9283,-7.8933,-7.8554,-7.7635,-7.7524,-7.7463,-7.7312,-7.7085,-7.6825,-7.6492,-7.6289,-7.6406,-7.6913,-7.684,-7.7053,-7.758,-7.8294,-7.8722,-7.8793,-7.9309,-7.9621,-7.9621,-7.9311,-7.9069,-7.887,-7.8657,-7.8574,-7.8574,-7.8574,-7.8525,-7.8272,-7.8015,-7.7754,-7.7613,-7.7313,-7.7223,-7.7223,-7.7223,-7.7009,-7.6702,-8.0641,-8.1517,-8.2269,-8.2796,-8.3031,-8.3208,-8.3297,-8.3646,-8.4117,-8.4875,-8.5287,-8.5752,-8.6358,-8.6573,-8.6764,-8.7013,-8.8974,-9.0803,-9.2253,-9.2841,-9.3245,-9.346,-9.2784,-9.2446,-9.2446,-9.1808,-9.1507,-9.1507,-9.1507,-9.1507,-9.147,-9.164,-9.1747,-9.1823,-9.2271,-9.257,-9.2872,-9.3169,-9.3373,-9.3562,-9.3761,-9.3452,-9.2959,-9.3042,-9.2773,-9.2276,-9.2362,-9.2432,-9.2492,-9.2564,-9.2457,-9.2209,-9.2038,-9.1427,-9.0763,-9.04,-8.9702,-8.8817,-8.7758,-8.7369,-8.707,-8.628,-8.6094,-8.6094,-8.6094,-8.6065,-8.5961,-8.5815,-8.5742,-8.5552,-8.5037,-8.4613,-8.3936,-8.2519,-8.1904,-8.1126,-7.9928,-7.9694,-7.9496,-7.9286,-7.925,-7.9123,-7.8763,-7.8498,-7.8159,-7.795,-7.7738,-7.7595,-7.7629,-7.7408,-7.7691,-7.8401,-7.8579,-7.9007,-7.965,-7.9594,-7.9621,-7.9621,-7.915,-7.8987,-7.887,-7.8657,-7.8574,-7.8574,-7.8574,-7.8525,-7.8272,-7.8015,-7.7754,-7.7613,-7.7313,-7.7223,-7.7223,-7.7223,-7.7009,-7.6611,-8.0902,-8.1707,-8.2488,-8.2941,-8.3435,-8.377,-8.377,-8.4493,-8.5143,-8.5568,-8.6069,-8.6465,-8.6858,-8.7335,-8.8063,-8.9076,-9.0483,-9.1855,-9.2942,-9.3464,-9.377,-9.3986,-9.3535,-9.331,-9.331,-9.2484,-9.2071,-9.2071,-9.2071,-9.2316,-9.2786,-9.2974,-9.3018,-9.296,-9.3434,-9.3593,-9.3599,-9.3847,-9.4041,-9.4191,-9.4356,-9.3929,-9.3279,-9.3415,-9.2965,-9.2293,-9.2378,-9.2468,-9.2531,-9.2541,-9.2522,-9.2522,-9.2498,-9.21,-9.1561,-9.0924,-9.0319,-8.954,-8.8519,-8.7834,-8.7352,-8.6824,-8.6368,-8.6026,-8.6026,-8.5996,-8.5852,-8.5779,-8.5667,-8.5431,-8.5094,-8.4609,-8.3965,-8.2929,-8.2319,-8.1674,-8.0588,-8.0414,-8.0241,-7.9837,-7.98,-7.9636,-7.9274,-7.8872,-7.8632,-7.8421,-7.8171,-7.8206,-7.838,-7.8155,-7.8436,-7.9257,-7.9257,-7.9394,-7.9743,-7.9507,-7.9347,-7.9231,-7.8987,-7.8823,-7.8741,-7.8657,-7.8574,-7.8574,-7.8525,-7.8357,-7.8101,-7.7841,-7.7579,-7.7402,-7.7223,-7.7223,-7.7223,-7.7223,-7.6736,-7.5832,-8.1668,-8.2464,-8.3054,-8.3506,-8.4156,-8.4613,-8.4613,-8.5552,-8.6241,-8.6382,-8.6852,-8.7143,-8.7322,-8.8183,-8.9456,-9.1133,-9.1875,-9.261,-9.3211,-9.3587,-9.3867,-9.3986,-9.3835,-9.376,-9.376,-9.2934,-9.2559,-9.2709,-9.2709,-9.3105,-9.3991,-9.4383,-9.4414,-9.4125,-9.462,-9.46,-9.4236,-9.4473,-9.4626,-9.4729,-9.4809,-9.4302,-9.3542,-9.3668,-9.3155,-9.2323,-9.2381,-9.25,-9.26,-9.2522,-9.2482,-9.2514,-9.249,-9.2378,-9.2098,-9.1159,-9.07,-9.0305,-8.926,-8.843,-8.7748,-8.7478,-8.6795,-8.615,-8.5996,-8.5852,-8.5779,-8.5743,-8.555,-8.5224,-8.4833,-8.428,-8.3709,-8.3127,-8.2684,-8.2123,-8.1305,-8.1232,-8.0975,-8.0277,-8.014,-7.9975,-7.9609,-7.9239,-7.896,-7.8747,-7.8603,-7.8671,-7.9128,-7.8977,-7.9221,-7.9899,-7.9822,-7.9743,-7.9621,-7.9311,-7.9069,-7.887,-7.8906,-7.8741,-7.8574,-7.8574,-7.8574,-7.8525,-7.8357,-7.8101,-7.7841,-7.7667,-7.7402,-7.7223,-7.7223,-7.7223,-7.7223,-7.7043,-7.6241,-7.4966,-8.377,-8.4471,-8.4936,-8.521,-8.528,-8.535,-8.535,-8.587,-8.6453,-8.7126,-8.767,-8.8214,-8.8928,-8.9582,-9.0393,-9.1285,-9.2089,-9.281,-9.3364,-9.377,-9.3986,-9.3986,-9.3272,-9.2897,-9.2897,-9.2071,-9.1996,-9.2709,-9.2709,-9.2804,-9.3088,-9.4081,-9.4755,-9.5039,-9.55,-9.5867,-9.6047,-9.6249,-9.6444,-9.6549,-9.6631,-9.5762,-9.4441,-9.456,-9.371,-9.2405,-9.2463,-9.2537,-9.26,-9.2522,-9.2514,-9.249,-9.244,-9.2313,-9.2112,-9.168,-9.1473,-9.1106,-9.0042,-8.9671,-8.921,-8.7748,-8.7218,-8.6806,-8.6005,-8.5779,-8.5743,-8.5705,-8.5469,-8.5094,-8.4694,-8.4129,-8.3545,-8.2987,-8.2659,-8.2307,-8.2039,-8.2039,-8.2003,-8.1893,-8.1556,-8.1287,-8.1117,-8.0766,-8.0405,-8.0258,-8.0035,-7.9844,-7.9834,-7.9757,-7.9792,-7.9899,-7.9743,-7.9621,-7.9621,-7.915,-7.8906,-7.887,-7.8741,-7.8657,-7.8574,-7.8574,-7.8525,-7.8357,-7.8272,-7.8015,-7.7613,-7.7613,-7.7402,-7.7223,-7.7223,-7.7223,-7.7133,-7.6461,-7.5676,-7.4671,-8.4177,-8.4879,-8.5251,-8.5491,-8.5877,-8.6158,-8.6158,-8.6999,-8.7657,-8.8011,-8.8489,-8.8892,-8.9421,-9.0258,-9.1093,-9.1875,-9.2542,-9.3109,-9.355,-9.383,-9.3986,-9.3986,-9.361,-9.3422,-9.3422,-9.2596,-9.2333,-9.2709,-9.2316,-9.2486,-9.3213,-9.387,-9.4696,-9.5604,-9.602,-9.632,-9.6564,-9.6692,-9.6812,-9.6953,-9.7006,-9.6353,-9.536,-9.5006,-9.4159,-9.3075,-9.2695,-9.2556,-9.2522,-9.2507,-9.249,-9.2422,-9.2341,-9.2165,-9.1972,-9.1735,-9.1513,-9.1258,-9.0744,-9.0287,-8.971,-8.8979,-8.7952,-8.7041,-8.6621,-8.6011,-8.555,-8.555,-8.5224,-8.4833,-8.4318,-8.3709,-8.3186,-8.2684,-8.2407,-8.2251,-8.2186,-8.2186,-8.2186,-8.2055,-8.1751,-8.1547,-8.1445,-8.1021,-8.073,-8.0508,-8.0283,-8.013,-7.9899,-7.9899,-7.9899,-7.9899,-7.9665,-7.9507,-7.9427,-7.9069,-7.8823,-7.8741,-7.8657,-7.8574,-7.8574,-7.8525,-7.8357,-7.8272,-7.8015,-7.7789,-7.7613,-7.7402,-7.7313,-7.7223,-7.7223,-7.7133,-7.6828,-7.5771,-7.5,-7.4172]}]]